<?xml version="1.0" encoding="UTF-8"?>
<gpx creator="StravaGPX Android" version="1.1" xmlns="http://www.topografix.com/GPX/1/1" xmlns:xsi="http://www.w3.org/2001/XMLSchema-instance" xsi:schemaLocation="http://www.topografix.com/GPX/1/1 http://www.topografix.com/GPX/1/1/gpx.xsd">
  <metadata>
    <name>Bike to Bahnhof</name>
    <link href="https://www.strava.com/activities/19924317519"></link>
    <bounds minlat="48.815630" minlon="10.094928" maxlat="48.838355" maxlon="10.199506"></bounds>
    <keywords>activities:19924317519</keywords>
    <time>2026-08-27T15:20:07Z</time>
  </metadata>
  <trk>
    <name>Bike to Bahnhof</name>
    <trkseg>
      <trkpt lat="48.822154" lon="10.199506">
        <ele>609.3</ele>
        <time>2026-08-27T15:22:09Z</time>
      </trkpt>
      <trkpt lat="48.822204" lon="10.199443">
        <ele>609.4</ele>
        <time>2026-08-27T15:22:10Z</time>
      </trkpt>
      <trkpt lat="48.822247" lon="10.199377">
        <ele>609.4</ele>
        <time>2026-08-27T15:22:11Z</time>
      </trkpt>
      <trkpt lat="48.822293" lon="10.199302">
        <ele>609.5</ele>
        <time>2026-08-27T15:22:12Z</time>
      </trkpt>
      <trkpt lat="48.822339" lon="10.199230">
        <ele>609.7</ele>
        <time>2026-08-27T15:22:13Z</time>
      </trkpt>
      <trkpt lat="48.822377" lon="10.199163">
        <ele>609.8</ele>
        <time>2026-08-27T15:22:14Z</time>
      </trkpt>
      <trkpt lat="48.822401" lon="10.199076">
        <ele>609.9</ele>
        <time>2026-08-27T15:22:15Z</time>
      </trkpt>
      <trkpt lat="48.822451" lon="10.199021">
        <ele>610</ele>
        <time>2026-08-27T15:22:16Z</time>
      </trkpt>
      <trkpt lat="48.822492" lon="10.198948">
        <ele>610</ele>
        <time>2026-08-27T15:22:17Z</time>
      </trkpt>
      <trkpt lat="48.822526" lon="10.198866">
        <ele>610.1</ele>
        <time>2026-08-27T15:22:18Z</time>
      </trkpt>
      <trkpt lat="48.822569" lon="10.198791">
        <ele>610.1</ele>
        <time>2026-08-27T15:22:19Z</time>
      </trkpt>
      <trkpt lat="48.822604" lon="10.198719">
        <ele>610.2</ele>
        <time>2026-08-27T15:22:20Z</time>
      </trkpt>
      <trkpt lat="48.822629" lon="10.198636">
        <ele>610.2</ele>
        <time>2026-08-27T15:22:21Z</time>
      </trkpt>
      <trkpt lat="48.822654" lon="10.198554">
        <ele>610.2</ele>
        <time>2026-08-27T15:22:22Z</time>
      </trkpt>
      <trkpt lat="48.822686" lon="10.198466">
        <ele>610.2</ele>
        <time>2026-08-27T15:22:23Z</time>
      </trkpt>
      <trkpt lat="48.822705" lon="10.198387">
        <ele>610.2</ele>
        <time>2026-08-27T15:22:24Z</time>
      </trkpt>
      <trkpt lat="48.822731" lon="10.198301">
        <ele>610.3</ele>
        <time>2026-08-27T15:22:25Z</time>
      </trkpt>
      <trkpt lat="48.822752" lon="10.198213">
        <ele>610.3</ele>
        <time>2026-08-27T15:22:26Z</time>
      </trkpt>
      <trkpt lat="48.822772" lon="10.198131">
        <ele>610.4</ele>
        <time>2026-08-27T15:22:27Z</time>
      </trkpt>
      <trkpt lat="48.822791" lon="10.198046">
        <ele>610.5</ele>
        <time>2026-08-27T15:22:28Z</time>
      </trkpt>
      <trkpt lat="48.822803" lon="10.197959">
        <ele>610.6</ele>
        <time>2026-08-27T15:22:29Z</time>
      </trkpt>
      <trkpt lat="48.822814" lon="10.197874">
        <ele>610.6</ele>
        <time>2026-08-27T15:22:30Z</time>
      </trkpt>
      <trkpt lat="48.822836" lon="10.197792">
        <ele>610.7</ele>
        <time>2026-08-27T15:22:31Z</time>
      </trkpt>
      <trkpt lat="48.822864" lon="10.197708">
        <ele>610.7</ele>
        <time>2026-08-27T15:22:32Z</time>
      </trkpt>
      <trkpt lat="48.822880" lon="10.197623">
        <ele>610.8</ele>
        <time>2026-08-27T15:22:33Z</time>
      </trkpt>
      <trkpt lat="48.822897" lon="10.197535">
        <ele>610.9</ele>
        <time>2026-08-27T15:22:34Z</time>
      </trkpt>
      <trkpt lat="48.822917" lon="10.197445">
        <ele>610.9</ele>
        <time>2026-08-27T15:22:35Z</time>
      </trkpt>
      <trkpt lat="48.822939" lon="10.197358">
        <ele>611</ele>
        <time>2026-08-27T15:22:36Z</time>
      </trkpt>
      <trkpt lat="48.822956" lon="10.197271">
        <ele>611.1</ele>
        <time>2026-08-27T15:22:37Z</time>
      </trkpt>
      <trkpt lat="48.822973" lon="10.197189">
        <ele>611.1</ele>
        <time>2026-08-27T15:22:38Z</time>
      </trkpt>
      <trkpt lat="48.822993" lon="10.197107">
        <ele>611.2</ele>
        <time>2026-08-27T15:22:39Z</time>
      </trkpt>
      <trkpt lat="48.823011" lon="10.197020">
        <ele>611.3</ele>
        <time>2026-08-27T15:22:40Z</time>
      </trkpt>
      <trkpt lat="48.823026" lon="10.196933">
        <ele>611.4</ele>
        <time>2026-08-27T15:22:41Z</time>
      </trkpt>
      <trkpt lat="48.823050" lon="10.196852">
        <ele>611.5</ele>
        <time>2026-08-27T15:22:42Z</time>
      </trkpt>
      <trkpt lat="48.823066" lon="10.196775">
        <ele>611.5</ele>
        <time>2026-08-27T15:22:43Z</time>
      </trkpt>
      <trkpt lat="48.823081" lon="10.196687">
        <ele>611.6</ele>
        <time>2026-08-27T15:22:44Z</time>
      </trkpt>
      <trkpt lat="48.823106" lon="10.196595">
        <ele>611.7</ele>
        <time>2026-08-27T15:22:45Z</time>
      </trkpt>
      <trkpt lat="48.823121" lon="10.196511">
        <ele>611.8</ele>
        <time>2026-08-27T15:22:46Z</time>
      </trkpt>
      <trkpt lat="48.823142" lon="10.196433">
        <ele>611.9</ele>
        <time>2026-08-27T15:22:47Z</time>
      </trkpt>
      <trkpt lat="48.823163" lon="10.196350">
        <ele>612</ele>
        <time>2026-08-27T15:22:48Z</time>
      </trkpt>
      <trkpt lat="48.823179" lon="10.196269">
        <ele>612.1</ele>
        <time>2026-08-27T15:22:49Z</time>
      </trkpt>
      <trkpt lat="48.823184" lon="10.196198">
        <ele>612.2</ele>
        <time>2026-08-27T15:22:50Z</time>
      </trkpt>
      <trkpt lat="48.823195" lon="10.196118">
        <ele>612.3</ele>
        <time>2026-08-27T15:22:51Z</time>
      </trkpt>
      <trkpt lat="48.823208" lon="10.196042">
        <ele>612.3</ele>
        <time>2026-08-27T15:22:52Z</time>
      </trkpt>
      <trkpt lat="48.823227" lon="10.195964">
        <ele>612.4</ele>
        <time>2026-08-27T15:22:53Z</time>
      </trkpt>
      <trkpt lat="48.823247" lon="10.195891">
        <ele>612.5</ele>
        <time>2026-08-27T15:22:54Z</time>
      </trkpt>
      <trkpt lat="48.823266" lon="10.195814">
        <ele>612.6</ele>
        <time>2026-08-27T15:22:55Z</time>
      </trkpt>
      <trkpt lat="48.823279" lon="10.195739">
        <ele>612.7</ele>
        <time>2026-08-27T15:22:56Z</time>
      </trkpt>
      <trkpt lat="48.823293" lon="10.195655">
        <ele>612.8</ele>
        <time>2026-08-27T15:22:57Z</time>
      </trkpt>
      <trkpt lat="48.823314" lon="10.195577">
        <ele>612.9</ele>
        <time>2026-08-27T15:22:58Z</time>
      </trkpt>
      <trkpt lat="48.823338" lon="10.195500">
        <ele>613</ele>
        <time>2026-08-27T15:22:59Z</time>
      </trkpt>
      <trkpt lat="48.823373" lon="10.195432">
        <ele>613.2</ele>
        <time>2026-08-27T15:23:00Z</time>
      </trkpt>
      <trkpt lat="48.823400" lon="10.195365">
        <ele>613.3</ele>
        <time>2026-08-27T15:23:01Z</time>
      </trkpt>
      <trkpt lat="48.823433" lon="10.195298">
        <ele>613.4</ele>
        <time>2026-08-27T15:23:02Z</time>
      </trkpt>
      <trkpt lat="48.823468" lon="10.195236">
        <ele>613.6</ele>
        <time>2026-08-27T15:23:03Z</time>
      </trkpt>
      <trkpt lat="48.823502" lon="10.195179">
        <ele>613.8</ele>
        <time>2026-08-27T15:23:04Z</time>
      </trkpt>
      <trkpt lat="48.823534" lon="10.195132">
        <ele>613.9</ele>
        <time>2026-08-27T15:23:05Z</time>
      </trkpt>
      <trkpt lat="48.823571" lon="10.195084">
        <ele>614</ele>
        <time>2026-08-27T15:23:06Z</time>
      </trkpt>
      <trkpt lat="48.823608" lon="10.195041">
        <ele>614.2</ele>
        <time>2026-08-27T15:23:07Z</time>
      </trkpt>
      <trkpt lat="48.823648" lon="10.194995">
        <ele>614.3</ele>
        <time>2026-08-27T15:23:08Z</time>
      </trkpt>
      <trkpt lat="48.823693" lon="10.194965">
        <ele>614.5</ele>
        <time>2026-08-27T15:23:09Z</time>
      </trkpt>
      <trkpt lat="48.823738" lon="10.194935">
        <ele>614.6</ele>
        <time>2026-08-27T15:23:10Z</time>
      </trkpt>
      <trkpt lat="48.823786" lon="10.194910">
        <ele>614.8</ele>
        <time>2026-08-27T15:23:11Z</time>
      </trkpt>
      <trkpt lat="48.823831" lon="10.194888">
        <ele>615</ele>
        <time>2026-08-27T15:23:12Z</time>
      </trkpt>
      <trkpt lat="48.823851" lon="10.194819">
        <ele>615.2</ele>
        <time>2026-08-27T15:23:13Z</time>
      </trkpt>
      <trkpt lat="48.823887" lon="10.194797">
        <ele>615.3</ele>
        <time>2026-08-27T15:23:14Z</time>
      </trkpt>
      <trkpt lat="48.823936" lon="10.194782">
        <ele>615.4</ele>
        <time>2026-08-27T15:23:15Z</time>
      </trkpt>
      <trkpt lat="48.823978" lon="10.194761">
        <ele>615.6</ele>
        <time>2026-08-27T15:23:16Z</time>
      </trkpt>
      <trkpt lat="48.824007" lon="10.194718">
        <ele>615.7</ele>
        <time>2026-08-27T15:23:17Z</time>
      </trkpt>
      <trkpt lat="48.824024" lon="10.194669">
        <ele>615.6</ele>
        <time>2026-08-27T15:23:18Z</time>
      </trkpt>
      <trkpt lat="48.824040" lon="10.194625">
        <ele>615.4</ele>
        <time>2026-08-27T15:23:19Z</time>
      </trkpt>
      <trkpt lat="48.824033" lon="10.194572">
        <ele>615.3</ele>
        <time>2026-08-27T15:23:20Z</time>
      </trkpt>
      <trkpt lat="48.824007" lon="10.194521">
        <ele>615.1</ele>
        <time>2026-08-27T15:23:21Z</time>
      </trkpt>
      <trkpt lat="48.823980" lon="10.194475">
        <ele>614.9</ele>
        <time>2026-08-27T15:23:22Z</time>
      </trkpt>
      <trkpt lat="48.823955" lon="10.194421">
        <ele>614.7</ele>
        <time>2026-08-27T15:23:23Z</time>
      </trkpt>
      <trkpt lat="48.823929" lon="10.194368">
        <ele>614.5</ele>
        <time>2026-08-27T15:23:24Z</time>
      </trkpt>
      <trkpt lat="48.823905" lon="10.194311">
        <ele>614.3</ele>
        <time>2026-08-27T15:23:25Z</time>
      </trkpt>
      <trkpt lat="48.823879" lon="10.194250">
        <ele>614.1</ele>
        <time>2026-08-27T15:23:26Z</time>
      </trkpt>
      <trkpt lat="48.823853" lon="10.194187">
        <ele>613.9</ele>
        <time>2026-08-27T15:23:27Z</time>
      </trkpt>
      <trkpt lat="48.823829" lon="10.194129">
        <ele>613.7</ele>
        <time>2026-08-27T15:23:28Z</time>
      </trkpt>
      <trkpt lat="48.823808" lon="10.194077">
        <ele>613.6</ele>
        <time>2026-08-27T15:23:29Z</time>
      </trkpt>
      <trkpt lat="48.823784" lon="10.194018">
        <ele>613.4</ele>
        <time>2026-08-27T15:23:30Z</time>
      </trkpt>
      <trkpt lat="48.823764" lon="10.193969">
        <ele>613.4</ele>
        <time>2026-08-27T15:23:31Z</time>
      </trkpt>
      <trkpt lat="48.823732" lon="10.193909">
        <ele>613.3</ele>
        <time>2026-08-27T15:23:32Z</time>
      </trkpt>
      <trkpt lat="48.823699" lon="10.193839">
        <ele>613.2</ele>
        <time>2026-08-27T15:23:33Z</time>
      </trkpt>
      <trkpt lat="48.823667" lon="10.193764">
        <ele>613.1</ele>
        <time>2026-08-27T15:23:34Z</time>
      </trkpt>
      <trkpt lat="48.823637" lon="10.193680">
        <ele>612.9</ele>
        <time>2026-08-27T15:23:35Z</time>
      </trkpt>
      <trkpt lat="48.823606" lon="10.193596">
        <ele>612.8</ele>
        <time>2026-08-27T15:23:36Z</time>
      </trkpt>
      <trkpt lat="48.823578" lon="10.193517">
        <ele>612.7</ele>
        <time>2026-08-27T15:23:37Z</time>
      </trkpt>
      <trkpt lat="48.823548" lon="10.193433">
        <ele>612.7</ele>
        <time>2026-08-27T15:23:38Z</time>
      </trkpt>
      <trkpt lat="48.823516" lon="10.193336">
        <ele>612.6</ele>
        <time>2026-08-27T15:23:39Z</time>
      </trkpt>
      <trkpt lat="48.823488" lon="10.193260">
        <ele>612.5</ele>
        <time>2026-08-27T15:23:40Z</time>
      </trkpt>
      <trkpt lat="48.823454" lon="10.193178">
        <ele>612.6</ele>
        <time>2026-08-27T15:23:41Z</time>
      </trkpt>
      <trkpt lat="48.823424" lon="10.193099">
        <ele>612.7</ele>
        <time>2026-08-27T15:23:42Z</time>
      </trkpt>
      <trkpt lat="48.823399" lon="10.193029">
        <ele>612.7</ele>
        <time>2026-08-27T15:23:43Z</time>
      </trkpt>
      <trkpt lat="48.823369" lon="10.192952">
        <ele>612.6</ele>
        <time>2026-08-27T15:23:44Z</time>
      </trkpt>
      <trkpt lat="48.823335" lon="10.192877">
        <ele>612.6</ele>
        <time>2026-08-27T15:23:45Z</time>
      </trkpt>
      <trkpt lat="48.823301" lon="10.192806">
        <ele>612.6</ele>
        <time>2026-08-27T15:23:46Z</time>
      </trkpt>
      <trkpt lat="48.823269" lon="10.192742">
        <ele>612.7</ele>
        <time>2026-08-27T15:23:47Z</time>
      </trkpt>
      <trkpt lat="48.823248" lon="10.192659">
        <ele>612.7</ele>
        <time>2026-08-27T15:23:48Z</time>
      </trkpt>
      <trkpt lat="48.823227" lon="10.192575">
        <ele>612.8</ele>
        <time>2026-08-27T15:23:49Z</time>
      </trkpt>
      <trkpt lat="48.823203" lon="10.192497">
        <ele>612.8</ele>
        <time>2026-08-27T15:23:50Z</time>
      </trkpt>
      <trkpt lat="48.823175" lon="10.192417">
        <ele>612.9</ele>
        <time>2026-08-27T15:23:51Z</time>
      </trkpt>
      <trkpt lat="48.823153" lon="10.192329">
        <ele>613.4</ele>
        <time>2026-08-27T15:23:52Z</time>
      </trkpt>
      <trkpt lat="48.823130" lon="10.192269">
        <ele>613.8</ele>
        <time>2026-08-27T15:23:53Z</time>
      </trkpt>
      <trkpt lat="48.823116" lon="10.192215">
        <ele>614.2</ele>
        <time>2026-08-27T15:23:54Z</time>
      </trkpt>
      <trkpt lat="48.823118" lon="10.192167">
        <ele>614.4</ele>
        <time>2026-08-27T15:23:55Z</time>
      </trkpt>
      <trkpt lat="48.823120" lon="10.192105">
        <ele>614.8</ele>
        <time>2026-08-27T15:23:56Z</time>
      </trkpt>
      <trkpt lat="48.823146" lon="10.192055">
        <ele>615.1</ele>
        <time>2026-08-27T15:23:57Z</time>
      </trkpt>
      <trkpt lat="48.823211" lon="10.192025">
        <ele>615</ele>
        <time>2026-08-27T15:23:58Z</time>
      </trkpt>
      <trkpt lat="48.823270" lon="10.192024">
        <ele>615</ele>
        <time>2026-08-27T15:23:59Z</time>
      </trkpt>
      <trkpt lat="48.823317" lon="10.192009">
        <ele>615</ele>
        <time>2026-08-27T15:24:00Z</time>
      </trkpt>
      <trkpt lat="48.823364" lon="10.191984">
        <ele>615</ele>
        <time>2026-08-27T15:24:01Z</time>
      </trkpt>
      <trkpt lat="48.823403" lon="10.191952">
        <ele>615</ele>
        <time>2026-08-27T15:24:02Z</time>
      </trkpt>
      <trkpt lat="48.823405" lon="10.191867">
        <ele>615</ele>
        <time>2026-08-27T15:24:03Z</time>
      </trkpt>
      <trkpt lat="48.823348" lon="10.191815">
        <ele>615</ele>
        <time>2026-08-27T15:24:04Z</time>
      </trkpt>
      <trkpt lat="48.823325" lon="10.191771">
        <ele>615.1</ele>
        <time>2026-08-27T15:24:05Z</time>
      </trkpt>
      <trkpt lat="48.823294" lon="10.191720">
        <ele>615.1</ele>
        <time>2026-08-27T15:24:06Z</time>
      </trkpt>
      <trkpt lat="48.823267" lon="10.191670">
        <ele>615.1</ele>
        <time>2026-08-27T15:24:07Z</time>
      </trkpt>
      <trkpt lat="48.823232" lon="10.191610">
        <ele>615.2</ele>
        <time>2026-08-27T15:24:08Z</time>
      </trkpt>
      <trkpt lat="48.823204" lon="10.191545">
        <ele>615.2</ele>
        <time>2026-08-27T15:24:09Z</time>
      </trkpt>
      <trkpt lat="48.823180" lon="10.191481">
        <ele>615.2</ele>
        <time>2026-08-27T15:24:10Z</time>
      </trkpt>
      <trkpt lat="48.823152" lon="10.191420">
        <ele>615.3</ele>
        <time>2026-08-27T15:24:11Z</time>
      </trkpt>
      <trkpt lat="48.823124" lon="10.191358">
        <ele>615.3</ele>
        <time>2026-08-27T15:24:12Z</time>
      </trkpt>
      <trkpt lat="48.823091" lon="10.191306">
        <ele>615.3</ele>
        <time>2026-08-27T15:24:13Z</time>
      </trkpt>
      <trkpt lat="48.823062" lon="10.191247">
        <ele>615.4</ele>
        <time>2026-08-27T15:24:14Z</time>
      </trkpt>
      <trkpt lat="48.823043" lon="10.191187">
        <ele>615.4</ele>
        <time>2026-08-27T15:24:15Z</time>
      </trkpt>
      <trkpt lat="48.823026" lon="10.191126">
        <ele>615.5</ele>
        <time>2026-08-27T15:24:16Z</time>
      </trkpt>
      <trkpt lat="48.822998" lon="10.191067">
        <ele>615.5</ele>
        <time>2026-08-27T15:24:17Z</time>
      </trkpt>
      <trkpt lat="48.822978" lon="10.190995">
        <ele>615.5</ele>
        <time>2026-08-27T15:24:18Z</time>
      </trkpt>
      <trkpt lat="48.822956" lon="10.190930">
        <ele>615.6</ele>
        <time>2026-08-27T15:24:19Z</time>
      </trkpt>
      <trkpt lat="48.822933" lon="10.190866">
        <ele>615.7</ele>
        <time>2026-08-27T15:24:20Z</time>
      </trkpt>
      <trkpt lat="48.822910" lon="10.190792">
        <ele>615.7</ele>
        <time>2026-08-27T15:24:21Z</time>
      </trkpt>
      <trkpt lat="48.822890" lon="10.190735">
        <ele>615.8</ele>
        <time>2026-08-27T15:24:22Z</time>
      </trkpt>
      <trkpt lat="48.822873" lon="10.190669">
        <ele>615.9</ele>
        <time>2026-08-27T15:24:23Z</time>
      </trkpt>
      <trkpt lat="48.822859" lon="10.190611">
        <ele>615.9</ele>
        <time>2026-08-27T15:24:24Z</time>
      </trkpt>
      <trkpt lat="48.822848" lon="10.190535">
        <ele>616</ele>
        <time>2026-08-27T15:24:25Z</time>
      </trkpt>
      <trkpt lat="48.822802" lon="10.190461">
        <ele>616.2</ele>
        <time>2026-08-27T15:24:26Z</time>
      </trkpt>
      <trkpt lat="48.822786" lon="10.190395">
        <ele>616.2</ele>
        <time>2026-08-27T15:24:27Z</time>
      </trkpt>
      <trkpt lat="48.822776" lon="10.190324">
        <ele>616.3</ele>
        <time>2026-08-27T15:24:28Z</time>
      </trkpt>
      <trkpt lat="48.822779" lon="10.190257">
        <ele>616.4</ele>
        <time>2026-08-27T15:24:29Z</time>
      </trkpt>
      <trkpt lat="48.822763" lon="10.190186">
        <ele>616.5</ele>
        <time>2026-08-27T15:24:30Z</time>
      </trkpt>
      <trkpt lat="48.822744" lon="10.190082">
        <ele>616.6</ele>
        <time>2026-08-27T15:24:31Z</time>
      </trkpt>
      <trkpt lat="48.822726" lon="10.190014">
        <ele>616.7</ele>
        <time>2026-08-27T15:24:32Z</time>
      </trkpt>
      <trkpt lat="48.822710" lon="10.189952">
        <ele>616.8</ele>
        <time>2026-08-27T15:24:33Z</time>
      </trkpt>
      <trkpt lat="48.822695" lon="10.189889">
        <ele>616.8</ele>
        <time>2026-08-27T15:24:34Z</time>
      </trkpt>
      <trkpt lat="48.822678" lon="10.189817">
        <ele>616.9</ele>
        <time>2026-08-27T15:24:35Z</time>
      </trkpt>
      <trkpt lat="48.822666" lon="10.189752">
        <ele>616.9</ele>
        <time>2026-08-27T15:24:36Z</time>
      </trkpt>
      <trkpt lat="48.822657" lon="10.189688">
        <ele>617</ele>
        <time>2026-08-27T15:24:37Z</time>
      </trkpt>
      <trkpt lat="48.822647" lon="10.189628">
        <ele>617</ele>
        <time>2026-08-27T15:24:38Z</time>
      </trkpt>
      <trkpt lat="48.822633" lon="10.189573">
        <ele>617.1</ele>
        <time>2026-08-27T15:24:39Z</time>
      </trkpt>
      <trkpt lat="48.822622" lon="10.189516">
        <ele>617.1</ele>
        <time>2026-08-27T15:24:40Z</time>
      </trkpt>
      <trkpt lat="48.822616" lon="10.189441">
        <ele>617.2</ele>
        <time>2026-08-27T15:24:41Z</time>
      </trkpt>
      <trkpt lat="48.822611" lon="10.189372">
        <ele>617.3</ele>
        <time>2026-08-27T15:24:42Z</time>
      </trkpt>
      <trkpt lat="48.822606" lon="10.189305">
        <ele>617.3</ele>
        <time>2026-08-27T15:24:43Z</time>
      </trkpt>
      <trkpt lat="48.822604" lon="10.189231">
        <ele>617.4</ele>
        <time>2026-08-27T15:24:44Z</time>
      </trkpt>
      <trkpt lat="48.822602" lon="10.189150">
        <ele>617.5</ele>
        <time>2026-08-27T15:24:45Z</time>
      </trkpt>
      <trkpt lat="48.822600" lon="10.189064">
        <ele>617.6</ele>
        <time>2026-08-27T15:24:46Z</time>
      </trkpt>
      <trkpt lat="48.822604" lon="10.188980">
        <ele>617.7</ele>
        <time>2026-08-27T15:24:47Z</time>
      </trkpt>
      <trkpt lat="48.822606" lon="10.188903">
        <ele>617.7</ele>
        <time>2026-08-27T15:24:48Z</time>
      </trkpt>
      <trkpt lat="48.822605" lon="10.188823">
        <ele>617.8</ele>
        <time>2026-08-27T15:24:49Z</time>
      </trkpt>
      <trkpt lat="48.822600" lon="10.188749">
        <ele>617.9</ele>
        <time>2026-08-27T15:24:50Z</time>
      </trkpt>
      <trkpt lat="48.822598" lon="10.188683">
        <ele>618</ele>
        <time>2026-08-27T15:24:51Z</time>
      </trkpt>
      <trkpt lat="48.822596" lon="10.188608">
        <ele>618.1</ele>
        <time>2026-08-27T15:24:52Z</time>
      </trkpt>
      <trkpt lat="48.822591" lon="10.188536">
        <ele>618.2</ele>
        <time>2026-08-27T15:24:53Z</time>
      </trkpt>
      <trkpt lat="48.822593" lon="10.188459">
        <ele>618.3</ele>
        <time>2026-08-27T15:24:54Z</time>
      </trkpt>
      <trkpt lat="48.822594" lon="10.188383">
        <ele>618.4</ele>
        <time>2026-08-27T15:24:55Z</time>
      </trkpt>
      <trkpt lat="48.822599" lon="10.188304">
        <ele>618.6</ele>
        <time>2026-08-27T15:24:56Z</time>
      </trkpt>
      <trkpt lat="48.822603" lon="10.188240">
        <ele>618.7</ele>
        <time>2026-08-27T15:24:57Z</time>
      </trkpt>
      <trkpt lat="48.822611" lon="10.188175">
        <ele>618.8</ele>
        <time>2026-08-27T15:24:58Z</time>
      </trkpt>
      <trkpt lat="48.822616" lon="10.188113">
        <ele>618.9</ele>
        <time>2026-08-27T15:24:59Z</time>
      </trkpt>
      <trkpt lat="48.822620" lon="10.188052">
        <ele>619.1</ele>
        <time>2026-08-27T15:25:00Z</time>
      </trkpt>
      <trkpt lat="48.822630" lon="10.187990">
        <ele>619.2</ele>
        <time>2026-08-27T15:25:01Z</time>
      </trkpt>
      <trkpt lat="48.822640" lon="10.187924">
        <ele>619.3</ele>
        <time>2026-08-27T15:25:02Z</time>
      </trkpt>
      <trkpt lat="48.822646" lon="10.187856">
        <ele>619.5</ele>
        <time>2026-08-27T15:25:03Z</time>
      </trkpt>
      <trkpt lat="48.822650" lon="10.187786">
        <ele>619.7</ele>
        <time>2026-08-27T15:25:04Z</time>
      </trkpt>
      <trkpt lat="48.822653" lon="10.187718">
        <ele>619.8</ele>
        <time>2026-08-27T15:25:05Z</time>
      </trkpt>
      <trkpt lat="48.822655" lon="10.187641">
        <ele>620</ele>
        <time>2026-08-27T15:25:06Z</time>
      </trkpt>
      <trkpt lat="48.822663" lon="10.187558">
        <ele>620.2</ele>
        <time>2026-08-27T15:25:07Z</time>
      </trkpt>
      <trkpt lat="48.822666" lon="10.187483">
        <ele>620.5</ele>
        <time>2026-08-27T15:25:08Z</time>
      </trkpt>
      <trkpt lat="48.822672" lon="10.187420">
        <ele>620.6</ele>
        <time>2026-08-27T15:25:09Z</time>
      </trkpt>
      <trkpt lat="48.822675" lon="10.187361">
        <ele>620.8</ele>
        <time>2026-08-27T15:25:10Z</time>
      </trkpt>
      <trkpt lat="48.822677" lon="10.187305">
        <ele>621</ele>
        <time>2026-08-27T15:25:11Z</time>
      </trkpt>
      <trkpt lat="48.822684" lon="10.187241">
        <ele>621.2</ele>
        <time>2026-08-27T15:25:12Z</time>
      </trkpt>
      <trkpt lat="48.822688" lon="10.187176">
        <ele>621.4</ele>
        <time>2026-08-27T15:25:13Z</time>
      </trkpt>
      <trkpt lat="48.822693" lon="10.187116">
        <ele>621.5</ele>
        <time>2026-08-27T15:25:14Z</time>
      </trkpt>
      <trkpt lat="48.822698" lon="10.187053">
        <ele>621.7</ele>
        <time>2026-08-27T15:25:15Z</time>
      </trkpt>
      <trkpt lat="48.822699" lon="10.186990">
        <ele>621.9</ele>
        <time>2026-08-27T15:25:16Z</time>
      </trkpt>
      <trkpt lat="48.822702" lon="10.186928">
        <ele>622.1</ele>
        <time>2026-08-27T15:25:17Z</time>
      </trkpt>
      <trkpt lat="48.822703" lon="10.186863">
        <ele>622.2</ele>
        <time>2026-08-27T15:25:18Z</time>
      </trkpt>
      <trkpt lat="48.822700" lon="10.186797">
        <ele>622.4</ele>
        <time>2026-08-27T15:25:19Z</time>
      </trkpt>
      <trkpt lat="48.822696" lon="10.186742">
        <ele>622.6</ele>
        <time>2026-08-27T15:25:20Z</time>
      </trkpt>
      <trkpt lat="48.822695" lon="10.186684">
        <ele>622.8</ele>
        <time>2026-08-27T15:25:21Z</time>
      </trkpt>
      <trkpt lat="48.822697" lon="10.186620">
        <ele>623</ele>
        <time>2026-08-27T15:25:22Z</time>
      </trkpt>
      <trkpt lat="48.822697" lon="10.186562">
        <ele>623.2</ele>
        <time>2026-08-27T15:25:23Z</time>
      </trkpt>
      <trkpt lat="48.822698" lon="10.186502">
        <ele>623.4</ele>
        <time>2026-08-27T15:25:24Z</time>
      </trkpt>
      <trkpt lat="48.822698" lon="10.186439">
        <ele>623.6</ele>
        <time>2026-08-27T15:25:25Z</time>
      </trkpt>
      <trkpt lat="48.822695" lon="10.186388">
        <ele>623.7</ele>
        <time>2026-08-27T15:25:26Z</time>
      </trkpt>
      <trkpt lat="48.822688" lon="10.186338">
        <ele>623.9</ele>
        <time>2026-08-27T15:25:27Z</time>
      </trkpt>
      <trkpt lat="48.822681" lon="10.186281">
        <ele>624.1</ele>
        <time>2026-08-27T15:25:28Z</time>
      </trkpt>
      <trkpt lat="48.822671" lon="10.186229">
        <ele>624.3</ele>
        <time>2026-08-27T15:25:29Z</time>
      </trkpt>
      <trkpt lat="48.822661" lon="10.186174">
        <ele>624.6</ele>
        <time>2026-08-27T15:25:30Z</time>
      </trkpt>
      <trkpt lat="48.822656" lon="10.186113">
        <ele>624.8</ele>
        <time>2026-08-27T15:25:31Z</time>
      </trkpt>
      <trkpt lat="48.822642" lon="10.186050">
        <ele>625.1</ele>
        <time>2026-08-27T15:25:32Z</time>
      </trkpt>
      <trkpt lat="48.822632" lon="10.185987">
        <ele>625.3</ele>
        <time>2026-08-27T15:25:33Z</time>
      </trkpt>
      <trkpt lat="48.822625" lon="10.185933">
        <ele>625.6</ele>
        <time>2026-08-27T15:25:34Z</time>
      </trkpt>
      <trkpt lat="48.822616" lon="10.185883">
        <ele>625.8</ele>
        <time>2026-08-27T15:25:35Z</time>
      </trkpt>
      <trkpt lat="48.822610" lon="10.185827">
        <ele>626</ele>
        <time>2026-08-27T15:25:36Z</time>
      </trkpt>
      <trkpt lat="48.822601" lon="10.185782">
        <ele>626.1</ele>
        <time>2026-08-27T15:25:37Z</time>
      </trkpt>
      <trkpt lat="48.822591" lon="10.185734">
        <ele>626.3</ele>
        <time>2026-08-27T15:25:38Z</time>
      </trkpt>
      <trkpt lat="48.822581" lon="10.185685">
        <ele>626.5</ele>
        <time>2026-08-27T15:25:39Z</time>
      </trkpt>
      <trkpt lat="48.822573" lon="10.185644">
        <ele>626.6</ele>
        <time>2026-08-27T15:25:40Z</time>
      </trkpt>
      <trkpt lat="48.822557" lon="10.185593">
        <ele>626.8</ele>
        <time>2026-08-27T15:25:41Z</time>
      </trkpt>
      <trkpt lat="48.822538" lon="10.185541">
        <ele>627</ele>
        <time>2026-08-27T15:25:42Z</time>
      </trkpt>
      <trkpt lat="48.822522" lon="10.185486">
        <ele>627.2</ele>
        <time>2026-08-27T15:25:43Z</time>
      </trkpt>
      <trkpt lat="48.822507" lon="10.185427">
        <ele>627.4</ele>
        <time>2026-08-27T15:25:44Z</time>
      </trkpt>
      <trkpt lat="48.822491" lon="10.185373">
        <ele>627.6</ele>
        <time>2026-08-27T15:25:45Z</time>
      </trkpt>
      <trkpt lat="48.822478" lon="10.185317">
        <ele>627.8</ele>
        <time>2026-08-27T15:25:46Z</time>
      </trkpt>
      <trkpt lat="48.822466" lon="10.185266">
        <ele>627.9</ele>
        <time>2026-08-27T15:25:47Z</time>
      </trkpt>
      <trkpt lat="48.822446" lon="10.185210">
        <ele>628.1</ele>
        <time>2026-08-27T15:25:48Z</time>
      </trkpt>
      <trkpt lat="48.822428" lon="10.185154">
        <ele>628.3</ele>
        <time>2026-08-27T15:25:49Z</time>
      </trkpt>
      <trkpt lat="48.822414" lon="10.185102">
        <ele>628.5</ele>
        <time>2026-08-27T15:25:50Z</time>
      </trkpt>
      <trkpt lat="48.822400" lon="10.185047">
        <ele>628.7</ele>
        <time>2026-08-27T15:25:51Z</time>
      </trkpt>
      <trkpt lat="48.822384" lon="10.184990">
        <ele>628.8</ele>
        <time>2026-08-27T15:25:52Z</time>
      </trkpt>
      <trkpt lat="48.822363" lon="10.184937">
        <ele>629</ele>
        <time>2026-08-27T15:25:53Z</time>
      </trkpt>
      <trkpt lat="48.822347" lon="10.184880">
        <ele>629.2</ele>
        <time>2026-08-27T15:25:54Z</time>
      </trkpt>
      <trkpt lat="48.822327" lon="10.184822">
        <ele>629.4</ele>
        <time>2026-08-27T15:25:55Z</time>
      </trkpt>
      <trkpt lat="48.822313" lon="10.184780">
        <ele>629.5</ele>
        <time>2026-08-27T15:25:56Z</time>
      </trkpt>
      <trkpt lat="48.822300" lon="10.184732">
        <ele>629.6</ele>
        <time>2026-08-27T15:25:57Z</time>
      </trkpt>
      <trkpt lat="48.822287" lon="10.184682">
        <ele>629.8</ele>
        <time>2026-08-27T15:25:58Z</time>
      </trkpt>
      <trkpt lat="48.822275" lon="10.184634">
        <ele>629.9</ele>
        <time>2026-08-27T15:25:59Z</time>
      </trkpt>
      <trkpt lat="48.822271" lon="10.184585">
        <ele>630.1</ele>
        <time>2026-08-27T15:26:00Z</time>
      </trkpt>
      <trkpt lat="48.822258" lon="10.184532">
        <ele>630.2</ele>
        <time>2026-08-27T15:26:01Z</time>
      </trkpt>
      <trkpt lat="48.822242" lon="10.184469">
        <ele>630.4</ele>
        <time>2026-08-27T15:26:02Z</time>
      </trkpt>
      <trkpt lat="48.822221" lon="10.184414">
        <ele>630.6</ele>
        <time>2026-08-27T15:26:03Z</time>
      </trkpt>
      <trkpt lat="48.822205" lon="10.184356">
        <ele>630.8</ele>
        <time>2026-08-27T15:26:04Z</time>
      </trkpt>
      <trkpt lat="48.822181" lon="10.184299">
        <ele>631</ele>
        <time>2026-08-27T15:26:05Z</time>
      </trkpt>
      <trkpt lat="48.822160" lon="10.184244">
        <ele>631.1</ele>
        <time>2026-08-27T15:26:06Z</time>
      </trkpt>
      <trkpt lat="48.822142" lon="10.184190">
        <ele>631.3</ele>
        <time>2026-08-27T15:26:07Z</time>
      </trkpt>
      <trkpt lat="48.822127" lon="10.184138">
        <ele>631.5</ele>
        <time>2026-08-27T15:26:08Z</time>
      </trkpt>
      <trkpt lat="48.822106" lon="10.184079">
        <ele>631.7</ele>
        <time>2026-08-27T15:26:09Z</time>
      </trkpt>
      <trkpt lat="48.822090" lon="10.184026">
        <ele>631.8</ele>
        <time>2026-08-27T15:26:10Z</time>
      </trkpt>
      <trkpt lat="48.822067" lon="10.183971">
        <ele>632</ele>
        <time>2026-08-27T15:26:11Z</time>
      </trkpt>
      <trkpt lat="48.822047" lon="10.183907">
        <ele>632.2</ele>
        <time>2026-08-27T15:26:12Z</time>
      </trkpt>
      <trkpt lat="48.822029" lon="10.183845">
        <ele>632.4</ele>
        <time>2026-08-27T15:26:13Z</time>
      </trkpt>
      <trkpt lat="48.822009" lon="10.183781">
        <ele>632.7</ele>
        <time>2026-08-27T15:26:14Z</time>
      </trkpt>
      <trkpt lat="48.821993" lon="10.183725">
        <ele>632.9</ele>
        <time>2026-08-27T15:26:15Z</time>
      </trkpt>
      <trkpt lat="48.821971" lon="10.183675">
        <ele>633</ele>
        <time>2026-08-27T15:26:16Z</time>
      </trkpt>
      <trkpt lat="48.821949" lon="10.183624">
        <ele>633.2</ele>
        <time>2026-08-27T15:26:17Z</time>
      </trkpt>
      <trkpt lat="48.821929" lon="10.183578">
        <ele>633.4</ele>
        <time>2026-08-27T15:26:18Z</time>
      </trkpt>
      <trkpt lat="48.821913" lon="10.183521">
        <ele>633.6</ele>
        <time>2026-08-27T15:26:19Z</time>
      </trkpt>
      <trkpt lat="48.821886" lon="10.183458">
        <ele>633.9</ele>
        <time>2026-08-27T15:26:20Z</time>
      </trkpt>
      <trkpt lat="48.821861" lon="10.183398">
        <ele>634.1</ele>
        <time>2026-08-27T15:26:21Z</time>
      </trkpt>
      <trkpt lat="48.821845" lon="10.183349">
        <ele>634.3</ele>
        <time>2026-08-27T15:26:22Z</time>
      </trkpt>
      <trkpt lat="48.821838" lon="10.183298">
        <ele>634.5</ele>
        <time>2026-08-27T15:26:23Z</time>
      </trkpt>
      <trkpt lat="48.821826" lon="10.183240">
        <ele>634.7</ele>
        <time>2026-08-27T15:26:24Z</time>
      </trkpt>
      <trkpt lat="48.821813" lon="10.183176">
        <ele>634.9</ele>
        <time>2026-08-27T15:26:25Z</time>
      </trkpt>
      <trkpt lat="48.821802" lon="10.183126">
        <ele>635.1</ele>
        <time>2026-08-27T15:26:26Z</time>
      </trkpt>
      <trkpt lat="48.821790" lon="10.183076">
        <ele>635.3</ele>
        <time>2026-08-27T15:26:27Z</time>
      </trkpt>
      <trkpt lat="48.821771" lon="10.183022">
        <ele>635.5</ele>
        <time>2026-08-27T15:26:28Z</time>
      </trkpt>
      <trkpt lat="48.821754" lon="10.182965">
        <ele>635.7</ele>
        <time>2026-08-27T15:26:29Z</time>
      </trkpt>
      <trkpt lat="48.821734" lon="10.182912">
        <ele>635.9</ele>
        <time>2026-08-27T15:26:30Z</time>
      </trkpt>
      <trkpt lat="48.821716" lon="10.182855">
        <ele>636.1</ele>
        <time>2026-08-27T15:26:31Z</time>
      </trkpt>
      <trkpt lat="48.821690" lon="10.182784">
        <ele>636.4</ele>
        <time>2026-08-27T15:26:32Z</time>
      </trkpt>
      <trkpt lat="48.821672" lon="10.182716">
        <ele>636.5</ele>
        <time>2026-08-27T15:26:33Z</time>
      </trkpt>
      <trkpt lat="48.821656" lon="10.182639">
        <ele>636.5</ele>
        <time>2026-08-27T15:26:34Z</time>
      </trkpt>
      <trkpt lat="48.821647" lon="10.182565">
        <ele>636.4</ele>
        <time>2026-08-27T15:26:35Z</time>
      </trkpt>
      <trkpt lat="48.821631" lon="10.182485">
        <ele>636.4</ele>
        <time>2026-08-27T15:26:36Z</time>
      </trkpt>
      <trkpt lat="48.821613" lon="10.182418">
        <ele>636.4</ele>
        <time>2026-08-27T15:26:37Z</time>
      </trkpt>
      <trkpt lat="48.821604" lon="10.182344">
        <ele>636.4</ele>
        <time>2026-08-27T15:26:38Z</time>
      </trkpt>
      <trkpt lat="48.821590" lon="10.182274">
        <ele>636.4</ele>
        <time>2026-08-27T15:26:39Z</time>
      </trkpt>
      <trkpt lat="48.821576" lon="10.182207">
        <ele>636.4</ele>
        <time>2026-08-27T15:26:40Z</time>
      </trkpt>
      <trkpt lat="48.821558" lon="10.182145">
        <ele>636.3</ele>
        <time>2026-08-27T15:26:41Z</time>
      </trkpt>
      <trkpt lat="48.821551" lon="10.182083">
        <ele>636.3</ele>
        <time>2026-08-27T15:26:42Z</time>
      </trkpt>
      <trkpt lat="48.821540" lon="10.182022">
        <ele>636.3</ele>
        <time>2026-08-27T15:26:43Z</time>
      </trkpt>
      <trkpt lat="48.821525" lon="10.181952">
        <ele>636.3</ele>
        <time>2026-08-27T15:26:44Z</time>
      </trkpt>
      <trkpt lat="48.821508" lon="10.181888">
        <ele>636.3</ele>
        <time>2026-08-27T15:26:45Z</time>
      </trkpt>
      <trkpt lat="48.821492" lon="10.181831">
        <ele>636.3</ele>
        <time>2026-08-27T15:26:46Z</time>
      </trkpt>
      <trkpt lat="48.821478" lon="10.181773">
        <ele>636.3</ele>
        <time>2026-08-27T15:26:47Z</time>
      </trkpt>
      <trkpt lat="48.821468" lon="10.181720">
        <ele>636.3</ele>
        <time>2026-08-27T15:26:48Z</time>
      </trkpt>
      <trkpt lat="48.821459" lon="10.181670">
        <ele>636.3</ele>
        <time>2026-08-27T15:26:49Z</time>
      </trkpt>
      <trkpt lat="48.821455" lon="10.181601">
        <ele>636.3</ele>
        <time>2026-08-27T15:26:50Z</time>
      </trkpt>
      <trkpt lat="48.821447" lon="10.181539">
        <ele>636.3</ele>
        <time>2026-08-27T15:26:51Z</time>
      </trkpt>
      <trkpt lat="48.821439" lon="10.181488">
        <ele>636.3</ele>
        <time>2026-08-27T15:26:52Z</time>
      </trkpt>
      <trkpt lat="48.821429" lon="10.181438">
        <ele>636.3</ele>
        <time>2026-08-27T15:26:53Z</time>
      </trkpt>
      <trkpt lat="48.821421" lon="10.181383">
        <ele>636.3</ele>
        <time>2026-08-27T15:26:54Z</time>
      </trkpt>
      <trkpt lat="48.821410" lon="10.181322">
        <ele>636.5</ele>
        <time>2026-08-27T15:26:55Z</time>
      </trkpt>
      <trkpt lat="48.821397" lon="10.181263">
        <ele>636.7</ele>
        <time>2026-08-27T15:26:56Z</time>
      </trkpt>
      <trkpt lat="48.821382" lon="10.181214">
        <ele>636.9</ele>
        <time>2026-08-27T15:26:57Z</time>
      </trkpt>
      <trkpt lat="48.821366" lon="10.181166">
        <ele>637.1</ele>
        <time>2026-08-27T15:26:58Z</time>
      </trkpt>
      <trkpt lat="48.821357" lon="10.181115">
        <ele>637.3</ele>
        <time>2026-08-27T15:26:59Z</time>
      </trkpt>
      <trkpt lat="48.821350" lon="10.181065">
        <ele>637.5</ele>
        <time>2026-08-27T15:27:00Z</time>
      </trkpt>
      <trkpt lat="48.821341" lon="10.181018">
        <ele>637.7</ele>
        <time>2026-08-27T15:27:01Z</time>
      </trkpt>
      <trkpt lat="48.821332" lon="10.180971">
        <ele>637.8</ele>
        <time>2026-08-27T15:27:02Z</time>
      </trkpt>
      <trkpt lat="48.821323" lon="10.180924">
        <ele>638</ele>
        <time>2026-08-27T15:27:03Z</time>
      </trkpt>
      <trkpt lat="48.821303" lon="10.180877">
        <ele>638.2</ele>
        <time>2026-08-27T15:27:04Z</time>
      </trkpt>
      <trkpt lat="48.821285" lon="10.180832">
        <ele>638.4</ele>
        <time>2026-08-27T15:27:05Z</time>
      </trkpt>
      <trkpt lat="48.821275" lon="10.180784">
        <ele>638.6</ele>
        <time>2026-08-27T15:27:06Z</time>
      </trkpt>
      <trkpt lat="48.821266" lon="10.180737">
        <ele>638.8</ele>
        <time>2026-08-27T15:27:07Z</time>
      </trkpt>
      <trkpt lat="48.821251" lon="10.180692">
        <ele>639.1</ele>
        <time>2026-08-27T15:27:08Z</time>
      </trkpt>
      <trkpt lat="48.821237" lon="10.180645">
        <ele>639.3</ele>
        <time>2026-08-27T15:27:09Z</time>
      </trkpt>
      <trkpt lat="48.821228" lon="10.180590">
        <ele>639.5</ele>
        <time>2026-08-27T15:27:10Z</time>
      </trkpt>
      <trkpt lat="48.821220" lon="10.180539">
        <ele>639.8</ele>
        <time>2026-08-27T15:27:11Z</time>
      </trkpt>
      <trkpt lat="48.821213" lon="10.180485">
        <ele>640</ele>
        <time>2026-08-27T15:27:12Z</time>
      </trkpt>
      <trkpt lat="48.821210" lon="10.180427">
        <ele>640.2</ele>
        <time>2026-08-27T15:27:13Z</time>
      </trkpt>
      <trkpt lat="48.821206" lon="10.180371">
        <ele>640.5</ele>
        <time>2026-08-27T15:27:14Z</time>
      </trkpt>
      <trkpt lat="48.821200" lon="10.180320">
        <ele>640.7</ele>
        <time>2026-08-27T15:27:15Z</time>
      </trkpt>
      <trkpt lat="48.821196" lon="10.180264">
        <ele>640.9</ele>
        <time>2026-08-27T15:27:16Z</time>
      </trkpt>
      <trkpt lat="48.821188" lon="10.180213">
        <ele>641.2</ele>
        <time>2026-08-27T15:27:17Z</time>
      </trkpt>
      <trkpt lat="48.821179" lon="10.180164">
        <ele>641.4</ele>
        <time>2026-08-27T15:27:18Z</time>
      </trkpt>
      <trkpt lat="48.821168" lon="10.180120">
        <ele>641.6</ele>
        <time>2026-08-27T15:27:19Z</time>
      </trkpt>
      <trkpt lat="48.821157" lon="10.180069">
        <ele>641.9</ele>
        <time>2026-08-27T15:27:20Z</time>
      </trkpt>
      <trkpt lat="48.821147" lon="10.180027">
        <ele>642.1</ele>
        <time>2026-08-27T15:27:21Z</time>
      </trkpt>
      <trkpt lat="48.821142" lon="10.179996">
        <ele>642.3</ele>
        <time>2026-08-27T15:27:22Z</time>
      </trkpt>
      <trkpt lat="48.821132" lon="10.179958">
        <ele>642.5</ele>
        <time>2026-08-27T15:27:23Z</time>
      </trkpt>
      <trkpt lat="48.821125" lon="10.179931">
        <ele>642.6</ele>
        <time>2026-08-27T15:27:24Z</time>
      </trkpt>
      <trkpt lat="48.821116" lon="10.179895">
        <ele>642.8</ele>
        <time>2026-08-27T15:27:25Z</time>
      </trkpt>
      <trkpt lat="48.821108" lon="10.179845">
        <ele>643.1</ele>
        <time>2026-08-27T15:27:26Z</time>
      </trkpt>
      <trkpt lat="48.821098" lon="10.179801">
        <ele>643.3</ele>
        <time>2026-08-27T15:27:27Z</time>
      </trkpt>
      <trkpt lat="48.821087" lon="10.179761">
        <ele>643.5</ele>
        <time>2026-08-27T15:27:28Z</time>
      </trkpt>
      <trkpt lat="48.821073" lon="10.179724">
        <ele>643.7</ele>
        <time>2026-08-27T15:27:29Z</time>
      </trkpt>
      <trkpt lat="48.821065" lon="10.179691">
        <ele>643.8</ele>
        <time>2026-08-27T15:27:30Z</time>
      </trkpt>
      <trkpt lat="48.821058" lon="10.179664">
        <ele>644</ele>
        <time>2026-08-27T15:27:31Z</time>
      </trkpt>
      <trkpt lat="48.821044" lon="10.179631">
        <ele>644.2</ele>
        <time>2026-08-27T15:27:32Z</time>
      </trkpt>
      <trkpt lat="48.821026" lon="10.179600">
        <ele>644.4</ele>
        <time>2026-08-27T15:27:33Z</time>
      </trkpt>
      <trkpt lat="48.821016" lon="10.179570">
        <ele>644.5</ele>
        <time>2026-08-27T15:27:34Z</time>
      </trkpt>
      <trkpt lat="48.821009" lon="10.179543">
        <ele>644.7</ele>
        <time>2026-08-27T15:27:35Z</time>
      </trkpt>
      <trkpt lat="48.821000" lon="10.179509">
        <ele>644.8</ele>
        <time>2026-08-27T15:27:36Z</time>
      </trkpt>
      <trkpt lat="48.820988" lon="10.179475">
        <ele>645</ele>
        <time>2026-08-27T15:27:37Z</time>
      </trkpt>
      <trkpt lat="48.820977" lon="10.179449">
        <ele>645.2</ele>
        <time>2026-08-27T15:27:38Z</time>
      </trkpt>
      <trkpt lat="48.820966" lon="10.179422">
        <ele>645.3</ele>
        <time>2026-08-27T15:27:39Z</time>
      </trkpt>
      <trkpt lat="48.820957" lon="10.179396">
        <ele>645.5</ele>
        <time>2026-08-27T15:27:40Z</time>
      </trkpt>
      <trkpt lat="48.820945" lon="10.179366">
        <ele>645.6</ele>
        <time>2026-08-27T15:27:41Z</time>
      </trkpt>
      <trkpt lat="48.820933" lon="10.179337">
        <ele>645.8</ele>
        <time>2026-08-27T15:27:42Z</time>
      </trkpt>
      <trkpt lat="48.820917" lon="10.179309">
        <ele>646</ele>
        <time>2026-08-27T15:27:43Z</time>
      </trkpt>
      <trkpt lat="48.820904" lon="10.179277">
        <ele>646.1</ele>
        <time>2026-08-27T15:27:44Z</time>
      </trkpt>
      <trkpt lat="48.820891" lon="10.179247">
        <ele>646.3</ele>
        <time>2026-08-27T15:27:45Z</time>
      </trkpt>
      <trkpt lat="48.820882" lon="10.179219">
        <ele>646.5</ele>
        <time>2026-08-27T15:27:46Z</time>
      </trkpt>
      <trkpt lat="48.820868" lon="10.179186">
        <ele>646.7</ele>
        <time>2026-08-27T15:27:47Z</time>
      </trkpt>
      <trkpt lat="48.820851" lon="10.179157">
        <ele>646.9</ele>
        <time>2026-08-27T15:27:48Z</time>
      </trkpt>
      <trkpt lat="48.820832" lon="10.179133">
        <ele>647.1</ele>
        <time>2026-08-27T15:27:49Z</time>
      </trkpt>
      <trkpt lat="48.820814" lon="10.179112">
        <ele>647.2</ele>
        <time>2026-08-27T15:27:50Z</time>
      </trkpt>
      <trkpt lat="48.820792" lon="10.179089">
        <ele>647.4</ele>
        <time>2026-08-27T15:27:51Z</time>
      </trkpt>
      <trkpt lat="48.820776" lon="10.179069">
        <ele>647.6</ele>
        <time>2026-08-27T15:27:52Z</time>
      </trkpt>
      <trkpt lat="48.820759" lon="10.179039">
        <ele>647.8</ele>
        <time>2026-08-27T15:27:53Z</time>
      </trkpt>
      <trkpt lat="48.820744" lon="10.179005">
        <ele>648</ele>
        <time>2026-08-27T15:27:54Z</time>
      </trkpt>
      <trkpt lat="48.820728" lon="10.178976">
        <ele>648.2</ele>
        <time>2026-08-27T15:27:55Z</time>
      </trkpt>
      <trkpt lat="48.820709" lon="10.178944">
        <ele>648.4</ele>
        <time>2026-08-27T15:27:56Z</time>
      </trkpt>
      <trkpt lat="48.820690" lon="10.178912">
        <ele>648.6</ele>
        <time>2026-08-27T15:27:57Z</time>
      </trkpt>
      <trkpt lat="48.820671" lon="10.178883">
        <ele>648.8</ele>
        <time>2026-08-27T15:27:58Z</time>
      </trkpt>
      <trkpt lat="48.820651" lon="10.178855">
        <ele>649</ele>
        <time>2026-08-27T15:27:59Z</time>
      </trkpt>
      <trkpt lat="48.820630" lon="10.178823">
        <ele>649.2</ele>
        <time>2026-08-27T15:28:00Z</time>
      </trkpt>
      <trkpt lat="48.820605" lon="10.178784">
        <ele>649.4</ele>
        <time>2026-08-27T15:28:01Z</time>
      </trkpt>
      <trkpt lat="48.820583" lon="10.178744">
        <ele>649.6</ele>
        <time>2026-08-27T15:28:02Z</time>
      </trkpt>
      <trkpt lat="48.820561" lon="10.178710">
        <ele>649.8</ele>
        <time>2026-08-27T15:28:03Z</time>
      </trkpt>
      <trkpt lat="48.820538" lon="10.178693">
        <ele>650</ele>
        <time>2026-08-27T15:28:04Z</time>
      </trkpt>
      <trkpt lat="48.820516" lon="10.178670">
        <ele>650.2</ele>
        <time>2026-08-27T15:28:05Z</time>
      </trkpt>
      <trkpt lat="48.820495" lon="10.178644">
        <ele>650.3</ele>
        <time>2026-08-27T15:28:06Z</time>
      </trkpt>
      <trkpt lat="48.820473" lon="10.178619">
        <ele>650.5</ele>
        <time>2026-08-27T15:28:07Z</time>
      </trkpt>
      <trkpt lat="48.820453" lon="10.178589">
        <ele>650.7</ele>
        <time>2026-08-27T15:28:08Z</time>
      </trkpt>
      <trkpt lat="48.820427" lon="10.178571">
        <ele>650.8</ele>
        <time>2026-08-27T15:28:09Z</time>
      </trkpt>
      <trkpt lat="48.820404" lon="10.178546">
        <ele>651</ele>
        <time>2026-08-27T15:28:10Z</time>
      </trkpt>
      <trkpt lat="48.820378" lon="10.178520">
        <ele>651.2</ele>
        <time>2026-08-27T15:28:11Z</time>
      </trkpt>
      <trkpt lat="48.820359" lon="10.178494">
        <ele>651.4</ele>
        <time>2026-08-27T15:28:12Z</time>
      </trkpt>
      <trkpt lat="48.820340" lon="10.178467">
        <ele>651.5</ele>
        <time>2026-08-27T15:28:13Z</time>
      </trkpt>
      <trkpt lat="48.820319" lon="10.178442">
        <ele>651.7</ele>
        <time>2026-08-27T15:28:14Z</time>
      </trkpt>
      <trkpt lat="48.820297" lon="10.178419">
        <ele>651.9</ele>
        <time>2026-08-27T15:28:15Z</time>
      </trkpt>
      <trkpt lat="48.820277" lon="10.178393">
        <ele>652.1</ele>
        <time>2026-08-27T15:28:16Z</time>
      </trkpt>
      <trkpt lat="48.820255" lon="10.178366">
        <ele>652.3</ele>
        <time>2026-08-27T15:28:17Z</time>
      </trkpt>
      <trkpt lat="48.820232" lon="10.178341">
        <ele>652.5</ele>
        <time>2026-08-27T15:28:18Z</time>
      </trkpt>
      <trkpt lat="48.820210" lon="10.178316">
        <ele>652.7</ele>
        <time>2026-08-27T15:28:19Z</time>
      </trkpt>
      <trkpt lat="48.820184" lon="10.178291">
        <ele>652.9</ele>
        <time>2026-08-27T15:28:20Z</time>
      </trkpt>
      <trkpt lat="48.820166" lon="10.178267">
        <ele>653.1</ele>
        <time>2026-08-27T15:28:21Z</time>
      </trkpt>
      <trkpt lat="48.820145" lon="10.178246">
        <ele>653.3</ele>
        <time>2026-08-27T15:28:22Z</time>
      </trkpt>
      <trkpt lat="48.820125" lon="10.178229">
        <ele>653.4</ele>
        <time>2026-08-27T15:28:23Z</time>
      </trkpt>
      <trkpt lat="48.820106" lon="10.178207">
        <ele>653.6</ele>
        <time>2026-08-27T15:28:24Z</time>
      </trkpt>
      <trkpt lat="48.820089" lon="10.178180">
        <ele>653.8</ele>
        <time>2026-08-27T15:28:25Z</time>
      </trkpt>
      <trkpt lat="48.820072" lon="10.178148">
        <ele>654</ele>
        <time>2026-08-27T15:28:26Z</time>
      </trkpt>
      <trkpt lat="48.820056" lon="10.178115">
        <ele>654.2</ele>
        <time>2026-08-27T15:28:27Z</time>
      </trkpt>
      <trkpt lat="48.820037" lon="10.178086">
        <ele>654.4</ele>
        <time>2026-08-27T15:28:28Z</time>
      </trkpt>
      <trkpt lat="48.820026" lon="10.178050">
        <ele>654.6</ele>
        <time>2026-08-27T15:28:29Z</time>
      </trkpt>
      <trkpt lat="48.820014" lon="10.178018">
        <ele>654.8</ele>
        <time>2026-08-27T15:28:30Z</time>
      </trkpt>
      <trkpt lat="48.820001" lon="10.177988">
        <ele>655</ele>
        <time>2026-08-27T15:28:31Z</time>
      </trkpt>
      <trkpt lat="48.819987" lon="10.177961">
        <ele>655.2</ele>
        <time>2026-08-27T15:28:32Z</time>
      </trkpt>
      <trkpt lat="48.819971" lon="10.177927">
        <ele>655.4</ele>
        <time>2026-08-27T15:28:33Z</time>
      </trkpt>
      <trkpt lat="48.819958" lon="10.177891">
        <ele>655.7</ele>
        <time>2026-08-27T15:28:34Z</time>
      </trkpt>
      <trkpt lat="48.819947" lon="10.177859">
        <ele>655.9</ele>
        <time>2026-08-27T15:28:35Z</time>
      </trkpt>
      <trkpt lat="48.819934" lon="10.177828">
        <ele>656.1</ele>
        <time>2026-08-27T15:28:36Z</time>
      </trkpt>
      <trkpt lat="48.819924" lon="10.177794">
        <ele>656.3</ele>
        <time>2026-08-27T15:28:37Z</time>
      </trkpt>
      <trkpt lat="48.819912" lon="10.177754">
        <ele>656.6</ele>
        <time>2026-08-27T15:28:38Z</time>
      </trkpt>
      <trkpt lat="48.819901" lon="10.177717">
        <ele>656.9</ele>
        <time>2026-08-27T15:28:39Z</time>
      </trkpt>
      <trkpt lat="48.819888" lon="10.177682">
        <ele>657.1</ele>
        <time>2026-08-27T15:28:40Z</time>
      </trkpt>
      <trkpt lat="48.819876" lon="10.177649">
        <ele>657.4</ele>
        <time>2026-08-27T15:28:41Z</time>
      </trkpt>
      <trkpt lat="48.819864" lon="10.177622">
        <ele>657.6</ele>
        <time>2026-08-27T15:28:42Z</time>
      </trkpt>
      <trkpt lat="48.819853" lon="10.177592">
        <ele>657.8</ele>
        <time>2026-08-27T15:28:43Z</time>
      </trkpt>
      <trkpt lat="48.819846" lon="10.177559">
        <ele>658</ele>
        <time>2026-08-27T15:28:44Z</time>
      </trkpt>
      <trkpt lat="48.819838" lon="10.177529">
        <ele>658.3</ele>
        <time>2026-08-27T15:28:45Z</time>
      </trkpt>
      <trkpt lat="48.819829" lon="10.177499">
        <ele>658.5</ele>
        <time>2026-08-27T15:28:46Z</time>
      </trkpt>
      <trkpt lat="48.819817" lon="10.177469">
        <ele>658.7</ele>
        <time>2026-08-27T15:28:47Z</time>
      </trkpt>
      <trkpt lat="48.819808" lon="10.177434">
        <ele>658.9</ele>
        <time>2026-08-27T15:28:48Z</time>
      </trkpt>
      <trkpt lat="48.819795" lon="10.177406">
        <ele>659.1</ele>
        <time>2026-08-27T15:28:49Z</time>
      </trkpt>
      <trkpt lat="48.819785" lon="10.177374">
        <ele>659.4</ele>
        <time>2026-08-27T15:28:50Z</time>
      </trkpt>
      <trkpt lat="48.819776" lon="10.177340">
        <ele>659.6</ele>
        <time>2026-08-27T15:28:51Z</time>
      </trkpt>
      <trkpt lat="48.819764" lon="10.177309">
        <ele>659.8</ele>
        <time>2026-08-27T15:28:52Z</time>
      </trkpt>
      <trkpt lat="48.819752" lon="10.177277">
        <ele>659.9</ele>
        <time>2026-08-27T15:28:53Z</time>
      </trkpt>
      <trkpt lat="48.819741" lon="10.177244">
        <ele>660.1</ele>
        <time>2026-08-27T15:28:54Z</time>
      </trkpt>
      <trkpt lat="48.819732" lon="10.177207">
        <ele>660.3</ele>
        <time>2026-08-27T15:28:55Z</time>
      </trkpt>
      <trkpt lat="48.819716" lon="10.177178">
        <ele>660.5</ele>
        <time>2026-08-27T15:28:56Z</time>
      </trkpt>
      <trkpt lat="48.819703" lon="10.177143">
        <ele>660.7</ele>
        <time>2026-08-27T15:28:57Z</time>
      </trkpt>
      <trkpt lat="48.819694" lon="10.177101">
        <ele>660.9</ele>
        <time>2026-08-27T15:28:58Z</time>
      </trkpt>
      <trkpt lat="48.819688" lon="10.177061">
        <ele>661.1</ele>
        <time>2026-08-27T15:28:59Z</time>
      </trkpt>
      <trkpt lat="48.819682" lon="10.177020">
        <ele>661.3</ele>
        <time>2026-08-27T15:29:00Z</time>
      </trkpt>
      <trkpt lat="48.819671" lon="10.176987">
        <ele>661.5</ele>
        <time>2026-08-27T15:29:01Z</time>
      </trkpt>
      <trkpt lat="48.819662" lon="10.176949">
        <ele>661.7</ele>
        <time>2026-08-27T15:29:02Z</time>
      </trkpt>
      <trkpt lat="48.819649" lon="10.176913">
        <ele>661.9</ele>
        <time>2026-08-27T15:29:03Z</time>
      </trkpt>
      <trkpt lat="48.819637" lon="10.176877">
        <ele>662.1</ele>
        <time>2026-08-27T15:29:04Z</time>
      </trkpt>
      <trkpt lat="48.819630" lon="10.176838">
        <ele>662.4</ele>
        <time>2026-08-27T15:29:05Z</time>
      </trkpt>
      <trkpt lat="48.819622" lon="10.176799">
        <ele>662.6</ele>
        <time>2026-08-27T15:29:06Z</time>
      </trkpt>
      <trkpt lat="48.819612" lon="10.176762">
        <ele>662.8</ele>
        <time>2026-08-27T15:29:07Z</time>
      </trkpt>
      <trkpt lat="48.819600" lon="10.176725">
        <ele>663</ele>
        <time>2026-08-27T15:29:08Z</time>
      </trkpt>
      <trkpt lat="48.819592" lon="10.176685">
        <ele>663.2</ele>
        <time>2026-08-27T15:29:09Z</time>
      </trkpt>
      <trkpt lat="48.819579" lon="10.176651">
        <ele>663.4</ele>
        <time>2026-08-27T15:29:10Z</time>
      </trkpt>
      <trkpt lat="48.819572" lon="10.176607">
        <ele>663.6</ele>
        <time>2026-08-27T15:29:11Z</time>
      </trkpt>
      <trkpt lat="48.819567" lon="10.176567">
        <ele>663.8</ele>
        <time>2026-08-27T15:29:12Z</time>
      </trkpt>
      <trkpt lat="48.819555" lon="10.176535">
        <ele>663.9</ele>
        <time>2026-08-27T15:29:13Z</time>
      </trkpt>
      <trkpt lat="48.819541" lon="10.176505">
        <ele>664.1</ele>
        <time>2026-08-27T15:29:14Z</time>
      </trkpt>
      <trkpt lat="48.819533" lon="10.176467">
        <ele>664.3</ele>
        <time>2026-08-27T15:29:15Z</time>
      </trkpt>
      <trkpt lat="48.819524" lon="10.176427">
        <ele>664.5</ele>
        <time>2026-08-27T15:29:16Z</time>
      </trkpt>
      <trkpt lat="48.819512" lon="10.176393">
        <ele>664.6</ele>
        <time>2026-08-27T15:29:17Z</time>
      </trkpt>
      <trkpt lat="48.819502" lon="10.176355">
        <ele>664.8</ele>
        <time>2026-08-27T15:29:18Z</time>
      </trkpt>
      <trkpt lat="48.819487" lon="10.176321">
        <ele>664.9</ele>
        <time>2026-08-27T15:29:19Z</time>
      </trkpt>
      <trkpt lat="48.819471" lon="10.176290">
        <ele>665.1</ele>
        <time>2026-08-27T15:29:20Z</time>
      </trkpt>
      <trkpt lat="48.819460" lon="10.176252">
        <ele>665.2</ele>
        <time>2026-08-27T15:29:21Z</time>
      </trkpt>
      <trkpt lat="48.819447" lon="10.176216">
        <ele>665.3</ele>
        <time>2026-08-27T15:29:22Z</time>
      </trkpt>
      <trkpt lat="48.819439" lon="10.176178">
        <ele>665.4</ele>
        <time>2026-08-27T15:29:23Z</time>
      </trkpt>
      <trkpt lat="48.819426" lon="10.176158">
        <ele>665.4</ele>
        <time>2026-08-27T15:29:24Z</time>
      </trkpt>
      <trkpt lat="48.819414" lon="10.176140">
        <ele>665.5</ele>
        <time>2026-08-27T15:29:25Z</time>
      </trkpt>
      <trkpt lat="48.819402" lon="10.176122">
        <ele>665.5</ele>
        <time>2026-08-27T15:29:26Z</time>
      </trkpt>
      <trkpt lat="48.819390" lon="10.176105">
        <ele>665.6</ele>
        <time>2026-08-27T15:29:27Z</time>
      </trkpt>
      <trkpt lat="48.819377" lon="10.176089">
        <ele>665.7</ele>
        <time>2026-08-27T15:29:28Z</time>
      </trkpt>
      <trkpt lat="48.819363" lon="10.176063">
        <ele>665.8</ele>
        <time>2026-08-27T15:29:29Z</time>
      </trkpt>
      <trkpt lat="48.819346" lon="10.176036">
        <ele>665.9</ele>
        <time>2026-08-27T15:29:30Z</time>
      </trkpt>
      <trkpt lat="48.819328" lon="10.176008">
        <ele>666</ele>
        <time>2026-08-27T15:29:31Z</time>
      </trkpt>
      <trkpt lat="48.819309" lon="10.175981">
        <ele>666.1</ele>
        <time>2026-08-27T15:29:32Z</time>
      </trkpt>
      <trkpt lat="48.819291" lon="10.175939">
        <ele>666.2</ele>
        <time>2026-08-27T15:29:33Z</time>
      </trkpt>
      <trkpt lat="48.819272" lon="10.175906">
        <ele>666.3</ele>
        <time>2026-08-27T15:29:34Z</time>
      </trkpt>
      <trkpt lat="48.819254" lon="10.175872">
        <ele>666.4</ele>
        <time>2026-08-27T15:29:35Z</time>
      </trkpt>
      <trkpt lat="48.819237" lon="10.175835">
        <ele>666.5</ele>
        <time>2026-08-27T15:29:36Z</time>
      </trkpt>
      <trkpt lat="48.819222" lon="10.175792">
        <ele>666.6</ele>
        <time>2026-08-27T15:29:37Z</time>
      </trkpt>
      <trkpt lat="48.819207" lon="10.175748">
        <ele>666.7</ele>
        <time>2026-08-27T15:29:38Z</time>
      </trkpt>
      <trkpt lat="48.819197" lon="10.175702">
        <ele>666.8</ele>
        <time>2026-08-27T15:29:39Z</time>
      </trkpt>
      <trkpt lat="48.819181" lon="10.175659">
        <ele>666.9</ele>
        <time>2026-08-27T15:29:40Z</time>
      </trkpt>
      <trkpt lat="48.819168" lon="10.175613">
        <ele>667</ele>
        <time>2026-08-27T15:29:41Z</time>
      </trkpt>
      <trkpt lat="48.819148" lon="10.175572">
        <ele>667.1</ele>
        <time>2026-08-27T15:29:42Z</time>
      </trkpt>
      <trkpt lat="48.819138" lon="10.175529">
        <ele>667.2</ele>
        <time>2026-08-27T15:29:43Z</time>
      </trkpt>
      <trkpt lat="48.819131" lon="10.175482">
        <ele>667.2</ele>
        <time>2026-08-27T15:29:44Z</time>
      </trkpt>
      <trkpt lat="48.819121" lon="10.175437">
        <ele>667.3</ele>
        <time>2026-08-27T15:29:45Z</time>
      </trkpt>
      <trkpt lat="48.819106" lon="10.175394">
        <ele>667.4</ele>
        <time>2026-08-27T15:29:46Z</time>
      </trkpt>
      <trkpt lat="48.819094" lon="10.175348">
        <ele>667.5</ele>
        <time>2026-08-27T15:29:47Z</time>
      </trkpt>
      <trkpt lat="48.819079" lon="10.175306">
        <ele>667.6</ele>
        <time>2026-08-27T15:29:48Z</time>
      </trkpt>
      <trkpt lat="48.819068" lon="10.175257">
        <ele>667.7</ele>
        <time>2026-08-27T15:29:49Z</time>
      </trkpt>
      <trkpt lat="48.819053" lon="10.175208">
        <ele>667.7</ele>
        <time>2026-08-27T15:29:50Z</time>
      </trkpt>
      <trkpt lat="48.819050" lon="10.175147">
        <ele>667.8</ele>
        <time>2026-08-27T15:29:51Z</time>
      </trkpt>
      <trkpt lat="48.819034" lon="10.175097">
        <ele>667.9</ele>
        <time>2026-08-27T15:29:52Z</time>
      </trkpt>
      <trkpt lat="48.819026" lon="10.175043">
        <ele>668</ele>
        <time>2026-08-27T15:29:53Z</time>
      </trkpt>
      <trkpt lat="48.819011" lon="10.174992">
        <ele>668</ele>
        <time>2026-08-27T15:29:54Z</time>
      </trkpt>
      <trkpt lat="48.819007" lon="10.174930">
        <ele>668.1</ele>
        <time>2026-08-27T15:29:55Z</time>
      </trkpt>
      <trkpt lat="48.819000" lon="10.174875">
        <ele>668.1</ele>
        <time>2026-08-27T15:29:56Z</time>
      </trkpt>
      <trkpt lat="48.818992" lon="10.174820">
        <ele>668.1</ele>
        <time>2026-08-27T15:29:57Z</time>
      </trkpt>
      <trkpt lat="48.818989" lon="10.174766">
        <ele>668.1</ele>
        <time>2026-08-27T15:29:58Z</time>
      </trkpt>
      <trkpt lat="48.818986" lon="10.174708">
        <ele>668.1</ele>
        <time>2026-08-27T15:29:59Z</time>
      </trkpt>
      <trkpt lat="48.818966" lon="10.174658">
        <ele>668.1</ele>
        <time>2026-08-27T15:30:00Z</time>
      </trkpt>
      <trkpt lat="48.818955" lon="10.174607">
        <ele>668.1</ele>
        <time>2026-08-27T15:30:01Z</time>
      </trkpt>
      <trkpt lat="48.818952" lon="10.174551">
        <ele>668</ele>
        <time>2026-08-27T15:30:02Z</time>
      </trkpt>
      <trkpt lat="48.818952" lon="10.174494">
        <ele>667.9</ele>
        <time>2026-08-27T15:30:03Z</time>
      </trkpt>
      <trkpt lat="48.818928" lon="10.174451">
        <ele>667.8</ele>
        <time>2026-08-27T15:30:04Z</time>
      </trkpt>
      <trkpt lat="48.818918" lon="10.174401">
        <ele>667.8</ele>
        <time>2026-08-27T15:30:05Z</time>
      </trkpt>
      <trkpt lat="48.818917" lon="10.174322">
        <ele>667.6</ele>
        <time>2026-08-27T15:30:06Z</time>
      </trkpt>
      <trkpt lat="48.818906" lon="10.174222">
        <ele>667.3</ele>
        <time>2026-08-27T15:30:07Z</time>
      </trkpt>
      <trkpt lat="48.818891" lon="10.174118">
        <ele>667.1</ele>
        <time>2026-08-27T15:30:08Z</time>
      </trkpt>
      <trkpt lat="48.818966" lon="10.173590">
        <ele>665.6</ele>
        <time>2026-08-27T15:30:09Z</time>
      </trkpt>
      <trkpt lat="48.818932" lon="10.173499">
        <ele>665.3</ele>
        <time>2026-08-27T15:30:10Z</time>
      </trkpt>
      <trkpt lat="48.818904" lon="10.173401">
        <ele>664.9</ele>
        <time>2026-08-27T15:30:11Z</time>
      </trkpt>
      <trkpt lat="48.818883" lon="10.173300">
        <ele>664.6</ele>
        <time>2026-08-27T15:30:12Z</time>
      </trkpt>
      <trkpt lat="48.818860" lon="10.173194">
        <ele>664.2</ele>
        <time>2026-08-27T15:30:13Z</time>
      </trkpt>
      <trkpt lat="48.818829" lon="10.173086">
        <ele>663.9</ele>
        <time>2026-08-27T15:30:14Z</time>
      </trkpt>
      <trkpt lat="48.818803" lon="10.172976">
        <ele>663.5</ele>
        <time>2026-08-27T15:30:15Z</time>
      </trkpt>
      <trkpt lat="48.818793" lon="10.172856">
        <ele>663</ele>
        <time>2026-08-27T15:30:16Z</time>
      </trkpt>
      <trkpt lat="48.818786" lon="10.172744">
        <ele>662.6</ele>
        <time>2026-08-27T15:30:17Z</time>
      </trkpt>
      <trkpt lat="48.818772" lon="10.172641">
        <ele>662.1</ele>
        <time>2026-08-27T15:30:18Z</time>
      </trkpt>
      <trkpt lat="48.818755" lon="10.172532">
        <ele>661.2</ele>
        <time>2026-08-27T15:30:19Z</time>
      </trkpt>
      <trkpt lat="48.818735" lon="10.172424">
        <ele>660.3</ele>
        <time>2026-08-27T15:30:20Z</time>
      </trkpt>
      <trkpt lat="48.818733" lon="10.172327">
        <ele>659.6</ele>
        <time>2026-08-27T15:30:21Z</time>
      </trkpt>
      <trkpt lat="48.818705" lon="10.172224">
        <ele>658.7</ele>
        <time>2026-08-27T15:30:22Z</time>
      </trkpt>
      <trkpt lat="48.818686" lon="10.172126">
        <ele>657.9</ele>
        <time>2026-08-27T15:30:23Z</time>
      </trkpt>
      <trkpt lat="48.818701" lon="10.171991">
        <ele>656.9</ele>
        <time>2026-08-27T15:30:24Z</time>
      </trkpt>
      <trkpt lat="48.818695" lon="10.171892">
        <ele>656.1</ele>
        <time>2026-08-27T15:30:25Z</time>
      </trkpt>
      <trkpt lat="48.818664" lon="10.171769">
        <ele>655.2</ele>
        <time>2026-08-27T15:30:26Z</time>
      </trkpt>
      <trkpt lat="48.818700" lon="10.171629">
        <ele>654.2</ele>
        <time>2026-08-27T15:30:27Z</time>
      </trkpt>
      <trkpt lat="48.818730" lon="10.171507">
        <ele>653.4</ele>
        <time>2026-08-27T15:30:28Z</time>
      </trkpt>
      <trkpt lat="48.818748" lon="10.171375">
        <ele>652.6</ele>
        <time>2026-08-27T15:30:29Z</time>
      </trkpt>
      <trkpt lat="48.818766" lon="10.171230">
        <ele>651.8</ele>
        <time>2026-08-27T15:30:30Z</time>
      </trkpt>
      <trkpt lat="48.818816" lon="10.171070">
        <ele>650.7</ele>
        <time>2026-08-27T15:30:31Z</time>
      </trkpt>
      <trkpt lat="48.818831" lon="10.170872">
        <ele>649.5</ele>
        <time>2026-08-27T15:30:32Z</time>
      </trkpt>
      <trkpt lat="48.818884" lon="10.170720">
        <ele>648.5</ele>
        <time>2026-08-27T15:30:33Z</time>
      </trkpt>
      <trkpt lat="48.818905" lon="10.170544">
        <ele>647.4</ele>
        <time>2026-08-27T15:30:34Z</time>
      </trkpt>
      <trkpt lat="48.818981" lon="10.170429">
        <ele>646.5</ele>
        <time>2026-08-27T15:30:35Z</time>
      </trkpt>
      <trkpt lat="48.819048" lon="10.170283">
        <ele>645.6</ele>
        <time>2026-08-27T15:30:36Z</time>
      </trkpt>
      <trkpt lat="48.819106" lon="10.170147">
        <ele>645</ele>
        <time>2026-08-27T15:30:37Z</time>
      </trkpt>
      <trkpt lat="48.819158" lon="10.170005">
        <ele>644.4</ele>
        <time>2026-08-27T15:30:38Z</time>
      </trkpt>
      <trkpt lat="48.819197" lon="10.169871">
        <ele>643.9</ele>
        <time>2026-08-27T15:30:39Z</time>
      </trkpt>
      <trkpt lat="48.819234" lon="10.169746">
        <ele>643.6</ele>
        <time>2026-08-27T15:30:40Z</time>
      </trkpt>
      <trkpt lat="48.819275" lon="10.169631">
        <ele>643.3</ele>
        <time>2026-08-27T15:30:41Z</time>
      </trkpt>
      <trkpt lat="48.819321" lon="10.169524">
        <ele>642.6</ele>
        <time>2026-08-27T15:30:42Z</time>
      </trkpt>
      <trkpt lat="48.819362" lon="10.169414">
        <ele>641.9</ele>
        <time>2026-08-27T15:30:43Z</time>
      </trkpt>
      <trkpt lat="48.819404" lon="10.169315">
        <ele>641.2</ele>
        <time>2026-08-27T15:30:44Z</time>
      </trkpt>
      <trkpt lat="48.819436" lon="10.169190">
        <ele>640.4</ele>
        <time>2026-08-27T15:30:45Z</time>
      </trkpt>
      <trkpt lat="48.819491" lon="10.169077">
        <ele>639.5</ele>
        <time>2026-08-27T15:30:46Z</time>
      </trkpt>
      <trkpt lat="48.819543" lon="10.168958">
        <ele>638.5</ele>
        <time>2026-08-27T15:30:47Z</time>
      </trkpt>
      <trkpt lat="48.819587" lon="10.168819">
        <ele>637.6</ele>
        <time>2026-08-27T15:30:48Z</time>
      </trkpt>
      <trkpt lat="48.819624" lon="10.168693">
        <ele>636.8</ele>
        <time>2026-08-27T15:30:49Z</time>
      </trkpt>
      <trkpt lat="48.819661" lon="10.168566">
        <ele>636</ele>
        <time>2026-08-27T15:30:50Z</time>
      </trkpt>
      <trkpt lat="48.819698" lon="10.168445">
        <ele>635.2</ele>
        <time>2026-08-27T15:30:51Z</time>
      </trkpt>
      <trkpt lat="48.819749" lon="10.168329">
        <ele>634.5</ele>
        <time>2026-08-27T15:30:52Z</time>
      </trkpt>
      <trkpt lat="48.819798" lon="10.168209">
        <ele>633.7</ele>
        <time>2026-08-27T15:30:53Z</time>
      </trkpt>
      <trkpt lat="48.819850" lon="10.168083">
        <ele>633</ele>
        <time>2026-08-27T15:30:54Z</time>
      </trkpt>
      <trkpt lat="48.819893" lon="10.167954">
        <ele>632.2</ele>
        <time>2026-08-27T15:30:55Z</time>
      </trkpt>
      <trkpt lat="48.819950" lon="10.167827">
        <ele>631.3</ele>
        <time>2026-08-27T15:30:56Z</time>
      </trkpt>
      <trkpt lat="48.819987" lon="10.167690">
        <ele>630.4</ele>
        <time>2026-08-27T15:30:57Z</time>
      </trkpt>
      <trkpt lat="48.820052" lon="10.167562">
        <ele>629.6</ele>
        <time>2026-08-27T15:30:58Z</time>
      </trkpt>
      <trkpt lat="48.820090" lon="10.167405">
        <ele>628.7</ele>
        <time>2026-08-27T15:30:59Z</time>
      </trkpt>
      <trkpt lat="48.820136" lon="10.167268">
        <ele>627.9</ele>
        <time>2026-08-27T15:31:00Z</time>
      </trkpt>
      <trkpt lat="48.820165" lon="10.167110">
        <ele>627</ele>
        <time>2026-08-27T15:31:01Z</time>
      </trkpt>
      <trkpt lat="48.820196" lon="10.166964">
        <ele>626.2</ele>
        <time>2026-08-27T15:31:02Z</time>
      </trkpt>
      <trkpt lat="48.820238" lon="10.166849">
        <ele>625.6</ele>
        <time>2026-08-27T15:31:03Z</time>
      </trkpt>
      <trkpt lat="48.820284" lon="10.166740">
        <ele>625</ele>
        <time>2026-08-27T15:31:04Z</time>
      </trkpt>
      <trkpt lat="48.820332" lon="10.166613">
        <ele>624.3</ele>
        <time>2026-08-27T15:31:05Z</time>
      </trkpt>
      <trkpt lat="48.820380" lon="10.166491">
        <ele>623.6</ele>
        <time>2026-08-27T15:31:06Z</time>
      </trkpt>
      <trkpt lat="48.820390" lon="10.166354">
        <ele>622.9</ele>
        <time>2026-08-27T15:31:07Z</time>
      </trkpt>
      <trkpt lat="48.820425" lon="10.166222">
        <ele>622.2</ele>
        <time>2026-08-27T15:31:08Z</time>
      </trkpt>
      <trkpt lat="48.820447" lon="10.166066">
        <ele>621.5</ele>
        <time>2026-08-27T15:31:09Z</time>
      </trkpt>
      <trkpt lat="48.820450" lon="10.165916">
        <ele>621</ele>
        <time>2026-08-27T15:31:10Z</time>
      </trkpt>
      <trkpt lat="48.820460" lon="10.165766">
        <ele>620.5</ele>
        <time>2026-08-27T15:31:11Z</time>
      </trkpt>
      <trkpt lat="48.820465" lon="10.165632">
        <ele>620.1</ele>
        <time>2026-08-27T15:31:12Z</time>
      </trkpt>
      <trkpt lat="48.820448" lon="10.165476">
        <ele>619.7</ele>
        <time>2026-08-27T15:31:13Z</time>
      </trkpt>
      <trkpt lat="48.820445" lon="10.165339">
        <ele>619.4</ele>
        <time>2026-08-27T15:31:14Z</time>
      </trkpt>
      <trkpt lat="48.820445" lon="10.165207">
        <ele>619.2</ele>
        <time>2026-08-27T15:31:15Z</time>
      </trkpt>
      <trkpt lat="48.820396" lon="10.165148">
        <ele>619.1</ele>
        <time>2026-08-27T15:31:16Z</time>
      </trkpt>
      <trkpt lat="48.820367" lon="10.165052">
        <ele>619.1</ele>
        <time>2026-08-27T15:31:17Z</time>
      </trkpt>
      <trkpt lat="48.820363" lon="10.164967">
        <ele>619</ele>
        <time>2026-08-27T15:31:18Z</time>
      </trkpt>
      <trkpt lat="48.820326" lon="10.164887">
        <ele>619.1</ele>
        <time>2026-08-27T15:31:19Z</time>
      </trkpt>
      <trkpt lat="48.820335" lon="10.164821">
        <ele>619.1</ele>
        <time>2026-08-27T15:31:20Z</time>
      </trkpt>
      <trkpt lat="48.820333" lon="10.164716">
        <ele>619.2</ele>
        <time>2026-08-27T15:31:21Z</time>
      </trkpt>
      <trkpt lat="48.820334" lon="10.164614">
        <ele>619.4</ele>
        <time>2026-08-27T15:31:22Z</time>
      </trkpt>
      <trkpt lat="48.820317" lon="10.164479">
        <ele>619.5</ele>
        <time>2026-08-27T15:31:23Z</time>
      </trkpt>
      <trkpt lat="48.820309" lon="10.164376">
        <ele>619.7</ele>
        <time>2026-08-27T15:31:24Z</time>
      </trkpt>
      <trkpt lat="48.820306" lon="10.164300">
        <ele>619.7</ele>
        <time>2026-08-27T15:31:25Z</time>
      </trkpt>
      <trkpt lat="48.820297" lon="10.164199">
        <ele>619.8</ele>
        <time>2026-08-27T15:31:26Z</time>
      </trkpt>
      <trkpt lat="48.820296" lon="10.164149">
        <ele>619.8</ele>
        <time>2026-08-27T15:31:27Z</time>
      </trkpt>
      <trkpt lat="48.820294" lon="10.164093">
        <ele>619.8</ele>
        <time>2026-08-27T15:31:28Z</time>
      </trkpt>
      <trkpt lat="48.820290" lon="10.164019">
        <ele>619.9</ele>
        <time>2026-08-27T15:31:29Z</time>
      </trkpt>
      <trkpt lat="48.820271" lon="10.163934">
        <ele>619</ele>
        <time>2026-08-27T15:31:30Z</time>
      </trkpt>
      <trkpt lat="48.820250" lon="10.163850">
        <ele>618.1</ele>
        <time>2026-08-27T15:31:31Z</time>
      </trkpt>
      <trkpt lat="48.820259" lon="10.163722">
        <ele>617.3</ele>
        <time>2026-08-27T15:31:32Z</time>
      </trkpt>
      <trkpt lat="48.820235" lon="10.163592">
        <ele>616.6</ele>
        <time>2026-08-27T15:31:33Z</time>
      </trkpt>
      <trkpt lat="48.820221" lon="10.163490">
        <ele>615.7</ele>
        <time>2026-08-27T15:31:34Z</time>
      </trkpt>
      <trkpt lat="48.820186" lon="10.163343">
        <ele>614.4</ele>
        <time>2026-08-27T15:31:35Z</time>
      </trkpt>
      <trkpt lat="48.820141" lon="10.163258">
        <ele>612.9</ele>
        <time>2026-08-27T15:31:36Z</time>
      </trkpt>
      <trkpt lat="48.820108" lon="10.163132">
        <ele>611.5</ele>
        <time>2026-08-27T15:31:37Z</time>
      </trkpt>
      <trkpt lat="48.820071" lon="10.163038">
        <ele>610.2</ele>
        <time>2026-08-27T15:31:38Z</time>
      </trkpt>
      <trkpt lat="48.820054" lon="10.162893">
        <ele>608.8</ele>
        <time>2026-08-27T15:31:39Z</time>
      </trkpt>
      <trkpt lat="48.820036" lon="10.162787">
        <ele>607.8</ele>
        <time>2026-08-27T15:31:40Z</time>
      </trkpt>
      <trkpt lat="48.819973" lon="10.162720">
        <ele>605.5</ele>
        <time>2026-08-27T15:31:41Z</time>
      </trkpt>
      <trkpt lat="48.819923" lon="10.162637">
        <ele>604.1</ele>
        <time>2026-08-27T15:31:42Z</time>
      </trkpt>
      <trkpt lat="48.819884" lon="10.162544">
        <ele>602.3</ele>
        <time>2026-08-27T15:31:43Z</time>
      </trkpt>
      <trkpt lat="48.819822" lon="10.162418">
        <ele>600.4</ele>
        <time>2026-08-27T15:31:44Z</time>
      </trkpt>
      <trkpt lat="48.819769" lon="10.162255">
        <ele>598.1</ele>
        <time>2026-08-27T15:31:45Z</time>
      </trkpt>
      <trkpt lat="48.819720" lon="10.162109">
        <ele>596.1</ele>
        <time>2026-08-27T15:31:46Z</time>
      </trkpt>
      <trkpt lat="48.819711" lon="10.162033">
        <ele>595.2</ele>
        <time>2026-08-27T15:31:47Z</time>
      </trkpt>
      <trkpt lat="48.819697" lon="10.161974">
        <ele>594.6</ele>
        <time>2026-08-27T15:31:48Z</time>
      </trkpt>
      <trkpt lat="48.819671" lon="10.161836">
        <ele>593.3</ele>
        <time>2026-08-27T15:31:49Z</time>
      </trkpt>
      <trkpt lat="48.819648" lon="10.161738">
        <ele>592.4</ele>
        <time>2026-08-27T15:31:50Z</time>
      </trkpt>
      <trkpt lat="48.819682" lon="10.161586">
        <ele>592.1</ele>
        <time>2026-08-27T15:31:51Z</time>
      </trkpt>
      <trkpt lat="48.819692" lon="10.161456">
        <ele>592.1</ele>
        <time>2026-08-27T15:31:52Z</time>
      </trkpt>
      <trkpt lat="48.819711" lon="10.161314">
        <ele>592</ele>
        <time>2026-08-27T15:31:53Z</time>
      </trkpt>
      <trkpt lat="48.819733" lon="10.161170">
        <ele>591.9</ele>
        <time>2026-08-27T15:31:54Z</time>
      </trkpt>
      <trkpt lat="48.819753" lon="10.161056">
        <ele>591.8</ele>
        <time>2026-08-27T15:31:55Z</time>
      </trkpt>
      <trkpt lat="48.819782" lon="10.160923">
        <ele>591.8</ele>
        <time>2026-08-27T15:31:56Z</time>
      </trkpt>
      <trkpt lat="48.819809" lon="10.160799">
        <ele>591.8</ele>
        <time>2026-08-27T15:31:57Z</time>
      </trkpt>
      <trkpt lat="48.819837" lon="10.160669">
        <ele>591.8</ele>
        <time>2026-08-27T15:31:58Z</time>
      </trkpt>
      <trkpt lat="48.819862" lon="10.160554">
        <ele>591.7</ele>
        <time>2026-08-27T15:31:59Z</time>
      </trkpt>
      <trkpt lat="48.819888" lon="10.160446">
        <ele>591.6</ele>
        <time>2026-08-27T15:32:00Z</time>
      </trkpt>
      <trkpt lat="48.819992" lon="10.160298">
        <ele>591.5</ele>
        <time>2026-08-27T15:32:01Z</time>
      </trkpt>
      <trkpt lat="48.820020" lon="10.160208">
        <ele>591.4</ele>
        <time>2026-08-27T15:32:02Z</time>
      </trkpt>
      <trkpt lat="48.820051" lon="10.160118">
        <ele>591.3</ele>
        <time>2026-08-27T15:32:03Z</time>
      </trkpt>
      <trkpt lat="48.820122" lon="10.160023">
        <ele>591.2</ele>
        <time>2026-08-27T15:32:04Z</time>
      </trkpt>
      <trkpt lat="48.820145" lon="10.159931">
        <ele>591.2</ele>
        <time>2026-08-27T15:32:05Z</time>
      </trkpt>
      <trkpt lat="48.820154" lon="10.159868">
        <ele>591.2</ele>
        <time>2026-08-27T15:32:06Z</time>
      </trkpt>
      <trkpt lat="48.820129" lon="10.159797">
        <ele>591.8</ele>
        <time>2026-08-27T15:32:07Z</time>
      </trkpt>
      <trkpt lat="48.820113" lon="10.159801">
        <ele>592</ele>
        <time>2026-08-27T15:32:08Z</time>
      </trkpt>
      <trkpt lat="48.820144" lon="10.159793">
        <ele>592.4</ele>
        <time>2026-08-27T15:32:09Z</time>
      </trkpt>
      <trkpt lat="48.820148" lon="10.159754">
        <ele>592.8</ele>
        <time>2026-08-27T15:32:10Z</time>
      </trkpt>
      <trkpt lat="48.820144" lon="10.159742">
        <ele>593</ele>
        <time>2026-08-27T15:32:11Z</time>
      </trkpt>
      <trkpt lat="48.820142" lon="10.159738">
        <ele>593</ele>
        <time>2026-08-27T15:32:12Z</time>
      </trkpt>
      <trkpt lat="48.820151" lon="10.159728">
        <ele>593.2</ele>
        <time>2026-08-27T15:32:13Z</time>
      </trkpt>
      <trkpt lat="48.820170" lon="10.159724">
        <ele>593.5</ele>
        <time>2026-08-27T15:32:14Z</time>
      </trkpt>
      <trkpt lat="48.820185" lon="10.159718">
        <ele>593.8</ele>
        <time>2026-08-27T15:32:15Z</time>
      </trkpt>
      <trkpt lat="48.820192" lon="10.159706">
        <ele>594</ele>
        <time>2026-08-27T15:32:16Z</time>
      </trkpt>
      <trkpt lat="48.820199" lon="10.159689">
        <ele>594.2</ele>
        <time>2026-08-27T15:32:17Z</time>
      </trkpt>
      <trkpt lat="48.820203" lon="10.159674">
        <ele>594.4</ele>
        <time>2026-08-27T15:32:18Z</time>
      </trkpt>
      <trkpt lat="48.820208" lon="10.159660">
        <ele>594.6</ele>
        <time>2026-08-27T15:32:19Z</time>
      </trkpt>
      <trkpt lat="48.820216" lon="10.159641">
        <ele>594.9</ele>
        <time>2026-08-27T15:32:20Z</time>
      </trkpt>
      <trkpt lat="48.820219" lon="10.159633">
        <ele>595</ele>
        <time>2026-08-27T15:32:21Z</time>
      </trkpt>
      <trkpt lat="48.820214" lon="10.159617">
        <ele>595.2</ele>
        <time>2026-08-27T15:32:22Z</time>
      </trkpt>
      <trkpt lat="48.820211" lon="10.159605">
        <ele>595.4</ele>
        <time>2026-08-27T15:32:23Z</time>
      </trkpt>
      <trkpt lat="48.820209" lon="10.159581">
        <ele>595.8</ele>
        <time>2026-08-27T15:32:24Z</time>
      </trkpt>
      <trkpt lat="48.820212" lon="10.159570">
        <ele>595.9</ele>
        <time>2026-08-27T15:32:25Z</time>
      </trkpt>
      <trkpt lat="48.820216" lon="10.159559">
        <ele>596.1</ele>
        <time>2026-08-27T15:32:26Z</time>
      </trkpt>
      <trkpt lat="48.820218" lon="10.159545">
        <ele>596.3</ele>
        <time>2026-08-27T15:32:27Z</time>
      </trkpt>
      <trkpt lat="48.820220" lon="10.159535">
        <ele>596.5</ele>
        <time>2026-08-27T15:32:28Z</time>
      </trkpt>
      <trkpt lat="48.820221" lon="10.159524">
        <ele>596.6</ele>
        <time>2026-08-27T15:32:29Z</time>
      </trkpt>
      <trkpt lat="48.820221" lon="10.159514">
        <ele>596.8</ele>
        <time>2026-08-27T15:32:30Z</time>
      </trkpt>
      <trkpt lat="48.820230" lon="10.159499">
        <ele>597.1</ele>
        <time>2026-08-27T15:32:31Z</time>
      </trkpt>
      <trkpt lat="48.820229" lon="10.159489">
        <ele>597.2</ele>
        <time>2026-08-27T15:32:32Z</time>
      </trkpt>
      <trkpt lat="48.820229" lon="10.159483">
        <ele>597.3</ele>
        <time>2026-08-27T15:32:33Z</time>
      </trkpt>
      <trkpt lat="48.820229" lon="10.159479">
        <ele>597.4</ele>
        <time>2026-08-27T15:32:34Z</time>
      </trkpt>
      <trkpt lat="48.820228" lon="10.159478">
        <ele>597.4</ele>
        <time>2026-08-27T15:32:35Z</time>
      </trkpt>
      <trkpt lat="48.820228" lon="10.159478">
        <ele>597.4</ele>
        <time>2026-08-27T15:32:36Z</time>
      </trkpt>
      <trkpt lat="48.820226" lon="10.159479">
        <ele>597.4</ele>
        <time>2026-08-27T15:32:37Z</time>
      </trkpt>
      <trkpt lat="48.820225" lon="10.159478">
        <ele>597.5</ele>
        <time>2026-08-27T15:32:38Z</time>
      </trkpt>
      <trkpt lat="48.820225" lon="10.159476">
        <ele>597.5</ele>
        <time>2026-08-27T15:32:39Z</time>
      </trkpt>
      <trkpt lat="48.820225" lon="10.159473">
        <ele>597.5</ele>
        <time>2026-08-27T15:32:40Z</time>
      </trkpt>
      <trkpt lat="48.820225" lon="10.159470">
        <ele>597.6</ele>
        <time>2026-08-27T15:32:41Z</time>
      </trkpt>
      <trkpt lat="48.820226" lon="10.159465">
        <ele>597.6</ele>
        <time>2026-08-27T15:32:42Z</time>
      </trkpt>
      <trkpt lat="48.820227" lon="10.159458">
        <ele>597.8</ele>
        <time>2026-08-27T15:32:43Z</time>
      </trkpt>
      <trkpt lat="48.820238" lon="10.159420">
        <ele>598.4</ele>
        <time>2026-08-27T15:32:44Z</time>
      </trkpt>
      <trkpt lat="48.820246" lon="10.159395">
        <ele>598.8</ele>
        <time>2026-08-27T15:32:45Z</time>
      </trkpt>
      <trkpt lat="48.820255" lon="10.159368">
        <ele>599.2</ele>
        <time>2026-08-27T15:32:46Z</time>
      </trkpt>
      <trkpt lat="48.820265" lon="10.159341">
        <ele>599.7</ele>
        <time>2026-08-27T15:32:47Z</time>
      </trkpt>
      <trkpt lat="48.820274" lon="10.159312">
        <ele>600.1</ele>
        <time>2026-08-27T15:32:48Z</time>
      </trkpt>
      <trkpt lat="48.820278" lon="10.159279">
        <ele>600.6</ele>
        <time>2026-08-27T15:32:49Z</time>
      </trkpt>
      <trkpt lat="48.820281" lon="10.159254">
        <ele>601</ele>
        <time>2026-08-27T15:32:50Z</time>
      </trkpt>
      <trkpt lat="48.820284" lon="10.159235">
        <ele>601.2</ele>
        <time>2026-08-27T15:32:51Z</time>
      </trkpt>
      <trkpt lat="48.820287" lon="10.159218">
        <ele>601.5</ele>
        <time>2026-08-27T15:32:52Z</time>
      </trkpt>
      <trkpt lat="48.820291" lon="10.159196">
        <ele>601.8</ele>
        <time>2026-08-27T15:32:53Z</time>
      </trkpt>
      <trkpt lat="48.820292" lon="10.159185">
        <ele>601.9</ele>
        <time>2026-08-27T15:32:54Z</time>
      </trkpt>
      <trkpt lat="48.820294" lon="10.159171">
        <ele>602.1</ele>
        <time>2026-08-27T15:32:55Z</time>
      </trkpt>
      <trkpt lat="48.820297" lon="10.159156">
        <ele>602.3</ele>
        <time>2026-08-27T15:32:56Z</time>
      </trkpt>
      <trkpt lat="48.820298" lon="10.159138">
        <ele>602.5</ele>
        <time>2026-08-27T15:32:57Z</time>
      </trkpt>
      <trkpt lat="48.820303" lon="10.159122">
        <ele>602.8</ele>
        <time>2026-08-27T15:32:58Z</time>
      </trkpt>
      <trkpt lat="48.820301" lon="10.159103">
        <ele>603</ele>
        <time>2026-08-27T15:32:59Z</time>
      </trkpt>
      <trkpt lat="48.820301" lon="10.159084">
        <ele>603.2</ele>
        <time>2026-08-27T15:33:00Z</time>
      </trkpt>
      <trkpt lat="48.820302" lon="10.159064">
        <ele>603.5</ele>
        <time>2026-08-27T15:33:01Z</time>
      </trkpt>
      <trkpt lat="48.820303" lon="10.159049">
        <ele>603.7</ele>
        <time>2026-08-27T15:33:02Z</time>
      </trkpt>
      <trkpt lat="48.820303" lon="10.159033">
        <ele>603.9</ele>
        <time>2026-08-27T15:33:03Z</time>
      </trkpt>
      <trkpt lat="48.820302" lon="10.159018">
        <ele>604.1</ele>
        <time>2026-08-27T15:33:04Z</time>
      </trkpt>
      <trkpt lat="48.820301" lon="10.159002">
        <ele>604.3</ele>
        <time>2026-08-27T15:33:05Z</time>
      </trkpt>
      <trkpt lat="48.820299" lon="10.158985">
        <ele>604.5</ele>
        <time>2026-08-27T15:33:06Z</time>
      </trkpt>
      <trkpt lat="48.820299" lon="10.158970">
        <ele>604.7</ele>
        <time>2026-08-27T15:33:07Z</time>
      </trkpt>
      <trkpt lat="48.820294" lon="10.158954">
        <ele>604.9</ele>
        <time>2026-08-27T15:33:08Z</time>
      </trkpt>
      <trkpt lat="48.820288" lon="10.158935">
        <ele>605.2</ele>
        <time>2026-08-27T15:33:09Z</time>
      </trkpt>
      <trkpt lat="48.820284" lon="10.158920">
        <ele>605.4</ele>
        <time>2026-08-27T15:33:10Z</time>
      </trkpt>
      <trkpt lat="48.820279" lon="10.158903">
        <ele>605.7</ele>
        <time>2026-08-27T15:33:11Z</time>
      </trkpt>
      <trkpt lat="48.820274" lon="10.158887">
        <ele>605.9</ele>
        <time>2026-08-27T15:33:12Z</time>
      </trkpt>
      <trkpt lat="48.820269" lon="10.158873">
        <ele>606.1</ele>
        <time>2026-08-27T15:33:13Z</time>
      </trkpt>
      <trkpt lat="48.820266" lon="10.158860">
        <ele>606.3</ele>
        <time>2026-08-27T15:33:14Z</time>
      </trkpt>
      <trkpt lat="48.820265" lon="10.158848">
        <ele>606.4</ele>
        <time>2026-08-27T15:33:15Z</time>
      </trkpt>
      <trkpt lat="48.820264" lon="10.158831">
        <ele>606.7</ele>
        <time>2026-08-27T15:33:16Z</time>
      </trkpt>
      <trkpt lat="48.820262" lon="10.158821">
        <ele>606.8</ele>
        <time>2026-08-27T15:33:17Z</time>
      </trkpt>
      <trkpt lat="48.820260" lon="10.158809">
        <ele>606.9</ele>
        <time>2026-08-27T15:33:18Z</time>
      </trkpt>
      <trkpt lat="48.820259" lon="10.158797">
        <ele>607.1</ele>
        <time>2026-08-27T15:33:19Z</time>
      </trkpt>
      <trkpt lat="48.820258" lon="10.158785">
        <ele>607.3</ele>
        <time>2026-08-27T15:33:20Z</time>
      </trkpt>
      <trkpt lat="48.820258" lon="10.158777">
        <ele>607.4</ele>
        <time>2026-08-27T15:33:21Z</time>
      </trkpt>
      <trkpt lat="48.820258" lon="10.158768">
        <ele>607.5</ele>
        <time>2026-08-27T15:33:22Z</time>
      </trkpt>
      <trkpt lat="48.820258" lon="10.158759">
        <ele>607.6</ele>
        <time>2026-08-27T15:33:23Z</time>
      </trkpt>
      <trkpt lat="48.820258" lon="10.158746">
        <ele>607.8</ele>
        <time>2026-08-27T15:33:24Z</time>
      </trkpt>
      <trkpt lat="48.820258" lon="10.158734">
        <ele>607.9</ele>
        <time>2026-08-27T15:33:25Z</time>
      </trkpt>
      <trkpt lat="48.820258" lon="10.158719">
        <ele>608.1</ele>
        <time>2026-08-27T15:33:26Z</time>
      </trkpt>
      <trkpt lat="48.820258" lon="10.158694">
        <ele>608.4</ele>
        <time>2026-08-27T15:33:27Z</time>
      </trkpt>
      <trkpt lat="48.820257" lon="10.158681">
        <ele>608.6</ele>
        <time>2026-08-27T15:33:28Z</time>
      </trkpt>
      <trkpt lat="48.820260" lon="10.158674">
        <ele>608.7</ele>
        <time>2026-08-27T15:33:29Z</time>
      </trkpt>
      <trkpt lat="48.820267" lon="10.158672">
        <ele>608.8</ele>
        <time>2026-08-27T15:33:31Z</time>
      </trkpt>
      <trkpt lat="48.820272" lon="10.158664">
        <ele>609</ele>
        <time>2026-08-27T15:33:32Z</time>
      </trkpt>
      <trkpt lat="48.820277" lon="10.158658">
        <ele>609.1</ele>
        <time>2026-08-27T15:33:33Z</time>
      </trkpt>
      <trkpt lat="48.820282" lon="10.158651">
        <ele>609.2</ele>
        <time>2026-08-27T15:33:34Z</time>
      </trkpt>
      <trkpt lat="48.820290" lon="10.158642">
        <ele>609.4</ele>
        <time>2026-08-27T15:33:35Z</time>
      </trkpt>
      <trkpt lat="48.820295" lon="10.158637">
        <ele>609.5</ele>
        <time>2026-08-27T15:33:36Z</time>
      </trkpt>
      <trkpt lat="48.820296" lon="10.158634">
        <ele>609.5</ele>
        <time>2026-08-27T15:33:37Z</time>
      </trkpt>
      <trkpt lat="48.820296" lon="10.158630">
        <ele>609.6</ele>
        <time>2026-08-27T15:33:38Z</time>
      </trkpt>
      <trkpt lat="48.820297" lon="10.158628">
        <ele>609.6</ele>
        <time>2026-08-27T15:33:39Z</time>
      </trkpt>
      <trkpt lat="48.820296" lon="10.158625">
        <ele>609.7</ele>
        <time>2026-08-27T15:33:40Z</time>
      </trkpt>
      <trkpt lat="48.820297" lon="10.158620">
        <ele>609.7</ele>
        <time>2026-08-27T15:33:41Z</time>
      </trkpt>
      <trkpt lat="48.820298" lon="10.158613">
        <ele>609.8</ele>
        <time>2026-08-27T15:33:42Z</time>
      </trkpt>
      <trkpt lat="48.820298" lon="10.158607">
        <ele>609.9</ele>
        <time>2026-08-27T15:33:43Z</time>
      </trkpt>
      <trkpt lat="48.820295" lon="10.158603">
        <ele>610</ele>
        <time>2026-08-27T15:33:44Z</time>
      </trkpt>
      <trkpt lat="48.820293" lon="10.158599">
        <ele>610</ele>
        <time>2026-08-27T15:33:45Z</time>
      </trkpt>
      <trkpt lat="48.820291" lon="10.158595">
        <ele>610.1</ele>
        <time>2026-08-27T15:33:46Z</time>
      </trkpt>
      <trkpt lat="48.820289" lon="10.158591">
        <ele>610.1</ele>
        <time>2026-08-27T15:33:47Z</time>
      </trkpt>
      <trkpt lat="48.820287" lon="10.158588">
        <ele>610.2</ele>
        <time>2026-08-27T15:33:49Z</time>
      </trkpt>
      <trkpt lat="48.820286" lon="10.158584">
        <ele>610.2</ele>
        <time>2026-08-27T15:33:50Z</time>
      </trkpt>
      <trkpt lat="48.820285" lon="10.158578">
        <ele>610.3</ele>
        <time>2026-08-27T15:33:51Z</time>
      </trkpt>
      <trkpt lat="48.820284" lon="10.158573">
        <ele>610.4</ele>
        <time>2026-08-27T15:33:52Z</time>
      </trkpt>
      <trkpt lat="48.820283" lon="10.158541">
        <ele>610.5</ele>
        <time>2026-08-27T15:33:59Z</time>
      </trkpt>
      <trkpt lat="48.820286" lon="10.158523">
        <ele>610.1</ele>
        <time>2026-08-27T15:34:00Z</time>
      </trkpt>
      <trkpt lat="48.820293" lon="10.158500">
        <ele>609.6</ele>
        <time>2026-08-27T15:34:01Z</time>
      </trkpt>
      <trkpt lat="48.820307" lon="10.158475">
        <ele>609</ele>
        <time>2026-08-27T15:34:02Z</time>
      </trkpt>
      <trkpt lat="48.820317" lon="10.158461">
        <ele>608.5</ele>
        <time>2026-08-27T15:34:03Z</time>
      </trkpt>
      <trkpt lat="48.820329" lon="10.158444">
        <ele>608.1</ele>
        <time>2026-08-27T15:34:04Z</time>
      </trkpt>
      <trkpt lat="48.820339" lon="10.158408">
        <ele>607.3</ele>
        <time>2026-08-27T15:34:05Z</time>
      </trkpt>
      <trkpt lat="48.820343" lon="10.158392">
        <ele>606.9</ele>
        <time>2026-08-27T15:34:07Z</time>
      </trkpt>
      <trkpt lat="48.820340" lon="10.158379">
        <ele>606.7</ele>
        <time>2026-08-27T15:34:08Z</time>
      </trkpt>
      <trkpt lat="48.820331" lon="10.158379">
        <ele>606.6</ele>
        <time>2026-08-27T15:34:09Z</time>
      </trkpt>
      <trkpt lat="48.820313" lon="10.158396">
        <ele>606.4</ele>
        <time>2026-08-27T15:34:10Z</time>
      </trkpt>
      <trkpt lat="48.820244" lon="10.158482">
        <ele>605.6</ele>
        <time>2026-08-27T15:34:11Z</time>
      </trkpt>
      <trkpt lat="48.820187" lon="10.158457">
        <ele>605.1</ele>
        <time>2026-08-27T15:34:12Z</time>
      </trkpt>
      <trkpt lat="48.820120" lon="10.158428">
        <ele>604.4</ele>
        <time>2026-08-27T15:34:13Z</time>
      </trkpt>
      <trkpt lat="48.820056" lon="10.158386">
        <ele>603.8</ele>
        <time>2026-08-27T15:34:14Z</time>
      </trkpt>
      <trkpt lat="48.819974" lon="10.158332">
        <ele>603</ele>
        <time>2026-08-27T15:34:15Z</time>
      </trkpt>
      <trkpt lat="48.819884" lon="10.158294">
        <ele>602.1</ele>
        <time>2026-08-27T15:34:16Z</time>
      </trkpt>
      <trkpt lat="48.819833" lon="10.158262">
        <ele>601.6</ele>
        <time>2026-08-27T15:34:17Z</time>
      </trkpt>
      <trkpt lat="48.819745" lon="10.158213">
        <ele>600.7</ele>
        <time>2026-08-27T15:34:18Z</time>
      </trkpt>
      <trkpt lat="48.819692" lon="10.158142">
        <ele>600</ele>
        <time>2026-08-27T15:34:19Z</time>
      </trkpt>
      <trkpt lat="48.819620" lon="10.158083">
        <ele>599.3</ele>
        <time>2026-08-27T15:34:20Z</time>
      </trkpt>
      <trkpt lat="48.819565" lon="10.158049">
        <ele>598.6</ele>
        <time>2026-08-27T15:34:21Z</time>
      </trkpt>
      <trkpt lat="48.819524" lon="10.157991">
        <ele>598</ele>
        <time>2026-08-27T15:34:22Z</time>
      </trkpt>
      <trkpt lat="48.819474" lon="10.157895">
        <ele>597.2</ele>
        <time>2026-08-27T15:34:23Z</time>
      </trkpt>
      <trkpt lat="48.819459" lon="10.157774">
        <ele>596.3</ele>
        <time>2026-08-27T15:34:24Z</time>
      </trkpt>
      <trkpt lat="48.819390" lon="10.157697">
        <ele>595.4</ele>
        <time>2026-08-27T15:34:25Z</time>
      </trkpt>
      <trkpt lat="48.819336" lon="10.157613">
        <ele>594.5</ele>
        <time>2026-08-27T15:34:26Z</time>
      </trkpt>
      <trkpt lat="48.819275" lon="10.157505">
        <ele>593.5</ele>
        <time>2026-08-27T15:34:27Z</time>
      </trkpt>
      <trkpt lat="48.819235" lon="10.157380">
        <ele>592.5</ele>
        <time>2026-08-27T15:34:28Z</time>
      </trkpt>
      <trkpt lat="48.819186" lon="10.157258">
        <ele>591.5</ele>
        <time>2026-08-27T15:34:29Z</time>
      </trkpt>
      <trkpt lat="48.819144" lon="10.157100">
        <ele>590.3</ele>
        <time>2026-08-27T15:34:30Z</time>
      </trkpt>
      <trkpt lat="48.819105" lon="10.156975">
        <ele>589.3</ele>
        <time>2026-08-27T15:34:31Z</time>
      </trkpt>
      <trkpt lat="48.819088" lon="10.156808">
        <ele>588.2</ele>
        <time>2026-08-27T15:34:32Z</time>
      </trkpt>
      <trkpt lat="48.819054" lon="10.156643">
        <ele>587.1</ele>
        <time>2026-08-27T15:34:33Z</time>
      </trkpt>
      <trkpt lat="48.819040" lon="10.156477">
        <ele>586</ele>
        <time>2026-08-27T15:34:34Z</time>
      </trkpt>
      <trkpt lat="48.819057" lon="10.156311">
        <ele>584.9</ele>
        <time>2026-08-27T15:34:35Z</time>
      </trkpt>
      <trkpt lat="48.819049" lon="10.156136">
        <ele>583.7</ele>
        <time>2026-08-27T15:34:36Z</time>
      </trkpt>
      <trkpt lat="48.819056" lon="10.155948">
        <ele>582.5</ele>
        <time>2026-08-27T15:34:37Z</time>
      </trkpt>
      <trkpt lat="48.819052" lon="10.155760">
        <ele>581.2</ele>
        <time>2026-08-27T15:34:38Z</time>
      </trkpt>
      <trkpt lat="48.819085" lon="10.155571">
        <ele>579.8</ele>
        <time>2026-08-27T15:34:39Z</time>
      </trkpt>
      <trkpt lat="48.819078" lon="10.155407">
        <ele>578.6</ele>
        <time>2026-08-27T15:34:40Z</time>
      </trkpt>
      <trkpt lat="48.819067" lon="10.155262">
        <ele>577.6</ele>
        <time>2026-08-27T15:34:41Z</time>
      </trkpt>
      <trkpt lat="48.819030" lon="10.155144">
        <ele>576.7</ele>
        <time>2026-08-27T15:34:42Z</time>
      </trkpt>
      <trkpt lat="48.818998" lon="10.154950">
        <ele>575.3</ele>
        <time>2026-08-27T15:34:43Z</time>
      </trkpt>
      <trkpt lat="48.818963" lon="10.154838">
        <ele>574.5</ele>
        <time>2026-08-27T15:34:44Z</time>
      </trkpt>
      <trkpt lat="48.818904" lon="10.154689">
        <ele>573.3</ele>
        <time>2026-08-27T15:34:45Z</time>
      </trkpt>
      <trkpt lat="48.818871" lon="10.154525">
        <ele>572.2</ele>
        <time>2026-08-27T15:34:46Z</time>
      </trkpt>
      <trkpt lat="48.818833" lon="10.154361">
        <ele>571</ele>
        <time>2026-08-27T15:34:47Z</time>
      </trkpt>
      <trkpt lat="48.818831" lon="10.154195">
        <ele>569.9</ele>
        <time>2026-08-27T15:34:48Z</time>
      </trkpt>
      <trkpt lat="48.818815" lon="10.154021">
        <ele>568.8</ele>
        <time>2026-08-27T15:34:49Z</time>
      </trkpt>
      <trkpt lat="48.818813" lon="10.153808">
        <ele>567.3</ele>
        <time>2026-08-27T15:34:50Z</time>
      </trkpt>
      <trkpt lat="48.818778" lon="10.153611">
        <ele>566</ele>
        <time>2026-08-27T15:34:51Z</time>
      </trkpt>
      <trkpt lat="48.818773" lon="10.153413">
        <ele>564.8</ele>
        <time>2026-08-27T15:34:52Z</time>
      </trkpt>
      <trkpt lat="48.818787" lon="10.153226">
        <ele>563.5</ele>
        <time>2026-08-27T15:34:53Z</time>
      </trkpt>
      <trkpt lat="48.818790" lon="10.153033">
        <ele>562.3</ele>
        <time>2026-08-27T15:34:54Z</time>
      </trkpt>
      <trkpt lat="48.818721" lon="10.152839">
        <ele>560.8</ele>
        <time>2026-08-27T15:34:55Z</time>
      </trkpt>
      <trkpt lat="48.818691" lon="10.152660">
        <ele>559.7</ele>
        <time>2026-08-27T15:34:56Z</time>
      </trkpt>
      <trkpt lat="48.818704" lon="10.152480">
        <ele>558.5</ele>
        <time>2026-08-27T15:34:57Z</time>
      </trkpt>
      <trkpt lat="48.818676" lon="10.152273">
        <ele>557.2</ele>
        <time>2026-08-27T15:34:58Z</time>
      </trkpt>
      <trkpt lat="48.818654" lon="10.152056">
        <ele>555.9</ele>
        <time>2026-08-27T15:34:59Z</time>
      </trkpt>
      <trkpt lat="48.818610" lon="10.151857">
        <ele>554.9</ele>
        <time>2026-08-27T15:35:00Z</time>
      </trkpt>
      <trkpt lat="48.818568" lon="10.151705">
        <ele>554.1</ele>
        <time>2026-08-27T15:35:01Z</time>
      </trkpt>
      <trkpt lat="48.818517" lon="10.151601">
        <ele>553.6</ele>
        <time>2026-08-27T15:35:02Z</time>
      </trkpt>
      <trkpt lat="48.818463" lon="10.151471">
        <ele>553.1</ele>
        <time>2026-08-27T15:35:03Z</time>
      </trkpt>
      <trkpt lat="48.818396" lon="10.151427">
        <ele>552.7</ele>
        <time>2026-08-27T15:35:04Z</time>
      </trkpt>
      <trkpt lat="48.818337" lon="10.151385">
        <ele>552.4</ele>
        <time>2026-08-27T15:35:05Z</time>
      </trkpt>
      <trkpt lat="48.818262" lon="10.151444">
        <ele>552.1</ele>
        <time>2026-08-27T15:35:06Z</time>
      </trkpt>
      <trkpt lat="48.818223" lon="10.151430">
        <ele>552</ele>
        <time>2026-08-27T15:35:07Z</time>
      </trkpt>
      <trkpt lat="48.818182" lon="10.151433">
        <ele>551.8</ele>
        <time>2026-08-27T15:35:08Z</time>
      </trkpt>
      <trkpt lat="48.818116" lon="10.151445">
        <ele>551.6</ele>
        <time>2026-08-27T15:35:09Z</time>
      </trkpt>
      <trkpt lat="48.818062" lon="10.151462">
        <ele>551.4</ele>
        <time>2026-08-27T15:35:10Z</time>
      </trkpt>
      <trkpt lat="48.818018" lon="10.151465">
        <ele>551.2</ele>
        <time>2026-08-27T15:35:11Z</time>
      </trkpt>
      <trkpt lat="48.817959" lon="10.151452">
        <ele>551</ele>
        <time>2026-08-27T15:35:12Z</time>
      </trkpt>
      <trkpt lat="48.817907" lon="10.151441">
        <ele>550.8</ele>
        <time>2026-08-27T15:35:13Z</time>
      </trkpt>
      <trkpt lat="48.817796" lon="10.151383">
        <ele>550.4</ele>
        <time>2026-08-27T15:35:14Z</time>
      </trkpt>
      <trkpt lat="48.817699" lon="10.151303">
        <ele>550.1</ele>
        <time>2026-08-27T15:35:15Z</time>
      </trkpt>
      <trkpt lat="48.817594" lon="10.151209">
        <ele>549.7</ele>
        <time>2026-08-27T15:35:16Z</time>
      </trkpt>
      <trkpt lat="48.817513" lon="10.151068">
        <ele>549.4</ele>
        <time>2026-08-27T15:35:17Z</time>
      </trkpt>
      <trkpt lat="48.817465" lon="10.150982">
        <ele>549.1</ele>
        <time>2026-08-27T15:35:18Z</time>
      </trkpt>
      <trkpt lat="48.817418" lon="10.150875">
        <ele>548.7</ele>
        <time>2026-08-27T15:35:19Z</time>
      </trkpt>
      <trkpt lat="48.817412" lon="10.150767">
        <ele>548.3</ele>
        <time>2026-08-27T15:35:20Z</time>
      </trkpt>
      <trkpt lat="48.817391" lon="10.150672">
        <ele>547.8</ele>
        <time>2026-08-27T15:35:21Z</time>
      </trkpt>
      <trkpt lat="48.817383" lon="10.150594">
        <ele>547.4</ele>
        <time>2026-08-27T15:35:22Z</time>
      </trkpt>
      <trkpt lat="48.817370" lon="10.150469">
        <ele>546.6</ele>
        <time>2026-08-27T15:35:23Z</time>
      </trkpt>
      <trkpt lat="48.817344" lon="10.150381">
        <ele>546</ele>
        <time>2026-08-27T15:35:24Z</time>
      </trkpt>
      <trkpt lat="48.817243" lon="10.150217">
        <ele>544.4</ele>
        <time>2026-08-27T15:35:25Z</time>
      </trkpt>
      <trkpt lat="48.817172" lon="10.150116">
        <ele>543.3</ele>
        <time>2026-08-27T15:35:26Z</time>
      </trkpt>
      <trkpt lat="48.817096" lon="10.149955">
        <ele>541.8</ele>
        <time>2026-08-27T15:35:27Z</time>
      </trkpt>
      <trkpt lat="48.817044" lon="10.149829">
        <ele>540.6</ele>
        <time>2026-08-27T15:35:28Z</time>
      </trkpt>
      <trkpt lat="48.816969" lon="10.149723">
        <ele>539.4</ele>
        <time>2026-08-27T15:35:29Z</time>
      </trkpt>
      <trkpt lat="48.816898" lon="10.149582">
        <ele>538.1</ele>
        <time>2026-08-27T15:35:30Z</time>
      </trkpt>
      <trkpt lat="48.816866" lon="10.149383">
        <ele>536.5</ele>
        <time>2026-08-27T15:35:31Z</time>
      </trkpt>
      <trkpt lat="48.816870" lon="10.149155">
        <ele>534.8</ele>
        <time>2026-08-27T15:35:32Z</time>
      </trkpt>
      <trkpt lat="48.816861" lon="10.148942">
        <ele>533.4</ele>
        <time>2026-08-27T15:35:33Z</time>
      </trkpt>
      <trkpt lat="48.816833" lon="10.148811">
        <ele>532.5</ele>
        <time>2026-08-27T15:35:34Z</time>
      </trkpt>
      <trkpt lat="48.816791" lon="10.148651">
        <ele>531.4</ele>
        <time>2026-08-27T15:35:35Z</time>
      </trkpt>
      <trkpt lat="48.816752" lon="10.148441">
        <ele>529.9</ele>
        <time>2026-08-27T15:35:36Z</time>
      </trkpt>
      <trkpt lat="48.816752" lon="10.148269">
        <ele>528.9</ele>
        <time>2026-08-27T15:35:37Z</time>
      </trkpt>
      <trkpt lat="48.816705" lon="10.148115">
        <ele>527.8</ele>
        <time>2026-08-27T15:35:38Z</time>
      </trkpt>
      <trkpt lat="48.816695" lon="10.147947">
        <ele>526.7</ele>
        <time>2026-08-27T15:35:39Z</time>
      </trkpt>
      <trkpt lat="48.816699" lon="10.147721">
        <ele>525.3</ele>
        <time>2026-08-27T15:35:40Z</time>
      </trkpt>
      <trkpt lat="48.816678" lon="10.147556">
        <ele>524.3</ele>
        <time>2026-08-27T15:35:41Z</time>
      </trkpt>
      <trkpt lat="48.816662" lon="10.147389">
        <ele>523.2</ele>
        <time>2026-08-27T15:35:42Z</time>
      </trkpt>
      <trkpt lat="48.816641" lon="10.147233">
        <ele>522.2</ele>
        <time>2026-08-27T15:35:43Z</time>
      </trkpt>
      <trkpt lat="48.816637" lon="10.147047">
        <ele>521.1</ele>
        <time>2026-08-27T15:35:44Z</time>
      </trkpt>
      <trkpt lat="48.816649" lon="10.146882">
        <ele>520.2</ele>
        <time>2026-08-27T15:35:45Z</time>
      </trkpt>
      <trkpt lat="48.816623" lon="10.146715">
        <ele>519.1</ele>
        <time>2026-08-27T15:35:46Z</time>
      </trkpt>
      <trkpt lat="48.816603" lon="10.146547">
        <ele>518</ele>
        <time>2026-08-27T15:35:47Z</time>
      </trkpt>
      <trkpt lat="48.816611" lon="10.146391">
        <ele>516.9</ele>
        <time>2026-08-27T15:35:48Z</time>
      </trkpt>
      <trkpt lat="48.816625" lon="10.146176">
        <ele>515.2</ele>
        <time>2026-08-27T15:35:49Z</time>
      </trkpt>
      <trkpt lat="48.816576" lon="10.146060">
        <ele>514.2</ele>
        <time>2026-08-27T15:35:50Z</time>
      </trkpt>
      <trkpt lat="48.816562" lon="10.145904">
        <ele>513.2</ele>
        <time>2026-08-27T15:35:51Z</time>
      </trkpt>
      <trkpt lat="48.816516" lon="10.145763">
        <ele>512.2</ele>
        <time>2026-08-27T15:35:52Z</time>
      </trkpt>
      <trkpt lat="48.816434" lon="10.145701">
        <ele>511.3</ele>
        <time>2026-08-27T15:35:53Z</time>
      </trkpt>
      <trkpt lat="48.816390" lon="10.145614">
        <ele>510.6</ele>
        <time>2026-08-27T15:35:54Z</time>
      </trkpt>
      <trkpt lat="48.816322" lon="10.145520">
        <ele>509.7</ele>
        <time>2026-08-27T15:35:55Z</time>
      </trkpt>
      <trkpt lat="48.816251" lon="10.145453">
        <ele>508.8</ele>
        <time>2026-08-27T15:35:56Z</time>
      </trkpt>
      <trkpt lat="48.816177" lon="10.145347">
        <ele>507.7</ele>
        <time>2026-08-27T15:35:57Z</time>
      </trkpt>
      <trkpt lat="48.816130" lon="10.145244">
        <ele>506.7</ele>
        <time>2026-08-27T15:35:58Z</time>
      </trkpt>
      <trkpt lat="48.816083" lon="10.145037">
        <ele>505.3</ele>
        <time>2026-08-27T15:35:59Z</time>
      </trkpt>
      <trkpt lat="48.816075" lon="10.144834">
        <ele>504.6</ele>
        <time>2026-08-27T15:36:00Z</time>
      </trkpt>
      <trkpt lat="48.816085" lon="10.144733">
        <ele>503.5</ele>
        <time>2026-08-27T15:36:01Z</time>
      </trkpt>
      <trkpt lat="48.816089" lon="10.144561">
        <ele>501.7</ele>
        <time>2026-08-27T15:36:02Z</time>
      </trkpt>
      <trkpt lat="48.816099" lon="10.144388">
        <ele>499.9</ele>
        <time>2026-08-27T15:36:03Z</time>
      </trkpt>
      <trkpt lat="48.816094" lon="10.144214">
        <ele>498.1</ele>
        <time>2026-08-27T15:36:04Z</time>
      </trkpt>
      <trkpt lat="48.816115" lon="10.144077">
        <ele>496.6</ele>
        <time>2026-08-27T15:36:05Z</time>
      </trkpt>
      <trkpt lat="48.816130" lon="10.143942">
        <ele>495.1</ele>
        <time>2026-08-27T15:36:06Z</time>
      </trkpt>
      <trkpt lat="48.816162" lon="10.143795">
        <ele>493.6</ele>
        <time>2026-08-27T15:36:07Z</time>
      </trkpt>
      <trkpt lat="48.816223" lon="10.143637">
        <ele>491.8</ele>
        <time>2026-08-27T15:36:08Z</time>
      </trkpt>
      <trkpt lat="48.816292" lon="10.143523">
        <ele>490.4</ele>
        <time>2026-08-27T15:36:09Z</time>
      </trkpt>
      <trkpt lat="48.816374" lon="10.143391">
        <ele>488.9</ele>
        <time>2026-08-27T15:36:10Z</time>
      </trkpt>
      <trkpt lat="48.816424" lon="10.143251">
        <ele>487.7</ele>
        <time>2026-08-27T15:36:11Z</time>
      </trkpt>
      <trkpt lat="48.816471" lon="10.143118">
        <ele>486.7</ele>
        <time>2026-08-27T15:36:12Z</time>
      </trkpt>
      <trkpt lat="48.816502" lon="10.142960">
        <ele>485.6</ele>
        <time>2026-08-27T15:36:13Z</time>
      </trkpt>
      <trkpt lat="48.816511" lon="10.142787">
        <ele>485.1</ele>
        <time>2026-08-27T15:36:14Z</time>
      </trkpt>
      <trkpt lat="48.816534" lon="10.142627">
        <ele>484.8</ele>
        <time>2026-08-27T15:36:15Z</time>
      </trkpt>
      <trkpt lat="48.816555" lon="10.142474">
        <ele>484.4</ele>
        <time>2026-08-27T15:36:16Z</time>
      </trkpt>
      <trkpt lat="48.816562" lon="10.142305">
        <ele>484</ele>
        <time>2026-08-27T15:36:17Z</time>
      </trkpt>
      <trkpt lat="48.816570" lon="10.142152">
        <ele>483.7</ele>
        <time>2026-08-27T15:36:18Z</time>
      </trkpt>
      <trkpt lat="48.816579" lon="10.142003">
        <ele>483.3</ele>
        <time>2026-08-27T15:36:19Z</time>
      </trkpt>
      <trkpt lat="48.816584" lon="10.141849">
        <ele>482.9</ele>
        <time>2026-08-27T15:36:20Z</time>
      </trkpt>
      <trkpt lat="48.816603" lon="10.141695">
        <ele>482.5</ele>
        <time>2026-08-27T15:36:21Z</time>
      </trkpt>
      <trkpt lat="48.816598" lon="10.141556">
        <ele>482.4</ele>
        <time>2026-08-27T15:36:22Z</time>
      </trkpt>
      <trkpt lat="48.816614" lon="10.141405">
        <ele>482.1</ele>
        <time>2026-08-27T15:36:23Z</time>
      </trkpt>
      <trkpt lat="48.816621" lon="10.141255">
        <ele>481.7</ele>
        <time>2026-08-27T15:36:24Z</time>
      </trkpt>
      <trkpt lat="48.816620" lon="10.141100">
        <ele>481.5</ele>
        <time>2026-08-27T15:36:25Z</time>
      </trkpt>
      <trkpt lat="48.816637" lon="10.140941">
        <ele>481.1</ele>
        <time>2026-08-27T15:36:26Z</time>
      </trkpt>
      <trkpt lat="48.816640" lon="10.140811">
        <ele>480.9</ele>
        <time>2026-08-27T15:36:27Z</time>
      </trkpt>
      <trkpt lat="48.816648" lon="10.140682">
        <ele>480.6</ele>
        <time>2026-08-27T15:36:28Z</time>
      </trkpt>
      <trkpt lat="48.816667" lon="10.140549">
        <ele>480.3</ele>
        <time>2026-08-27T15:36:29Z</time>
      </trkpt>
      <trkpt lat="48.816679" lon="10.140421">
        <ele>480.1</ele>
        <time>2026-08-27T15:36:30Z</time>
      </trkpt>
      <trkpt lat="48.816688" lon="10.140292">
        <ele>479.9</ele>
        <time>2026-08-27T15:36:31Z</time>
      </trkpt>
      <trkpt lat="48.816718" lon="10.140159">
        <ele>479.6</ele>
        <time>2026-08-27T15:36:32Z</time>
      </trkpt>
      <trkpt lat="48.816718" lon="10.140037">
        <ele>479.3</ele>
        <time>2026-08-27T15:36:33Z</time>
      </trkpt>
      <trkpt lat="48.816729" lon="10.139914">
        <ele>479</ele>
        <time>2026-08-27T15:36:34Z</time>
      </trkpt>
      <trkpt lat="48.816717" lon="10.139790">
        <ele>478.7</ele>
        <time>2026-08-27T15:36:35Z</time>
      </trkpt>
      <trkpt lat="48.816709" lon="10.139668">
        <ele>478.5</ele>
        <time>2026-08-27T15:36:36Z</time>
      </trkpt>
      <trkpt lat="48.816705" lon="10.139541">
        <ele>478.2</ele>
        <time>2026-08-27T15:36:37Z</time>
      </trkpt>
      <trkpt lat="48.816698" lon="10.139412">
        <ele>478</ele>
        <time>2026-08-27T15:36:38Z</time>
      </trkpt>
      <trkpt lat="48.816690" lon="10.139288">
        <ele>477.8</ele>
        <time>2026-08-27T15:36:39Z</time>
      </trkpt>
      <trkpt lat="48.816670" lon="10.139166">
        <ele>477.6</ele>
        <time>2026-08-27T15:36:40Z</time>
      </trkpt>
      <trkpt lat="48.816653" lon="10.139054">
        <ele>477.4</ele>
        <time>2026-08-27T15:36:41Z</time>
      </trkpt>
      <trkpt lat="48.816637" lon="10.138933">
        <ele>477.1</ele>
        <time>2026-08-27T15:36:42Z</time>
      </trkpt>
      <trkpt lat="48.816608" lon="10.138825">
        <ele>476.9</ele>
        <time>2026-08-27T15:36:43Z</time>
      </trkpt>
      <trkpt lat="48.816578" lon="10.138717">
        <ele>476.7</ele>
        <time>2026-08-27T15:36:44Z</time>
      </trkpt>
      <trkpt lat="48.816549" lon="10.138604">
        <ele>476.5</ele>
        <time>2026-08-27T15:36:45Z</time>
      </trkpt>
      <trkpt lat="48.816513" lon="10.138493">
        <ele>476.3</ele>
        <time>2026-08-27T15:36:46Z</time>
      </trkpt>
      <trkpt lat="48.816489" lon="10.138383">
        <ele>476.1</ele>
        <time>2026-08-27T15:36:47Z</time>
      </trkpt>
      <trkpt lat="48.816453" lon="10.138255">
        <ele>475.9</ele>
        <time>2026-08-27T15:36:48Z</time>
      </trkpt>
      <trkpt lat="48.816436" lon="10.138140">
        <ele>475.7</ele>
        <time>2026-08-27T15:36:49Z</time>
      </trkpt>
      <trkpt lat="48.816399" lon="10.138041">
        <ele>475.5</ele>
        <time>2026-08-27T15:36:50Z</time>
      </trkpt>
      <trkpt lat="48.816345" lon="10.137929">
        <ele>475.3</ele>
        <time>2026-08-27T15:36:51Z</time>
      </trkpt>
      <trkpt lat="48.816319" lon="10.137823">
        <ele>475.1</ele>
        <time>2026-08-27T15:36:52Z</time>
      </trkpt>
      <trkpt lat="48.816295" lon="10.137723">
        <ele>475</ele>
        <time>2026-08-27T15:36:53Z</time>
      </trkpt>
      <trkpt lat="48.816268" lon="10.137618">
        <ele>474.8</ele>
        <time>2026-08-27T15:36:54Z</time>
      </trkpt>
      <trkpt lat="48.816249" lon="10.137508">
        <ele>474.7</ele>
        <time>2026-08-27T15:36:55Z</time>
      </trkpt>
      <trkpt lat="48.816229" lon="10.137388">
        <ele>474.6</ele>
        <time>2026-08-27T15:36:56Z</time>
      </trkpt>
      <trkpt lat="48.816206" lon="10.137263">
        <ele>474.4</ele>
        <time>2026-08-27T15:36:57Z</time>
      </trkpt>
      <trkpt lat="48.816162" lon="10.137135">
        <ele>474.2</ele>
        <time>2026-08-27T15:36:58Z</time>
      </trkpt>
      <trkpt lat="48.816134" lon="10.137020">
        <ele>474</ele>
        <time>2026-08-27T15:36:59Z</time>
      </trkpt>
      <trkpt lat="48.816101" lon="10.136931">
        <ele>473.9</ele>
        <time>2026-08-27T15:37:00Z</time>
      </trkpt>
      <trkpt lat="48.816065" lon="10.136833">
        <ele>473.7</ele>
        <time>2026-08-27T15:37:01Z</time>
      </trkpt>
      <trkpt lat="48.816025" lon="10.136711">
        <ele>473.5</ele>
        <time>2026-08-27T15:37:02Z</time>
      </trkpt>
      <trkpt lat="48.815984" lon="10.136608">
        <ele>473.4</ele>
        <time>2026-08-27T15:37:03Z</time>
      </trkpt>
      <trkpt lat="48.815961" lon="10.136475">
        <ele>473.2</ele>
        <time>2026-08-27T15:37:04Z</time>
      </trkpt>
      <trkpt lat="48.815918" lon="10.136355">
        <ele>473</ele>
        <time>2026-08-27T15:37:05Z</time>
      </trkpt>
      <trkpt lat="48.815916" lon="10.136248">
        <ele>472.9</ele>
        <time>2026-08-27T15:37:06Z</time>
      </trkpt>
      <trkpt lat="48.815881" lon="10.136137">
        <ele>472.8</ele>
        <time>2026-08-27T15:37:07Z</time>
      </trkpt>
      <trkpt lat="48.815885" lon="10.136013">
        <ele>472.6</ele>
        <time>2026-08-27T15:37:08Z</time>
      </trkpt>
      <trkpt lat="48.815848" lon="10.135916">
        <ele>472.5</ele>
        <time>2026-08-27T15:37:09Z</time>
      </trkpt>
      <trkpt lat="48.815826" lon="10.135794">
        <ele>472.4</ele>
        <time>2026-08-27T15:37:10Z</time>
      </trkpt>
      <trkpt lat="48.815810" lon="10.135666">
        <ele>472.2</ele>
        <time>2026-08-27T15:37:11Z</time>
      </trkpt>
      <trkpt lat="48.815811" lon="10.135512">
        <ele>472</ele>
        <time>2026-08-27T15:37:12Z</time>
      </trkpt>
      <trkpt lat="48.815791" lon="10.135415">
        <ele>471.9</ele>
        <time>2026-08-27T15:37:13Z</time>
      </trkpt>
      <trkpt lat="48.815762" lon="10.135304">
        <ele>471.8</ele>
        <time>2026-08-27T15:37:14Z</time>
      </trkpt>
      <trkpt lat="48.815740" lon="10.135192">
        <ele>471.7</ele>
        <time>2026-08-27T15:37:15Z</time>
      </trkpt>
      <trkpt lat="48.815724" lon="10.135101">
        <ele>471.6</ele>
        <time>2026-08-27T15:37:16Z</time>
      </trkpt>
      <trkpt lat="48.815696" lon="10.134973">
        <ele>471.5</ele>
        <time>2026-08-27T15:37:17Z</time>
      </trkpt>
      <trkpt lat="48.815679" lon="10.134891">
        <ele>471.4</ele>
        <time>2026-08-27T15:37:18Z</time>
      </trkpt>
      <trkpt lat="48.815647" lon="10.134781">
        <ele>471.3</ele>
        <time>2026-08-27T15:37:19Z</time>
      </trkpt>
      <trkpt lat="48.815668" lon="10.134658">
        <ele>471.2</ele>
        <time>2026-08-27T15:37:20Z</time>
      </trkpt>
      <trkpt lat="48.815651" lon="10.134561">
        <ele>471.1</ele>
        <time>2026-08-27T15:37:21Z</time>
      </trkpt>
      <trkpt lat="48.815642" lon="10.134460">
        <ele>471</ele>
        <time>2026-08-27T15:37:22Z</time>
      </trkpt>
      <trkpt lat="48.815630" lon="10.134353">
        <ele>470.9</ele>
        <time>2026-08-27T15:37:23Z</time>
      </trkpt>
      <trkpt lat="48.815647" lon="10.134224">
        <ele>470.8</ele>
        <time>2026-08-27T15:37:24Z</time>
      </trkpt>
      <trkpt lat="48.815654" lon="10.134103">
        <ele>470.7</ele>
        <time>2026-08-27T15:37:25Z</time>
      </trkpt>
      <trkpt lat="48.815641" lon="10.133965">
        <ele>470.5</ele>
        <time>2026-08-27T15:37:26Z</time>
      </trkpt>
      <trkpt lat="48.815636" lon="10.133867">
        <ele>470.5</ele>
        <time>2026-08-27T15:37:27Z</time>
      </trkpt>
      <trkpt lat="48.815653" lon="10.133764">
        <ele>470.3</ele>
        <time>2026-08-27T15:37:28Z</time>
      </trkpt>
      <trkpt lat="48.815655" lon="10.133647">
        <ele>470.2</ele>
        <time>2026-08-27T15:37:29Z</time>
      </trkpt>
      <trkpt lat="48.815648" lon="10.133523">
        <ele>470.1</ele>
        <time>2026-08-27T15:37:30Z</time>
      </trkpt>
      <trkpt lat="48.815642" lon="10.133402">
        <ele>469.9</ele>
        <time>2026-08-27T15:37:31Z</time>
      </trkpt>
      <trkpt lat="48.815668" lon="10.133302">
        <ele>469.8</ele>
        <time>2026-08-27T15:37:32Z</time>
      </trkpt>
      <trkpt lat="48.815676" lon="10.133194">
        <ele>469.7</ele>
        <time>2026-08-27T15:37:33Z</time>
      </trkpt>
      <trkpt lat="48.815689" lon="10.133124">
        <ele>469.6</ele>
        <time>2026-08-27T15:37:34Z</time>
      </trkpt>
      <trkpt lat="48.815710" lon="10.133035">
        <ele>469.5</ele>
        <time>2026-08-27T15:37:35Z</time>
      </trkpt>
      <trkpt lat="48.815736" lon="10.132944">
        <ele>469.4</ele>
        <time>2026-08-27T15:37:36Z</time>
      </trkpt>
      <trkpt lat="48.815761" lon="10.132866">
        <ele>469.3</ele>
        <time>2026-08-27T15:37:37Z</time>
      </trkpt>
      <trkpt lat="48.815766" lon="10.132778">
        <ele>469.2</ele>
        <time>2026-08-27T15:37:38Z</time>
      </trkpt>
      <trkpt lat="48.815761" lon="10.132688">
        <ele>469.1</ele>
        <time>2026-08-27T15:37:39Z</time>
      </trkpt>
      <trkpt lat="48.815777" lon="10.132614">
        <ele>469</ele>
        <time>2026-08-27T15:37:40Z</time>
      </trkpt>
      <trkpt lat="48.815801" lon="10.132506">
        <ele>468.8</ele>
        <time>2026-08-27T15:37:41Z</time>
      </trkpt>
      <trkpt lat="48.815827" lon="10.132404">
        <ele>468.7</ele>
        <time>2026-08-27T15:37:42Z</time>
      </trkpt>
      <trkpt lat="48.815845" lon="10.132284">
        <ele>468.5</ele>
        <time>2026-08-27T15:37:43Z</time>
      </trkpt>
      <trkpt lat="48.815860" lon="10.132213">
        <ele>468.4</ele>
        <time>2026-08-27T15:37:44Z</time>
      </trkpt>
      <trkpt lat="48.815892" lon="10.132113">
        <ele>468.2</ele>
        <time>2026-08-27T15:37:45Z</time>
      </trkpt>
      <trkpt lat="48.815913" lon="10.132024">
        <ele>468.1</ele>
        <time>2026-08-27T15:37:46Z</time>
      </trkpt>
      <trkpt lat="48.815927" lon="10.131924">
        <ele>468</ele>
        <time>2026-08-27T15:37:47Z</time>
      </trkpt>
      <trkpt lat="48.815982" lon="10.131839">
        <ele>467.8</ele>
        <time>2026-08-27T15:37:48Z</time>
      </trkpt>
      <trkpt lat="48.816012" lon="10.131735">
        <ele>467.6</ele>
        <time>2026-08-27T15:37:49Z</time>
      </trkpt>
      <trkpt lat="48.816047" lon="10.131635">
        <ele>467.6</ele>
        <time>2026-08-27T15:37:50Z</time>
      </trkpt>
      <trkpt lat="48.816077" lon="10.131535">
        <ele>467.5</ele>
        <time>2026-08-27T15:37:51Z</time>
      </trkpt>
      <trkpt lat="48.816100" lon="10.131428">
        <ele>467.4</ele>
        <time>2026-08-27T15:37:52Z</time>
      </trkpt>
      <trkpt lat="48.816113" lon="10.131330">
        <ele>467.3</ele>
        <time>2026-08-27T15:37:53Z</time>
      </trkpt>
      <trkpt lat="48.816141" lon="10.131232">
        <ele>467.2</ele>
        <time>2026-08-27T15:37:54Z</time>
      </trkpt>
      <trkpt lat="48.816112" lon="10.131125">
        <ele>467.1</ele>
        <time>2026-08-27T15:37:55Z</time>
      </trkpt>
      <trkpt lat="48.816105" lon="10.131023">
        <ele>467.1</ele>
        <time>2026-08-27T15:37:56Z</time>
      </trkpt>
      <trkpt lat="48.816092" lon="10.130914">
        <ele>467</ele>
        <time>2026-08-27T15:37:57Z</time>
      </trkpt>
      <trkpt lat="48.816088" lon="10.130834">
        <ele>467</ele>
        <time>2026-08-27T15:37:58Z</time>
      </trkpt>
      <trkpt lat="48.816099" lon="10.130709">
        <ele>466.9</ele>
        <time>2026-08-27T15:37:59Z</time>
      </trkpt>
      <trkpt lat="48.816103" lon="10.130607">
        <ele>466.9</ele>
        <time>2026-08-27T15:38:00Z</time>
      </trkpt>
      <trkpt lat="48.816107" lon="10.130504">
        <ele>466.8</ele>
        <time>2026-08-27T15:38:01Z</time>
      </trkpt>
      <trkpt lat="48.816105" lon="10.130395">
        <ele>466.8</ele>
        <time>2026-08-27T15:38:02Z</time>
      </trkpt>
      <trkpt lat="48.816106" lon="10.130287">
        <ele>466.8</ele>
        <time>2026-08-27T15:38:03Z</time>
      </trkpt>
      <trkpt lat="48.816087" lon="10.130182">
        <ele>466.8</ele>
        <time>2026-08-27T15:38:04Z</time>
      </trkpt>
      <trkpt lat="48.816088" lon="10.130099">
        <ele>466.8</ele>
        <time>2026-08-27T15:38:05Z</time>
      </trkpt>
      <trkpt lat="48.816083" lon="10.130012">
        <ele>466.8</ele>
        <time>2026-08-27T15:38:06Z</time>
      </trkpt>
      <trkpt lat="48.816077" lon="10.129911">
        <ele>466.8</ele>
        <time>2026-08-27T15:38:07Z</time>
      </trkpt>
      <trkpt lat="48.816078" lon="10.129837">
        <ele>466.8</ele>
        <time>2026-08-27T15:38:08Z</time>
      </trkpt>
      <trkpt lat="48.816078" lon="10.129746">
        <ele>466.7</ele>
        <time>2026-08-27T15:38:09Z</time>
      </trkpt>
      <trkpt lat="48.816061" lon="10.129629">
        <ele>466.6</ele>
        <time>2026-08-27T15:38:10Z</time>
      </trkpt>
      <trkpt lat="48.816077" lon="10.129519">
        <ele>466.6</ele>
        <time>2026-08-27T15:38:11Z</time>
      </trkpt>
      <trkpt lat="48.816069" lon="10.129415">
        <ele>466.5</ele>
        <time>2026-08-27T15:38:12Z</time>
      </trkpt>
      <trkpt lat="48.816080" lon="10.129320">
        <ele>466.5</ele>
        <time>2026-08-27T15:38:13Z</time>
      </trkpt>
      <trkpt lat="48.816090" lon="10.129231">
        <ele>466.4</ele>
        <time>2026-08-27T15:38:14Z</time>
      </trkpt>
      <trkpt lat="48.816098" lon="10.129118">
        <ele>466.3</ele>
        <time>2026-08-27T15:38:15Z</time>
      </trkpt>
      <trkpt lat="48.816104" lon="10.129009">
        <ele>466.2</ele>
        <time>2026-08-27T15:38:16Z</time>
      </trkpt>
      <trkpt lat="48.816111" lon="10.128900">
        <ele>466.1</ele>
        <time>2026-08-27T15:38:17Z</time>
      </trkpt>
      <trkpt lat="48.816111" lon="10.128790">
        <ele>465.9</ele>
        <time>2026-08-27T15:38:18Z</time>
      </trkpt>
      <trkpt lat="48.816109" lon="10.128664">
        <ele>465.7</ele>
        <time>2026-08-27T15:38:19Z</time>
      </trkpt>
      <trkpt lat="48.816132" lon="10.128561">
        <ele>465.6</ele>
        <time>2026-08-27T15:38:20Z</time>
      </trkpt>
      <trkpt lat="48.816149" lon="10.128446">
        <ele>465.4</ele>
        <time>2026-08-27T15:38:21Z</time>
      </trkpt>
      <trkpt lat="48.816139" lon="10.128337">
        <ele>465.3</ele>
        <time>2026-08-27T15:38:22Z</time>
      </trkpt>
      <trkpt lat="48.816181" lon="10.128222">
        <ele>465.2</ele>
        <time>2026-08-27T15:38:23Z</time>
      </trkpt>
      <trkpt lat="48.816227" lon="10.128133">
        <ele>465.1</ele>
        <time>2026-08-27T15:38:24Z</time>
      </trkpt>
      <trkpt lat="48.816264" lon="10.128036">
        <ele>464.9</ele>
        <time>2026-08-27T15:38:25Z</time>
      </trkpt>
      <trkpt lat="48.816291" lon="10.127927">
        <ele>464.7</ele>
        <time>2026-08-27T15:38:26Z</time>
      </trkpt>
      <trkpt lat="48.816282" lon="10.127825">
        <ele>464.6</ele>
        <time>2026-08-27T15:38:27Z</time>
      </trkpt>
      <trkpt lat="48.816286" lon="10.127718">
        <ele>464.4</ele>
        <time>2026-08-27T15:38:28Z</time>
      </trkpt>
      <trkpt lat="48.816308" lon="10.127626">
        <ele>464.2</ele>
        <time>2026-08-27T15:38:29Z</time>
      </trkpt>
      <trkpt lat="48.816325" lon="10.127528">
        <ele>464.1</ele>
        <time>2026-08-27T15:38:30Z</time>
      </trkpt>
      <trkpt lat="48.816329" lon="10.127444">
        <ele>464</ele>
        <time>2026-08-27T15:38:31Z</time>
      </trkpt>
      <trkpt lat="48.816349" lon="10.127348">
        <ele>463.8</ele>
        <time>2026-08-27T15:38:32Z</time>
      </trkpt>
      <trkpt lat="48.816368" lon="10.127258">
        <ele>463.7</ele>
        <time>2026-08-27T15:38:33Z</time>
      </trkpt>
      <trkpt lat="48.816377" lon="10.127171">
        <ele>463.5</ele>
        <time>2026-08-27T15:38:34Z</time>
      </trkpt>
      <trkpt lat="48.816392" lon="10.127085">
        <ele>463.4</ele>
        <time>2026-08-27T15:38:35Z</time>
      </trkpt>
      <trkpt lat="48.816379" lon="10.127007">
        <ele>463.3</ele>
        <time>2026-08-27T15:38:36Z</time>
      </trkpt>
      <trkpt lat="48.816368" lon="10.126926">
        <ele>463.2</ele>
        <time>2026-08-27T15:38:37Z</time>
      </trkpt>
      <trkpt lat="48.816365" lon="10.126830">
        <ele>463</ele>
        <time>2026-08-27T15:38:38Z</time>
      </trkpt>
      <trkpt lat="48.816358" lon="10.126768">
        <ele>463</ele>
        <time>2026-08-27T15:38:39Z</time>
      </trkpt>
      <trkpt lat="48.816361" lon="10.126693">
        <ele>462.9</ele>
        <time>2026-08-27T15:38:40Z</time>
      </trkpt>
      <trkpt lat="48.816410" lon="10.126590">
        <ele>462.6</ele>
        <time>2026-08-27T15:38:41Z</time>
      </trkpt>
      <trkpt lat="48.816435" lon="10.126530">
        <ele>462.4</ele>
        <time>2026-08-27T15:38:42Z</time>
      </trkpt>
      <trkpt lat="48.816427" lon="10.126451">
        <ele>462.3</ele>
        <time>2026-08-27T15:38:43Z</time>
      </trkpt>
      <trkpt lat="48.816468" lon="10.126375">
        <ele>462.1</ele>
        <time>2026-08-27T15:38:44Z</time>
      </trkpt>
      <trkpt lat="48.816492" lon="10.126300">
        <ele>461.9</ele>
        <time>2026-08-27T15:38:45Z</time>
      </trkpt>
      <trkpt lat="48.816514" lon="10.126224">
        <ele>461.8</ele>
        <time>2026-08-27T15:38:46Z</time>
      </trkpt>
      <trkpt lat="48.816556" lon="10.126136">
        <ele>461.6</ele>
        <time>2026-08-27T15:38:47Z</time>
      </trkpt>
      <trkpt lat="48.816576" lon="10.126050">
        <ele>461.5</ele>
        <time>2026-08-27T15:38:48Z</time>
      </trkpt>
      <trkpt lat="48.816627" lon="10.125999">
        <ele>461.4</ele>
        <time>2026-08-27T15:38:49Z</time>
      </trkpt>
      <trkpt lat="48.816660" lon="10.125934">
        <ele>461.3</ele>
        <time>2026-08-27T15:38:50Z</time>
      </trkpt>
      <trkpt lat="48.816701" lon="10.125867">
        <ele>461.2</ele>
        <time>2026-08-27T15:38:51Z</time>
      </trkpt>
      <trkpt lat="48.816737" lon="10.125770">
        <ele>461</ele>
        <time>2026-08-27T15:38:52Z</time>
      </trkpt>
      <trkpt lat="48.816780" lon="10.125715">
        <ele>460.9</ele>
        <time>2026-08-27T15:38:53Z</time>
      </trkpt>
      <trkpt lat="48.816824" lon="10.125622">
        <ele>460.7</ele>
        <time>2026-08-27T15:38:54Z</time>
      </trkpt>
      <trkpt lat="48.816867" lon="10.125548">
        <ele>460.6</ele>
        <time>2026-08-27T15:38:55Z</time>
      </trkpt>
      <trkpt lat="48.816909" lon="10.125476">
        <ele>460.5</ele>
        <time>2026-08-27T15:38:56Z</time>
      </trkpt>
      <trkpt lat="48.816942" lon="10.125387">
        <ele>460.4</ele>
        <time>2026-08-27T15:38:57Z</time>
      </trkpt>
      <trkpt lat="48.816979" lon="10.125352">
        <ele>460.3</ele>
        <time>2026-08-27T15:38:58Z</time>
      </trkpt>
      <trkpt lat="48.817017" lon="10.125276">
        <ele>460.3</ele>
        <time>2026-08-27T15:38:59Z</time>
      </trkpt>
      <trkpt lat="48.817089" lon="10.125288">
        <ele>460.2</ele>
        <time>2026-08-27T15:39:00Z</time>
      </trkpt>
      <trkpt lat="48.817132" lon="10.125195">
        <ele>460.1</ele>
        <time>2026-08-27T15:39:01Z</time>
      </trkpt>
      <trkpt lat="48.817165" lon="10.125131">
        <ele>460.1</ele>
        <time>2026-08-27T15:39:02Z</time>
      </trkpt>
      <trkpt lat="48.817206" lon="10.125065">
        <ele>460.1</ele>
        <time>2026-08-27T15:39:03Z</time>
      </trkpt>
      <trkpt lat="48.817247" lon="10.124998">
        <ele>460</ele>
        <time>2026-08-27T15:39:04Z</time>
      </trkpt>
      <trkpt lat="48.817273" lon="10.124924">
        <ele>459.9</ele>
        <time>2026-08-27T15:39:05Z</time>
      </trkpt>
      <trkpt lat="48.817287" lon="10.124848">
        <ele>459.8</ele>
        <time>2026-08-27T15:39:06Z</time>
      </trkpt>
      <trkpt lat="48.817304" lon="10.124775">
        <ele>459.7</ele>
        <time>2026-08-27T15:39:07Z</time>
      </trkpt>
      <trkpt lat="48.817321" lon="10.124703">
        <ele>459.7</ele>
        <time>2026-08-27T15:39:08Z</time>
      </trkpt>
      <trkpt lat="48.817336" lon="10.124630">
        <ele>459.6</ele>
        <time>2026-08-27T15:39:09Z</time>
      </trkpt>
      <trkpt lat="48.817360" lon="10.124555">
        <ele>459.6</ele>
        <time>2026-08-27T15:39:10Z</time>
      </trkpt>
      <trkpt lat="48.817383" lon="10.124478">
        <ele>459.6</ele>
        <time>2026-08-27T15:39:11Z</time>
      </trkpt>
      <trkpt lat="48.817411" lon="10.124376">
        <ele>459.6</ele>
        <time>2026-08-27T15:39:12Z</time>
      </trkpt>
      <trkpt lat="48.817405" lon="10.124298">
        <ele>459.6</ele>
        <time>2026-08-27T15:39:13Z</time>
      </trkpt>
      <trkpt lat="48.817430" lon="10.124240">
        <ele>459.6</ele>
        <time>2026-08-27T15:39:14Z</time>
      </trkpt>
      <trkpt lat="48.817461" lon="10.124179">
        <ele>459.6</ele>
        <time>2026-08-27T15:39:15Z</time>
      </trkpt>
      <trkpt lat="48.817467" lon="10.124136">
        <ele>459.6</ele>
        <time>2026-08-27T15:39:16Z</time>
      </trkpt>
      <trkpt lat="48.817493" lon="10.124094">
        <ele>459.5</ele>
        <time>2026-08-27T15:39:17Z</time>
      </trkpt>
      <trkpt lat="48.817530" lon="10.124039">
        <ele>459.5</ele>
        <time>2026-08-27T15:39:18Z</time>
      </trkpt>
      <trkpt lat="48.817557" lon="10.123992">
        <ele>459.4</ele>
        <time>2026-08-27T15:39:19Z</time>
      </trkpt>
      <trkpt lat="48.817596" lon="10.123936">
        <ele>459.3</ele>
        <time>2026-08-27T15:39:20Z</time>
      </trkpt>
      <trkpt lat="48.817657" lon="10.123881">
        <ele>459.2</ele>
        <time>2026-08-27T15:39:21Z</time>
      </trkpt>
      <trkpt lat="48.817716" lon="10.123837">
        <ele>459</ele>
        <time>2026-08-27T15:39:22Z</time>
      </trkpt>
      <trkpt lat="48.817769" lon="10.123800">
        <ele>459</ele>
        <time>2026-08-27T15:39:23Z</time>
      </trkpt>
      <trkpt lat="48.817805" lon="10.123741">
        <ele>459</ele>
        <time>2026-08-27T15:39:24Z</time>
      </trkpt>
      <trkpt lat="48.817868" lon="10.123727">
        <ele>458.9</ele>
        <time>2026-08-27T15:39:25Z</time>
      </trkpt>
      <trkpt lat="48.817912" lon="10.123692">
        <ele>458.9</ele>
        <time>2026-08-27T15:39:26Z</time>
      </trkpt>
      <trkpt lat="48.817932" lon="10.123626">
        <ele>458.8</ele>
        <time>2026-08-27T15:39:27Z</time>
      </trkpt>
      <trkpt lat="48.817971" lon="10.123567">
        <ele>458.8</ele>
        <time>2026-08-27T15:39:28Z</time>
      </trkpt>
      <trkpt lat="48.818006" lon="10.123514">
        <ele>458.7</ele>
        <time>2026-08-27T15:39:29Z</time>
      </trkpt>
      <trkpt lat="48.818039" lon="10.123467">
        <ele>458.7</ele>
        <time>2026-08-27T15:39:30Z</time>
      </trkpt>
      <trkpt lat="48.818070" lon="10.123445">
        <ele>458.7</ele>
        <time>2026-08-27T15:39:31Z</time>
      </trkpt>
      <trkpt lat="48.818099" lon="10.123460">
        <ele>458.6</ele>
        <time>2026-08-27T15:39:32Z</time>
      </trkpt>
      <trkpt lat="48.818126" lon="10.123470">
        <ele>458.6</ele>
        <time>2026-08-27T15:39:33Z</time>
      </trkpt>
      <trkpt lat="48.818147" lon="10.123469">
        <ele>458.6</ele>
        <time>2026-08-27T15:39:34Z</time>
      </trkpt>
      <trkpt lat="48.818161" lon="10.123471">
        <ele>458.5</ele>
        <time>2026-08-27T15:39:35Z</time>
      </trkpt>
      <trkpt lat="48.818165" lon="10.123453">
        <ele>458.5</ele>
        <time>2026-08-27T15:39:36Z</time>
      </trkpt>
      <trkpt lat="48.818165" lon="10.123429">
        <ele>458.5</ele>
        <time>2026-08-27T15:39:37Z</time>
      </trkpt>
      <trkpt lat="48.818171" lon="10.123406">
        <ele>458.5</ele>
        <time>2026-08-27T15:39:38Z</time>
      </trkpt>
      <trkpt lat="48.818198" lon="10.123360">
        <ele>458.4</ele>
        <time>2026-08-27T15:39:39Z</time>
      </trkpt>
      <trkpt lat="48.818239" lon="10.123307">
        <ele>458.3</ele>
        <time>2026-08-27T15:39:40Z</time>
      </trkpt>
      <trkpt lat="48.818279" lon="10.123268">
        <ele>458.2</ele>
        <time>2026-08-27T15:39:41Z</time>
      </trkpt>
      <trkpt lat="48.818324" lon="10.123251">
        <ele>458.2</ele>
        <time>2026-08-27T15:39:42Z</time>
      </trkpt>
      <trkpt lat="48.818362" lon="10.123251">
        <ele>458.2</ele>
        <time>2026-08-27T15:39:43Z</time>
      </trkpt>
      <trkpt lat="48.818389" lon="10.123253">
        <ele>458.3</ele>
        <time>2026-08-27T15:39:44Z</time>
      </trkpt>
      <trkpt lat="48.818407" lon="10.123252">
        <ele>458.2</ele>
        <time>2026-08-27T15:39:45Z</time>
      </trkpt>
      <trkpt lat="48.818420" lon="10.123248">
        <ele>458.2</ele>
        <time>2026-08-27T15:39:46Z</time>
      </trkpt>
      <trkpt lat="48.818433" lon="10.123241">
        <ele>458.2</ele>
        <time>2026-08-27T15:39:47Z</time>
      </trkpt>
      <trkpt lat="48.818452" lon="10.123228">
        <ele>458.2</ele>
        <time>2026-08-27T15:39:48Z</time>
      </trkpt>
      <trkpt lat="48.818475" lon="10.123213">
        <ele>458.1</ele>
        <time>2026-08-27T15:39:49Z</time>
      </trkpt>
      <trkpt lat="48.818500" lon="10.123189">
        <ele>458.1</ele>
        <time>2026-08-27T15:39:50Z</time>
      </trkpt>
      <trkpt lat="48.818524" lon="10.123158">
        <ele>458.1</ele>
        <time>2026-08-27T15:39:51Z</time>
      </trkpt>
      <trkpt lat="48.818549" lon="10.123112">
        <ele>458</ele>
        <time>2026-08-27T15:39:52Z</time>
      </trkpt>
      <trkpt lat="48.818582" lon="10.123052">
        <ele>457.9</ele>
        <time>2026-08-27T15:39:53Z</time>
      </trkpt>
      <trkpt lat="48.818609" lon="10.123017">
        <ele>457.9</ele>
        <time>2026-08-27T15:39:54Z</time>
      </trkpt>
      <trkpt lat="48.818641" lon="10.122989">
        <ele>457.8</ele>
        <time>2026-08-27T15:39:55Z</time>
      </trkpt>
      <trkpt lat="48.818679" lon="10.122949">
        <ele>457.7</ele>
        <time>2026-08-27T15:39:56Z</time>
      </trkpt>
      <trkpt lat="48.818716" lon="10.122910">
        <ele>457.7</ele>
        <time>2026-08-27T15:39:57Z</time>
      </trkpt>
      <trkpt lat="48.818752" lon="10.122872">
        <ele>457.6</ele>
        <time>2026-08-27T15:39:58Z</time>
      </trkpt>
      <trkpt lat="48.818785" lon="10.122814">
        <ele>457.5</ele>
        <time>2026-08-27T15:39:59Z</time>
      </trkpt>
      <trkpt lat="48.818823" lon="10.122770">
        <ele>457.4</ele>
        <time>2026-08-27T15:40:00Z</time>
      </trkpt>
      <trkpt lat="48.818872" lon="10.122746">
        <ele>457.4</ele>
        <time>2026-08-27T15:40:01Z</time>
      </trkpt>
      <trkpt lat="48.818887" lon="10.122685">
        <ele>457.3</ele>
        <time>2026-08-27T15:40:02Z</time>
      </trkpt>
      <trkpt lat="48.818895" lon="10.122642">
        <ele>457.2</ele>
        <time>2026-08-27T15:40:03Z</time>
      </trkpt>
      <trkpt lat="48.818925" lon="10.122574">
        <ele>457.2</ele>
        <time>2026-08-27T15:40:04Z</time>
      </trkpt>
      <trkpt lat="48.818962" lon="10.122523">
        <ele>457.1</ele>
        <time>2026-08-27T15:40:05Z</time>
      </trkpt>
      <trkpt lat="48.818981" lon="10.122445">
        <ele>457</ele>
        <time>2026-08-27T15:40:06Z</time>
      </trkpt>
      <trkpt lat="48.819010" lon="10.122389">
        <ele>457</ele>
        <time>2026-08-27T15:40:07Z</time>
      </trkpt>
      <trkpt lat="48.819045" lon="10.122330">
        <ele>456.9</ele>
        <time>2026-08-27T15:40:08Z</time>
      </trkpt>
      <trkpt lat="48.819078" lon="10.122270">
        <ele>456.9</ele>
        <time>2026-08-27T15:40:09Z</time>
      </trkpt>
      <trkpt lat="48.819112" lon="10.122212">
        <ele>456.9</ele>
        <time>2026-08-27T15:40:10Z</time>
      </trkpt>
      <trkpt lat="48.819145" lon="10.122151">
        <ele>456.8</ele>
        <time>2026-08-27T15:40:11Z</time>
      </trkpt>
      <trkpt lat="48.819181" lon="10.122091">
        <ele>456.8</ele>
        <time>2026-08-27T15:40:12Z</time>
      </trkpt>
      <trkpt lat="48.819217" lon="10.122037">
        <ele>456.8</ele>
        <time>2026-08-27T15:40:13Z</time>
      </trkpt>
      <trkpt lat="48.819251" lon="10.121985">
        <ele>456.8</ele>
        <time>2026-08-27T15:40:14Z</time>
      </trkpt>
      <trkpt lat="48.819281" lon="10.121937">
        <ele>456.8</ele>
        <time>2026-08-27T15:40:15Z</time>
      </trkpt>
      <trkpt lat="48.819319" lon="10.121889">
        <ele>456.8</ele>
        <time>2026-08-27T15:40:16Z</time>
      </trkpt>
      <trkpt lat="48.819360" lon="10.121841">
        <ele>456.7</ele>
        <time>2026-08-27T15:40:17Z</time>
      </trkpt>
      <trkpt lat="48.819397" lon="10.121791">
        <ele>456.7</ele>
        <time>2026-08-27T15:40:18Z</time>
      </trkpt>
      <trkpt lat="48.819436" lon="10.121737">
        <ele>456.7</ele>
        <time>2026-08-27T15:40:19Z</time>
      </trkpt>
      <trkpt lat="48.819472" lon="10.121682">
        <ele>456.7</ele>
        <time>2026-08-27T15:40:20Z</time>
      </trkpt>
      <trkpt lat="48.819500" lon="10.121628">
        <ele>456.6</ele>
        <time>2026-08-27T15:40:21Z</time>
      </trkpt>
      <trkpt lat="48.819526" lon="10.121551">
        <ele>456.7</ele>
        <time>2026-08-27T15:40:22Z</time>
      </trkpt>
      <trkpt lat="48.819550" lon="10.121477">
        <ele>456.7</ele>
        <time>2026-08-27T15:40:23Z</time>
      </trkpt>
      <trkpt lat="48.819577" lon="10.121417">
        <ele>456.7</ele>
        <time>2026-08-27T15:40:24Z</time>
      </trkpt>
      <trkpt lat="48.819603" lon="10.121360">
        <ele>456.7</ele>
        <time>2026-08-27T15:40:25Z</time>
      </trkpt>
      <trkpt lat="48.819631" lon="10.121317">
        <ele>456.7</ele>
        <time>2026-08-27T15:40:26Z</time>
      </trkpt>
      <trkpt lat="48.819682" lon="10.121276">
        <ele>456.6</ele>
        <time>2026-08-27T15:40:27Z</time>
      </trkpt>
      <trkpt lat="48.819727" lon="10.121238">
        <ele>456.6</ele>
        <time>2026-08-27T15:40:28Z</time>
      </trkpt>
      <trkpt lat="48.819785" lon="10.121204">
        <ele>456.5</ele>
        <time>2026-08-27T15:40:29Z</time>
      </trkpt>
      <trkpt lat="48.819845" lon="10.121176">
        <ele>456.4</ele>
        <time>2026-08-27T15:40:30Z</time>
      </trkpt>
      <trkpt lat="48.819901" lon="10.121143">
        <ele>456.3</ele>
        <time>2026-08-27T15:40:31Z</time>
      </trkpt>
      <trkpt lat="48.819955" lon="10.121112">
        <ele>456.3</ele>
        <time>2026-08-27T15:40:32Z</time>
      </trkpt>
      <trkpt lat="48.820008" lon="10.121085">
        <ele>456.2</ele>
        <time>2026-08-27T15:40:33Z</time>
      </trkpt>
      <trkpt lat="48.820065" lon="10.121050">
        <ele>456.2</ele>
        <time>2026-08-27T15:40:34Z</time>
      </trkpt>
      <trkpt lat="48.820122" lon="10.121011">
        <ele>456.1</ele>
        <time>2026-08-27T15:40:35Z</time>
      </trkpt>
      <trkpt lat="48.820175" lon="10.120978">
        <ele>456.1</ele>
        <time>2026-08-27T15:40:36Z</time>
      </trkpt>
      <trkpt lat="48.820225" lon="10.120950">
        <ele>456.1</ele>
        <time>2026-08-27T15:40:37Z</time>
      </trkpt>
      <trkpt lat="48.820274" lon="10.120923">
        <ele>456.1</ele>
        <time>2026-08-27T15:40:38Z</time>
      </trkpt>
      <trkpt lat="48.820333" lon="10.120892">
        <ele>456</ele>
        <time>2026-08-27T15:40:39Z</time>
      </trkpt>
      <trkpt lat="48.820392" lon="10.120861">
        <ele>456</ele>
        <time>2026-08-27T15:40:40Z</time>
      </trkpt>
      <trkpt lat="48.820448" lon="10.120831">
        <ele>456</ele>
        <time>2026-08-27T15:40:41Z</time>
      </trkpt>
      <trkpt lat="48.820501" lon="10.120805">
        <ele>455.9</ele>
        <time>2026-08-27T15:40:42Z</time>
      </trkpt>
      <trkpt lat="48.820553" lon="10.120780">
        <ele>455.9</ele>
        <time>2026-08-27T15:40:43Z</time>
      </trkpt>
      <trkpt lat="48.820609" lon="10.120757">
        <ele>455.8</ele>
        <time>2026-08-27T15:40:44Z</time>
      </trkpt>
      <trkpt lat="48.820676" lon="10.120734">
        <ele>455.6</ele>
        <time>2026-08-27T15:40:45Z</time>
      </trkpt>
      <trkpt lat="48.820739" lon="10.120694">
        <ele>455.5</ele>
        <time>2026-08-27T15:40:46Z</time>
      </trkpt>
      <trkpt lat="48.820801" lon="10.120659">
        <ele>455.3</ele>
        <time>2026-08-27T15:40:47Z</time>
      </trkpt>
      <trkpt lat="48.820862" lon="10.120631">
        <ele>455.1</ele>
        <time>2026-08-27T15:40:48Z</time>
      </trkpt>
      <trkpt lat="48.820939" lon="10.120614">
        <ele>454.8</ele>
        <time>2026-08-27T15:40:49Z</time>
      </trkpt>
      <trkpt lat="48.820984" lon="10.120593">
        <ele>454.7</ele>
        <time>2026-08-27T15:40:50Z</time>
      </trkpt>
      <trkpt lat="48.821038" lon="10.120566">
        <ele>454.6</ele>
        <time>2026-08-27T15:40:51Z</time>
      </trkpt>
      <trkpt lat="48.821107" lon="10.120561">
        <ele>454.4</ele>
        <time>2026-08-27T15:40:52Z</time>
      </trkpt>
      <trkpt lat="48.821166" lon="10.120554">
        <ele>454.4</ele>
        <time>2026-08-27T15:40:53Z</time>
      </trkpt>
      <trkpt lat="48.821223" lon="10.120542">
        <ele>454.3</ele>
        <time>2026-08-27T15:40:54Z</time>
      </trkpt>
      <trkpt lat="48.821276" lon="10.120535">
        <ele>454.2</ele>
        <time>2026-08-27T15:40:55Z</time>
      </trkpt>
      <trkpt lat="48.821333" lon="10.120530">
        <ele>454.1</ele>
        <time>2026-08-27T15:40:56Z</time>
      </trkpt>
      <trkpt lat="48.821395" lon="10.120528">
        <ele>454</ele>
        <time>2026-08-27T15:40:57Z</time>
      </trkpt>
      <trkpt lat="48.821443" lon="10.120499">
        <ele>454</ele>
        <time>2026-08-27T15:40:58Z</time>
      </trkpt>
      <trkpt lat="48.821501" lon="10.120484">
        <ele>453.9</ele>
        <time>2026-08-27T15:40:59Z</time>
      </trkpt>
      <trkpt lat="48.821559" lon="10.120478">
        <ele>453.8</ele>
        <time>2026-08-27T15:41:00Z</time>
      </trkpt>
      <trkpt lat="48.821614" lon="10.120472">
        <ele>453.7</ele>
        <time>2026-08-27T15:41:01Z</time>
      </trkpt>
      <trkpt lat="48.821671" lon="10.120465">
        <ele>453.5</ele>
        <time>2026-08-27T15:41:02Z</time>
      </trkpt>
      <trkpt lat="48.821730" lon="10.120461">
        <ele>453.4</ele>
        <time>2026-08-27T15:41:03Z</time>
      </trkpt>
      <trkpt lat="48.821783" lon="10.120457">
        <ele>453.3</ele>
        <time>2026-08-27T15:41:04Z</time>
      </trkpt>
      <trkpt lat="48.821842" lon="10.120462">
        <ele>453.2</ele>
        <time>2026-08-27T15:41:05Z</time>
      </trkpt>
      <trkpt lat="48.821896" lon="10.120447">
        <ele>453.1</ele>
        <time>2026-08-27T15:41:06Z</time>
      </trkpt>
      <trkpt lat="48.821953" lon="10.120424">
        <ele>453</ele>
        <time>2026-08-27T15:41:07Z</time>
      </trkpt>
      <trkpt lat="48.822010" lon="10.120424">
        <ele>452.8</ele>
        <time>2026-08-27T15:41:08Z</time>
      </trkpt>
      <trkpt lat="48.822066" lon="10.120418">
        <ele>452.8</ele>
        <time>2026-08-27T15:41:09Z</time>
      </trkpt>
      <trkpt lat="48.822121" lon="10.120409">
        <ele>452.7</ele>
        <time>2026-08-27T15:41:10Z</time>
      </trkpt>
      <trkpt lat="48.822169" lon="10.120391">
        <ele>452.6</ele>
        <time>2026-08-27T15:41:11Z</time>
      </trkpt>
      <trkpt lat="48.822221" lon="10.120381">
        <ele>452.5</ele>
        <time>2026-08-27T15:41:12Z</time>
      </trkpt>
      <trkpt lat="48.822275" lon="10.120370">
        <ele>452.4</ele>
        <time>2026-08-27T15:41:13Z</time>
      </trkpt>
      <trkpt lat="48.822328" lon="10.120363">
        <ele>452.3</ele>
        <time>2026-08-27T15:41:14Z</time>
      </trkpt>
      <trkpt lat="48.822382" lon="10.120357">
        <ele>452.2</ele>
        <time>2026-08-27T15:41:15Z</time>
      </trkpt>
      <trkpt lat="48.822436" lon="10.120350">
        <ele>452.1</ele>
        <time>2026-08-27T15:41:16Z</time>
      </trkpt>
      <trkpt lat="48.822492" lon="10.120349">
        <ele>452</ele>
        <time>2026-08-27T15:41:17Z</time>
      </trkpt>
      <trkpt lat="48.822550" lon="10.120344">
        <ele>451.9</ele>
        <time>2026-08-27T15:41:18Z</time>
      </trkpt>
      <trkpt lat="48.822606" lon="10.120345">
        <ele>451.8</ele>
        <time>2026-08-27T15:41:19Z</time>
      </trkpt>
      <trkpt lat="48.822668" lon="10.120343">
        <ele>451.7</ele>
        <time>2026-08-27T15:41:20Z</time>
      </trkpt>
      <trkpt lat="48.822722" lon="10.120333">
        <ele>451.6</ele>
        <time>2026-08-27T15:41:21Z</time>
      </trkpt>
      <trkpt lat="48.822781" lon="10.120340">
        <ele>451.5</ele>
        <time>2026-08-27T15:41:22Z</time>
      </trkpt>
      <trkpt lat="48.822838" lon="10.120331">
        <ele>451.5</ele>
        <time>2026-08-27T15:41:23Z</time>
      </trkpt>
      <trkpt lat="48.822894" lon="10.120325">
        <ele>451.4</ele>
        <time>2026-08-27T15:41:24Z</time>
      </trkpt>
      <trkpt lat="48.822949" lon="10.120314">
        <ele>451.3</ele>
        <time>2026-08-27T15:41:25Z</time>
      </trkpt>
      <trkpt lat="48.823005" lon="10.120300">
        <ele>451.2</ele>
        <time>2026-08-27T15:41:26Z</time>
      </trkpt>
      <trkpt lat="48.823060" lon="10.120290">
        <ele>451.1</ele>
        <time>2026-08-27T15:41:27Z</time>
      </trkpt>
      <trkpt lat="48.823117" lon="10.120281">
        <ele>451</ele>
        <time>2026-08-27T15:41:28Z</time>
      </trkpt>
      <trkpt lat="48.823175" lon="10.120291">
        <ele>450.9</ele>
        <time>2026-08-27T15:41:29Z</time>
      </trkpt>
      <trkpt lat="48.823226" lon="10.120284">
        <ele>450.8</ele>
        <time>2026-08-27T15:41:30Z</time>
      </trkpt>
      <trkpt lat="48.823278" lon="10.120278">
        <ele>450.7</ele>
        <time>2026-08-27T15:41:31Z</time>
      </trkpt>
      <trkpt lat="48.823328" lon="10.120269">
        <ele>450.7</ele>
        <time>2026-08-27T15:41:32Z</time>
      </trkpt>
      <trkpt lat="48.823380" lon="10.120263">
        <ele>450.6</ele>
        <time>2026-08-27T15:41:33Z</time>
      </trkpt>
      <trkpt lat="48.823431" lon="10.120253">
        <ele>450.5</ele>
        <time>2026-08-27T15:41:34Z</time>
      </trkpt>
      <trkpt lat="48.823480" lon="10.120241">
        <ele>450.4</ele>
        <time>2026-08-27T15:41:35Z</time>
      </trkpt>
      <trkpt lat="48.823531" lon="10.120240">
        <ele>450.4</ele>
        <time>2026-08-27T15:41:36Z</time>
      </trkpt>
      <trkpt lat="48.823577" lon="10.120210">
        <ele>450.3</ele>
        <time>2026-08-27T15:41:37Z</time>
      </trkpt>
      <trkpt lat="48.823630" lon="10.120194">
        <ele>450.2</ele>
        <time>2026-08-27T15:41:38Z</time>
      </trkpt>
      <trkpt lat="48.823690" lon="10.120207">
        <ele>450.2</ele>
        <time>2026-08-27T15:41:39Z</time>
      </trkpt>
      <trkpt lat="48.823745" lon="10.120184">
        <ele>450.1</ele>
        <time>2026-08-27T15:41:40Z</time>
      </trkpt>
      <trkpt lat="48.823800" lon="10.120169">
        <ele>450</ele>
        <time>2026-08-27T15:41:41Z</time>
      </trkpt>
      <trkpt lat="48.823854" lon="10.120140">
        <ele>450</ele>
        <time>2026-08-27T15:41:42Z</time>
      </trkpt>
      <trkpt lat="48.823912" lon="10.120115">
        <ele>450</ele>
        <time>2026-08-27T15:41:43Z</time>
      </trkpt>
      <trkpt lat="48.823969" lon="10.120102">
        <ele>449.9</ele>
        <time>2026-08-27T15:41:44Z</time>
      </trkpt>
      <trkpt lat="48.824028" lon="10.120090">
        <ele>449.9</ele>
        <time>2026-08-27T15:41:45Z</time>
      </trkpt>
      <trkpt lat="48.824085" lon="10.120086">
        <ele>449.9</ele>
        <time>2026-08-27T15:41:46Z</time>
      </trkpt>
      <trkpt lat="48.824140" lon="10.120057">
        <ele>449.8</ele>
        <time>2026-08-27T15:41:47Z</time>
      </trkpt>
      <trkpt lat="48.824196" lon="10.120039">
        <ele>449.8</ele>
        <time>2026-08-27T15:41:48Z</time>
      </trkpt>
      <trkpt lat="48.824250" lon="10.120015">
        <ele>449.7</ele>
        <time>2026-08-27T15:41:49Z</time>
      </trkpt>
      <trkpt lat="48.824309" lon="10.119989">
        <ele>449.7</ele>
        <time>2026-08-27T15:41:50Z</time>
      </trkpt>
      <trkpt lat="48.824369" lon="10.119971">
        <ele>449.6</ele>
        <time>2026-08-27T15:41:51Z</time>
      </trkpt>
      <trkpt lat="48.824427" lon="10.119945">
        <ele>449.6</ele>
        <time>2026-08-27T15:41:52Z</time>
      </trkpt>
      <trkpt lat="48.824485" lon="10.119916">
        <ele>449.5</ele>
        <time>2026-08-27T15:41:53Z</time>
      </trkpt>
      <trkpt lat="48.824550" lon="10.119920">
        <ele>449.5</ele>
        <time>2026-08-27T15:41:54Z</time>
      </trkpt>
      <trkpt lat="48.824613" lon="10.119894">
        <ele>449.6</ele>
        <time>2026-08-27T15:41:55Z</time>
      </trkpt>
      <trkpt lat="48.824672" lon="10.119868">
        <ele>449.7</ele>
        <time>2026-08-27T15:41:56Z</time>
      </trkpt>
      <trkpt lat="48.824729" lon="10.119838">
        <ele>449.8</ele>
        <time>2026-08-27T15:41:57Z</time>
      </trkpt>
      <trkpt lat="48.824780" lon="10.119817">
        <ele>449.9</ele>
        <time>2026-08-27T15:41:58Z</time>
      </trkpt>
      <trkpt lat="48.824828" lon="10.119794">
        <ele>450</ele>
        <time>2026-08-27T15:41:59Z</time>
      </trkpt>
      <trkpt lat="48.824870" lon="10.119748">
        <ele>450.1</ele>
        <time>2026-08-27T15:42:00Z</time>
      </trkpt>
      <trkpt lat="48.824919" lon="10.119711">
        <ele>450.3</ele>
        <time>2026-08-27T15:42:01Z</time>
      </trkpt>
      <trkpt lat="48.824967" lon="10.119685">
        <ele>450.4</ele>
        <time>2026-08-27T15:42:02Z</time>
      </trkpt>
      <trkpt lat="48.825016" lon="10.119665">
        <ele>450.4</ele>
        <time>2026-08-27T15:42:03Z</time>
      </trkpt>
      <trkpt lat="48.825064" lon="10.119638">
        <ele>450.5</ele>
        <time>2026-08-27T15:42:04Z</time>
      </trkpt>
      <trkpt lat="48.825113" lon="10.119612">
        <ele>450.6</ele>
        <time>2026-08-27T15:42:05Z</time>
      </trkpt>
      <trkpt lat="48.825168" lon="10.119596">
        <ele>450.6</ele>
        <time>2026-08-27T15:42:06Z</time>
      </trkpt>
      <trkpt lat="48.825225" lon="10.119563">
        <ele>450.5</ele>
        <time>2026-08-27T15:42:07Z</time>
      </trkpt>
      <trkpt lat="48.825275" lon="10.119535">
        <ele>450.4</ele>
        <time>2026-08-27T15:42:08Z</time>
      </trkpt>
      <trkpt lat="48.825325" lon="10.119507">
        <ele>450.3</ele>
        <time>2026-08-27T15:42:09Z</time>
      </trkpt>
      <trkpt lat="48.825384" lon="10.119465">
        <ele>450.1</ele>
        <time>2026-08-27T15:42:10Z</time>
      </trkpt>
      <trkpt lat="48.825439" lon="10.119429">
        <ele>450</ele>
        <time>2026-08-27T15:42:11Z</time>
      </trkpt>
      <trkpt lat="48.825496" lon="10.119385">
        <ele>449.9</ele>
        <time>2026-08-27T15:42:12Z</time>
      </trkpt>
      <trkpt lat="48.825549" lon="10.119348">
        <ele>449.8</ele>
        <time>2026-08-27T15:42:13Z</time>
      </trkpt>
      <trkpt lat="48.825611" lon="10.119310">
        <ele>449.7</ele>
        <time>2026-08-27T15:42:14Z</time>
      </trkpt>
      <trkpt lat="48.825672" lon="10.119266">
        <ele>449.6</ele>
        <time>2026-08-27T15:42:15Z</time>
      </trkpt>
      <trkpt lat="48.825733" lon="10.119214">
        <ele>449.4</ele>
        <time>2026-08-27T15:42:16Z</time>
      </trkpt>
      <trkpt lat="48.825794" lon="10.119169">
        <ele>449.3</ele>
        <time>2026-08-27T15:42:17Z</time>
      </trkpt>
      <trkpt lat="48.825855" lon="10.119128">
        <ele>449.2</ele>
        <time>2026-08-27T15:42:18Z</time>
      </trkpt>
      <trkpt lat="48.825880" lon="10.119027">
        <ele>449.1</ele>
        <time>2026-08-27T15:42:19Z</time>
      </trkpt>
      <trkpt lat="48.825943" lon="10.118992">
        <ele>449</ele>
        <time>2026-08-27T15:42:20Z</time>
      </trkpt>
      <trkpt lat="48.826004" lon="10.118941">
        <ele>449</ele>
        <time>2026-08-27T15:42:21Z</time>
      </trkpt>
      <trkpt lat="48.826057" lon="10.118890">
        <ele>448.9</ele>
        <time>2026-08-27T15:42:22Z</time>
      </trkpt>
      <trkpt lat="48.826108" lon="10.118835">
        <ele>448.8</ele>
        <time>2026-08-27T15:42:23Z</time>
      </trkpt>
      <trkpt lat="48.826163" lon="10.118785">
        <ele>448.7</ele>
        <time>2026-08-27T15:42:24Z</time>
      </trkpt>
      <trkpt lat="48.826230" lon="10.118746">
        <ele>448.7</ele>
        <time>2026-08-27T15:42:25Z</time>
      </trkpt>
      <trkpt lat="48.826276" lon="10.118693">
        <ele>448.6</ele>
        <time>2026-08-27T15:42:26Z</time>
      </trkpt>
      <trkpt lat="48.826335" lon="10.118629">
        <ele>448.6</ele>
        <time>2026-08-27T15:42:27Z</time>
      </trkpt>
      <trkpt lat="48.826389" lon="10.118558">
        <ele>448.5</ele>
        <time>2026-08-27T15:42:28Z</time>
      </trkpt>
      <trkpt lat="48.826448" lon="10.118551">
        <ele>448.5</ele>
        <time>2026-08-27T15:42:29Z</time>
      </trkpt>
      <trkpt lat="48.826481" lon="10.118485">
        <ele>448.4</ele>
        <time>2026-08-27T15:42:30Z</time>
      </trkpt>
      <trkpt lat="48.826510" lon="10.118425">
        <ele>448.4</ele>
        <time>2026-08-27T15:42:31Z</time>
      </trkpt>
      <trkpt lat="48.826546" lon="10.118376">
        <ele>448.4</ele>
        <time>2026-08-27T15:42:32Z</time>
      </trkpt>
      <trkpt lat="48.826586" lon="10.118315">
        <ele>448.4</ele>
        <time>2026-08-27T15:42:33Z</time>
      </trkpt>
      <trkpt lat="48.826625" lon="10.118244">
        <ele>448.3</ele>
        <time>2026-08-27T15:42:34Z</time>
      </trkpt>
      <trkpt lat="48.826670" lon="10.118159">
        <ele>448.3</ele>
        <time>2026-08-27T15:42:35Z</time>
      </trkpt>
      <trkpt lat="48.826689" lon="10.118062">
        <ele>448.2</ele>
        <time>2026-08-27T15:42:36Z</time>
      </trkpt>
      <trkpt lat="48.826612" lon="10.118007">
        <ele>448.1</ele>
        <time>2026-08-27T15:42:37Z</time>
      </trkpt>
      <trkpt lat="48.826584" lon="10.117938">
        <ele>448</ele>
        <time>2026-08-27T15:42:38Z</time>
      </trkpt>
      <trkpt lat="48.826550" lon="10.117868">
        <ele>447.9</ele>
        <time>2026-08-27T15:42:39Z</time>
      </trkpt>
      <trkpt lat="48.826514" lon="10.117797">
        <ele>447.9</ele>
        <time>2026-08-27T15:42:40Z</time>
      </trkpt>
      <trkpt lat="48.826478" lon="10.117690">
        <ele>447.8</ele>
        <time>2026-08-27T15:42:41Z</time>
      </trkpt>
      <trkpt lat="48.826453" lon="10.117591">
        <ele>447.7</ele>
        <time>2026-08-27T15:42:42Z</time>
      </trkpt>
      <trkpt lat="48.826422" lon="10.117511">
        <ele>447.7</ele>
        <time>2026-08-27T15:42:43Z</time>
      </trkpt>
      <trkpt lat="48.826385" lon="10.117443">
        <ele>447.6</ele>
        <time>2026-08-27T15:42:44Z</time>
      </trkpt>
      <trkpt lat="48.826346" lon="10.117369">
        <ele>447.6</ele>
        <time>2026-08-27T15:42:45Z</time>
      </trkpt>
      <trkpt lat="48.826321" lon="10.117292">
        <ele>447.5</ele>
        <time>2026-08-27T15:42:46Z</time>
      </trkpt>
      <trkpt lat="48.826304" lon="10.117196">
        <ele>447.5</ele>
        <time>2026-08-27T15:42:47Z</time>
      </trkpt>
      <trkpt lat="48.826283" lon="10.117105">
        <ele>447.5</ele>
        <time>2026-08-27T15:42:48Z</time>
      </trkpt>
      <trkpt lat="48.826279" lon="10.117003">
        <ele>447.4</ele>
        <time>2026-08-27T15:42:49Z</time>
      </trkpt>
      <trkpt lat="48.826283" lon="10.116905">
        <ele>447.4</ele>
        <time>2026-08-27T15:42:50Z</time>
      </trkpt>
      <trkpt lat="48.826286" lon="10.116805">
        <ele>447.3</ele>
        <time>2026-08-27T15:42:51Z</time>
      </trkpt>
      <trkpt lat="48.826294" lon="10.116705">
        <ele>447.3</ele>
        <time>2026-08-27T15:42:52Z</time>
      </trkpt>
      <trkpt lat="48.826327" lon="10.116582">
        <ele>447.3</ele>
        <time>2026-08-27T15:42:53Z</time>
      </trkpt>
      <trkpt lat="48.826345" lon="10.116487">
        <ele>447.3</ele>
        <time>2026-08-27T15:42:54Z</time>
      </trkpt>
      <trkpt lat="48.826371" lon="10.116398">
        <ele>447.2</ele>
        <time>2026-08-27T15:42:55Z</time>
      </trkpt>
      <trkpt lat="48.826404" lon="10.116298">
        <ele>447.2</ele>
        <time>2026-08-27T15:42:56Z</time>
      </trkpt>
      <trkpt lat="48.826421" lon="10.116211">
        <ele>447.1</ele>
        <time>2026-08-27T15:42:57Z</time>
      </trkpt>
      <trkpt lat="48.826458" lon="10.116122">
        <ele>447</ele>
        <time>2026-08-27T15:42:58Z</time>
      </trkpt>
      <trkpt lat="48.826486" lon="10.116035">
        <ele>447</ele>
        <time>2026-08-27T15:42:59Z</time>
      </trkpt>
      <trkpt lat="48.826538" lon="10.115958">
        <ele>446.9</ele>
        <time>2026-08-27T15:43:00Z</time>
      </trkpt>
      <trkpt lat="48.826582" lon="10.115879">
        <ele>446.9</ele>
        <time>2026-08-27T15:43:01Z</time>
      </trkpt>
      <trkpt lat="48.826626" lon="10.115805">
        <ele>446.8</ele>
        <time>2026-08-27T15:43:02Z</time>
      </trkpt>
      <trkpt lat="48.826656" lon="10.115722">
        <ele>446.7</ele>
        <time>2026-08-27T15:43:03Z</time>
      </trkpt>
      <trkpt lat="48.826693" lon="10.115638">
        <ele>446.7</ele>
        <time>2026-08-27T15:43:04Z</time>
      </trkpt>
      <trkpt lat="48.826731" lon="10.115545">
        <ele>446.6</ele>
        <time>2026-08-27T15:43:05Z</time>
      </trkpt>
      <trkpt lat="48.826771" lon="10.115471">
        <ele>446.5</ele>
        <time>2026-08-27T15:43:06Z</time>
      </trkpt>
      <trkpt lat="48.826797" lon="10.115387">
        <ele>446.5</ele>
        <time>2026-08-27T15:43:07Z</time>
      </trkpt>
      <trkpt lat="48.826824" lon="10.115300">
        <ele>446.4</ele>
        <time>2026-08-27T15:43:08Z</time>
      </trkpt>
      <trkpt lat="48.826881" lon="10.115217">
        <ele>446.3</ele>
        <time>2026-08-27T15:43:09Z</time>
      </trkpt>
      <trkpt lat="48.826914" lon="10.115139">
        <ele>446.2</ele>
        <time>2026-08-27T15:43:10Z</time>
      </trkpt>
      <trkpt lat="48.826930" lon="10.115038">
        <ele>446.2</ele>
        <time>2026-08-27T15:43:11Z</time>
      </trkpt>
      <trkpt lat="48.826963" lon="10.114947">
        <ele>446.1</ele>
        <time>2026-08-27T15:43:12Z</time>
      </trkpt>
      <trkpt lat="48.826994" lon="10.114872">
        <ele>446</ele>
        <time>2026-08-27T15:43:13Z</time>
      </trkpt>
      <trkpt lat="48.826979" lon="10.114752">
        <ele>445.9</ele>
        <time>2026-08-27T15:43:14Z</time>
      </trkpt>
      <trkpt lat="48.827010" lon="10.114670">
        <ele>445.9</ele>
        <time>2026-08-27T15:43:15Z</time>
      </trkpt>
      <trkpt lat="48.827038" lon="10.114596">
        <ele>445.8</ele>
        <time>2026-08-27T15:43:16Z</time>
      </trkpt>
      <trkpt lat="48.827070" lon="10.114512">
        <ele>445.8</ele>
        <time>2026-08-27T15:43:17Z</time>
      </trkpt>
      <trkpt lat="48.827098" lon="10.114429">
        <ele>445.7</ele>
        <time>2026-08-27T15:43:18Z</time>
      </trkpt>
      <trkpt lat="48.827121" lon="10.114345">
        <ele>445.7</ele>
        <time>2026-08-27T15:43:19Z</time>
      </trkpt>
      <trkpt lat="48.827145" lon="10.114264">
        <ele>445.6</ele>
        <time>2026-08-27T15:43:20Z</time>
      </trkpt>
      <trkpt lat="48.827170" lon="10.114184">
        <ele>445.6</ele>
        <time>2026-08-27T15:43:21Z</time>
      </trkpt>
      <trkpt lat="48.827194" lon="10.114100">
        <ele>445.5</ele>
        <time>2026-08-27T15:43:22Z</time>
      </trkpt>
      <trkpt lat="48.827225" lon="10.114012">
        <ele>445.5</ele>
        <time>2026-08-27T15:43:23Z</time>
      </trkpt>
      <trkpt lat="48.827241" lon="10.113926">
        <ele>445.4</ele>
        <time>2026-08-27T15:43:24Z</time>
      </trkpt>
      <trkpt lat="48.827232" lon="10.113841">
        <ele>445.4</ele>
        <time>2026-08-27T15:43:25Z</time>
      </trkpt>
      <trkpt lat="48.827252" lon="10.113757">
        <ele>445.3</ele>
        <time>2026-08-27T15:43:26Z</time>
      </trkpt>
      <trkpt lat="48.827276" lon="10.113675">
        <ele>445.3</ele>
        <time>2026-08-27T15:43:27Z</time>
      </trkpt>
      <trkpt lat="48.827290" lon="10.113589">
        <ele>445.2</ele>
        <time>2026-08-27T15:43:28Z</time>
      </trkpt>
      <trkpt lat="48.827309" lon="10.113505">
        <ele>445.1</ele>
        <time>2026-08-27T15:43:29Z</time>
      </trkpt>
      <trkpt lat="48.827323" lon="10.113420">
        <ele>445.1</ele>
        <time>2026-08-27T15:43:30Z</time>
      </trkpt>
      <trkpt lat="48.827345" lon="10.113334">
        <ele>445</ele>
        <time>2026-08-27T15:43:31Z</time>
      </trkpt>
      <trkpt lat="48.827361" lon="10.113246">
        <ele>444.9</ele>
        <time>2026-08-27T15:43:32Z</time>
      </trkpt>
      <trkpt lat="48.827376" lon="10.113157">
        <ele>444.9</ele>
        <time>2026-08-27T15:43:33Z</time>
      </trkpt>
      <trkpt lat="48.827390" lon="10.113072">
        <ele>444.8</ele>
        <time>2026-08-27T15:43:34Z</time>
      </trkpt>
      <trkpt lat="48.827399" lon="10.112992">
        <ele>444.7</ele>
        <time>2026-08-27T15:43:35Z</time>
      </trkpt>
      <trkpt lat="48.827414" lon="10.112909">
        <ele>444.7</ele>
        <time>2026-08-27T15:43:36Z</time>
      </trkpt>
      <trkpt lat="48.827424" lon="10.112830">
        <ele>444.6</ele>
        <time>2026-08-27T15:43:37Z</time>
      </trkpt>
      <trkpt lat="48.827433" lon="10.112753">
        <ele>444.6</ele>
        <time>2026-08-27T15:43:38Z</time>
      </trkpt>
      <trkpt lat="48.827443" lon="10.112672">
        <ele>444.5</ele>
        <time>2026-08-27T15:43:39Z</time>
      </trkpt>
      <trkpt lat="48.827452" lon="10.112594">
        <ele>444.4</ele>
        <time>2026-08-27T15:43:40Z</time>
      </trkpt>
      <trkpt lat="48.827463" lon="10.112511">
        <ele>444.4</ele>
        <time>2026-08-27T15:43:41Z</time>
      </trkpt>
      <trkpt lat="48.827467" lon="10.112420">
        <ele>444.3</ele>
        <time>2026-08-27T15:43:42Z</time>
      </trkpt>
      <trkpt lat="48.827483" lon="10.112332">
        <ele>444.3</ele>
        <time>2026-08-27T15:43:43Z</time>
      </trkpt>
      <trkpt lat="48.827485" lon="10.112245">
        <ele>444.2</ele>
        <time>2026-08-27T15:43:44Z</time>
      </trkpt>
      <trkpt lat="48.827483" lon="10.112159">
        <ele>444.2</ele>
        <time>2026-08-27T15:43:45Z</time>
      </trkpt>
      <trkpt lat="48.827482" lon="10.112099">
        <ele>444.1</ele>
        <time>2026-08-27T15:43:46Z</time>
      </trkpt>
      <trkpt lat="48.827485" lon="10.112012">
        <ele>444.1</ele>
        <time>2026-08-27T15:43:47Z</time>
      </trkpt>
      <trkpt lat="48.827487" lon="10.111925">
        <ele>444</ele>
        <time>2026-08-27T15:43:48Z</time>
      </trkpt>
      <trkpt lat="48.827484" lon="10.111850">
        <ele>444</ele>
        <time>2026-08-27T15:43:49Z</time>
      </trkpt>
      <trkpt lat="48.827478" lon="10.111776">
        <ele>443.9</ele>
        <time>2026-08-27T15:43:50Z</time>
      </trkpt>
      <trkpt lat="48.827480" lon="10.111698">
        <ele>443.9</ele>
        <time>2026-08-27T15:43:51Z</time>
      </trkpt>
      <trkpt lat="48.827475" lon="10.111620">
        <ele>443.8</ele>
        <time>2026-08-27T15:43:52Z</time>
      </trkpt>
      <trkpt lat="48.827490" lon="10.111520">
        <ele>443.8</ele>
        <time>2026-08-27T15:43:53Z</time>
      </trkpt>
      <trkpt lat="48.827497" lon="10.111430">
        <ele>443.7</ele>
        <time>2026-08-27T15:43:54Z</time>
      </trkpt>
      <trkpt lat="48.827503" lon="10.111333">
        <ele>443.7</ele>
        <time>2026-08-27T15:43:55Z</time>
      </trkpt>
      <trkpt lat="48.827517" lon="10.111236">
        <ele>443.6</ele>
        <time>2026-08-27T15:43:56Z</time>
      </trkpt>
      <trkpt lat="48.827520" lon="10.111149">
        <ele>443.6</ele>
        <time>2026-08-27T15:43:57Z</time>
      </trkpt>
      <trkpt lat="48.827484" lon="10.111084">
        <ele>443.5</ele>
        <time>2026-08-27T15:43:58Z</time>
      </trkpt>
      <trkpt lat="48.827489" lon="10.110999">
        <ele>443.5</ele>
        <time>2026-08-27T15:43:59Z</time>
      </trkpt>
      <trkpt lat="48.827478" lon="10.110924">
        <ele>443.5</ele>
        <time>2026-08-27T15:44:00Z</time>
      </trkpt>
      <trkpt lat="48.827489" lon="10.110820">
        <ele>443.4</ele>
        <time>2026-08-27T15:44:01Z</time>
      </trkpt>
      <trkpt lat="48.827493" lon="10.110738">
        <ele>443.4</ele>
        <time>2026-08-27T15:44:02Z</time>
      </trkpt>
      <trkpt lat="48.827471" lon="10.110661">
        <ele>443.3</ele>
        <time>2026-08-27T15:44:03Z</time>
      </trkpt>
      <trkpt lat="48.827467" lon="10.110561">
        <ele>443.3</ele>
        <time>2026-08-27T15:44:04Z</time>
      </trkpt>
      <trkpt lat="48.827506" lon="10.110506">
        <ele>443.3</ele>
        <time>2026-08-27T15:44:05Z</time>
      </trkpt>
      <trkpt lat="48.827511" lon="10.110434">
        <ele>443.2</ele>
        <time>2026-08-27T15:44:06Z</time>
      </trkpt>
      <trkpt lat="48.827511" lon="10.110375">
        <ele>443.2</ele>
        <time>2026-08-27T15:44:07Z</time>
      </trkpt>
      <trkpt lat="48.827517" lon="10.110286">
        <ele>443.1</ele>
        <time>2026-08-27T15:44:08Z</time>
      </trkpt>
      <trkpt lat="48.827527" lon="10.110186">
        <ele>443.1</ele>
        <time>2026-08-27T15:44:09Z</time>
      </trkpt>
      <trkpt lat="48.827536" lon="10.110093">
        <ele>443</ele>
        <time>2026-08-27T15:44:10Z</time>
      </trkpt>
      <trkpt lat="48.827544" lon="10.109997">
        <ele>442.9</ele>
        <time>2026-08-27T15:44:11Z</time>
      </trkpt>
      <trkpt lat="48.827551" lon="10.109907">
        <ele>442.8</ele>
        <time>2026-08-27T15:44:12Z</time>
      </trkpt>
      <trkpt lat="48.827560" lon="10.109817">
        <ele>442.8</ele>
        <time>2026-08-27T15:44:13Z</time>
      </trkpt>
      <trkpt lat="48.827586" lon="10.109705">
        <ele>442.7</ele>
        <time>2026-08-27T15:44:14Z</time>
      </trkpt>
      <trkpt lat="48.827608" lon="10.109614">
        <ele>442.6</ele>
        <time>2026-08-27T15:44:15Z</time>
      </trkpt>
      <trkpt lat="48.827630" lon="10.109522">
        <ele>442.6</ele>
        <time>2026-08-27T15:44:16Z</time>
      </trkpt>
      <trkpt lat="48.827649" lon="10.109430">
        <ele>442.5</ele>
        <time>2026-08-27T15:44:17Z</time>
      </trkpt>
      <trkpt lat="48.827667" lon="10.109340">
        <ele>442.5</ele>
        <time>2026-08-27T15:44:18Z</time>
      </trkpt>
      <trkpt lat="48.827694" lon="10.109245">
        <ele>442.4</ele>
        <time>2026-08-27T15:44:19Z</time>
      </trkpt>
      <trkpt lat="48.827701" lon="10.109157">
        <ele>442.3</ele>
        <time>2026-08-27T15:44:20Z</time>
      </trkpt>
      <trkpt lat="48.827719" lon="10.109078">
        <ele>442.3</ele>
        <time>2026-08-27T15:44:21Z</time>
      </trkpt>
      <trkpt lat="48.827730" lon="10.108976">
        <ele>442.2</ele>
        <time>2026-08-27T15:44:22Z</time>
      </trkpt>
      <trkpt lat="48.827754" lon="10.108896">
        <ele>442.1</ele>
        <time>2026-08-27T15:44:23Z</time>
      </trkpt>
      <trkpt lat="48.827787" lon="10.108813">
        <ele>442</ele>
        <time>2026-08-27T15:44:24Z</time>
      </trkpt>
      <trkpt lat="48.827811" lon="10.108730">
        <ele>442</ele>
        <time>2026-08-27T15:44:25Z</time>
      </trkpt>
      <trkpt lat="48.827829" lon="10.108643">
        <ele>441.9</ele>
        <time>2026-08-27T15:44:26Z</time>
      </trkpt>
      <trkpt lat="48.827848" lon="10.108561">
        <ele>441.8</ele>
        <time>2026-08-27T15:44:27Z</time>
      </trkpt>
      <trkpt lat="48.827884" lon="10.108462">
        <ele>441.8</ele>
        <time>2026-08-27T15:44:28Z</time>
      </trkpt>
      <trkpt lat="48.827906" lon="10.108383">
        <ele>441.8</ele>
        <time>2026-08-27T15:44:29Z</time>
      </trkpt>
      <trkpt lat="48.827922" lon="10.108296">
        <ele>441.7</ele>
        <time>2026-08-27T15:44:30Z</time>
      </trkpt>
      <trkpt lat="48.827942" lon="10.108228">
        <ele>441.7</ele>
        <time>2026-08-27T15:44:31Z</time>
      </trkpt>
      <trkpt lat="48.827968" lon="10.108137">
        <ele>441.7</ele>
        <time>2026-08-27T15:44:32Z</time>
      </trkpt>
      <trkpt lat="48.827998" lon="10.108040">
        <ele>441.6</ele>
        <time>2026-08-27T15:44:33Z</time>
      </trkpt>
      <trkpt lat="48.828039" lon="10.107925">
        <ele>441.6</ele>
        <time>2026-08-27T15:44:34Z</time>
      </trkpt>
      <trkpt lat="48.828080" lon="10.107847">
        <ele>441.5</ele>
        <time>2026-08-27T15:44:35Z</time>
      </trkpt>
      <trkpt lat="48.828115" lon="10.107760">
        <ele>441.5</ele>
        <time>2026-08-27T15:44:36Z</time>
      </trkpt>
      <trkpt lat="48.828147" lon="10.107673">
        <ele>441.5</ele>
        <time>2026-08-27T15:44:37Z</time>
      </trkpt>
      <trkpt lat="48.828178" lon="10.107579">
        <ele>441.4</ele>
        <time>2026-08-27T15:44:38Z</time>
      </trkpt>
      <trkpt lat="48.828196" lon="10.107465">
        <ele>441.4</ele>
        <time>2026-08-27T15:44:39Z</time>
      </trkpt>
      <trkpt lat="48.828225" lon="10.107366">
        <ele>441.4</ele>
        <time>2026-08-27T15:44:40Z</time>
      </trkpt>
      <trkpt lat="48.828268" lon="10.107313">
        <ele>441.4</ele>
        <time>2026-08-27T15:44:41Z</time>
      </trkpt>
      <trkpt lat="48.828305" lon="10.107247">
        <ele>441.4</ele>
        <time>2026-08-27T15:44:42Z</time>
      </trkpt>
      <trkpt lat="48.828328" lon="10.107164">
        <ele>441.3</ele>
        <time>2026-08-27T15:44:43Z</time>
      </trkpt>
      <trkpt lat="48.828362" lon="10.107093">
        <ele>441.3</ele>
        <time>2026-08-27T15:44:44Z</time>
      </trkpt>
      <trkpt lat="48.828384" lon="10.107005">
        <ele>441.3</ele>
        <time>2026-08-27T15:44:45Z</time>
      </trkpt>
      <trkpt lat="48.828402" lon="10.106924">
        <ele>441.3</ele>
        <time>2026-08-27T15:44:46Z</time>
      </trkpt>
      <trkpt lat="48.828435" lon="10.106874">
        <ele>441.3</ele>
        <time>2026-08-27T15:44:47Z</time>
      </trkpt>
      <trkpt lat="48.828464" lon="10.106815">
        <ele>441.3</ele>
        <time>2026-08-27T15:44:48Z</time>
      </trkpt>
      <trkpt lat="48.828506" lon="10.106755">
        <ele>441.3</ele>
        <time>2026-08-27T15:44:49Z</time>
      </trkpt>
      <trkpt lat="48.828552" lon="10.106677">
        <ele>441.3</ele>
        <time>2026-08-27T15:44:50Z</time>
      </trkpt>
      <trkpt lat="48.828540" lon="10.106568">
        <ele>441.4</ele>
        <time>2026-08-27T15:44:51Z</time>
      </trkpt>
      <trkpt lat="48.828549" lon="10.106531">
        <ele>441.4</ele>
        <time>2026-08-27T15:44:52Z</time>
      </trkpt>
      <trkpt lat="48.828576" lon="10.106487">
        <ele>441.4</ele>
        <time>2026-08-27T15:44:53Z</time>
      </trkpt>
      <trkpt lat="48.828612" lon="10.106466">
        <ele>441.4</ele>
        <time>2026-08-27T15:44:54Z</time>
      </trkpt>
      <trkpt lat="48.828643" lon="10.106447">
        <ele>441.4</ele>
        <time>2026-08-27T15:44:55Z</time>
      </trkpt>
      <trkpt lat="48.828705" lon="10.106513">
        <ele>441.6</ele>
        <time>2026-08-27T15:44:56Z</time>
      </trkpt>
      <trkpt lat="48.828764" lon="10.106586">
        <ele>441.7</ele>
        <time>2026-08-27T15:44:57Z</time>
      </trkpt>
      <trkpt lat="48.828796" lon="10.106644">
        <ele>441.8</ele>
        <time>2026-08-27T15:44:58Z</time>
      </trkpt>
      <trkpt lat="48.828847" lon="10.106682">
        <ele>441.8</ele>
        <time>2026-08-27T15:44:59Z</time>
      </trkpt>
      <trkpt lat="48.828884" lon="10.106719">
        <ele>441.9</ele>
        <time>2026-08-27T15:45:00Z</time>
      </trkpt>
      <trkpt lat="48.828939" lon="10.106716">
        <ele>441.8</ele>
        <time>2026-08-27T15:45:01Z</time>
      </trkpt>
      <trkpt lat="48.828985" lon="10.106728">
        <ele>441.8</ele>
        <time>2026-08-27T15:45:02Z</time>
      </trkpt>
      <trkpt lat="48.829028" lon="10.106707">
        <ele>441.7</ele>
        <time>2026-08-27T15:45:03Z</time>
      </trkpt>
      <trkpt lat="48.829073" lon="10.106670">
        <ele>441.7</ele>
        <time>2026-08-27T15:45:04Z</time>
      </trkpt>
      <trkpt lat="48.829121" lon="10.106643">
        <ele>441.6</ele>
        <time>2026-08-27T15:45:05Z</time>
      </trkpt>
      <trkpt lat="48.829141" lon="10.106593">
        <ele>441.6</ele>
        <time>2026-08-27T15:45:06Z</time>
      </trkpt>
      <trkpt lat="48.829166" lon="10.106533">
        <ele>441.5</ele>
        <time>2026-08-27T15:45:07Z</time>
      </trkpt>
      <trkpt lat="48.829184" lon="10.106474">
        <ele>441.4</ele>
        <time>2026-08-27T15:45:08Z</time>
      </trkpt>
      <trkpt lat="48.829213" lon="10.106413">
        <ele>441.4</ele>
        <time>2026-08-27T15:45:09Z</time>
      </trkpt>
      <trkpt lat="48.829249" lon="10.106362">
        <ele>441.3</ele>
        <time>2026-08-27T15:45:10Z</time>
      </trkpt>
      <trkpt lat="48.829288" lon="10.106315">
        <ele>441.2</ele>
        <time>2026-08-27T15:45:11Z</time>
      </trkpt>
      <trkpt lat="48.829337" lon="10.106275">
        <ele>441.1</ele>
        <time>2026-08-27T15:45:12Z</time>
      </trkpt>
      <trkpt lat="48.829383" lon="10.106231">
        <ele>441</ele>
        <time>2026-08-27T15:45:13Z</time>
      </trkpt>
      <trkpt lat="48.829432" lon="10.106193">
        <ele>440.9</ele>
        <time>2026-08-27T15:45:14Z</time>
      </trkpt>
      <trkpt lat="48.829483" lon="10.106179">
        <ele>440.8</ele>
        <time>2026-08-27T15:45:15Z</time>
      </trkpt>
      <trkpt lat="48.829537" lon="10.106174">
        <ele>440.7</ele>
        <time>2026-08-27T15:45:16Z</time>
      </trkpt>
      <trkpt lat="48.829594" lon="10.106142">
        <ele>440.7</ele>
        <time>2026-08-27T15:45:17Z</time>
      </trkpt>
      <trkpt lat="48.829644" lon="10.106092">
        <ele>440.6</ele>
        <time>2026-08-27T15:45:18Z</time>
      </trkpt>
      <trkpt lat="48.829699" lon="10.106046">
        <ele>440.6</ele>
        <time>2026-08-27T15:45:19Z</time>
      </trkpt>
      <trkpt lat="48.829749" lon="10.106001">
        <ele>440.6</ele>
        <time>2026-08-27T15:45:20Z</time>
      </trkpt>
      <trkpt lat="48.829801" lon="10.105957">
        <ele>440.6</ele>
        <time>2026-08-27T15:45:21Z</time>
      </trkpt>
      <trkpt lat="48.829853" lon="10.105916">
        <ele>440.6</ele>
        <time>2026-08-27T15:45:22Z</time>
      </trkpt>
      <trkpt lat="48.829907" lon="10.105861">
        <ele>440.7</ele>
        <time>2026-08-27T15:45:23Z</time>
      </trkpt>
      <trkpt lat="48.829951" lon="10.105811">
        <ele>440.7</ele>
        <time>2026-08-27T15:45:24Z</time>
      </trkpt>
      <trkpt lat="48.829992" lon="10.105775">
        <ele>440.7</ele>
        <time>2026-08-27T15:45:25Z</time>
      </trkpt>
      <trkpt lat="48.829992" lon="10.105776">
        <ele>440.7</ele>
        <time>2026-08-27T15:45:26Z</time>
      </trkpt>
      <trkpt lat="48.830006" lon="10.105766">
        <ele>440.7</ele>
        <time>2026-08-27T15:45:27Z</time>
      </trkpt>
      <trkpt lat="48.830025" lon="10.105742">
        <ele>440.7</ele>
        <time>2026-08-27T15:45:28Z</time>
      </trkpt>
      <trkpt lat="48.830043" lon="10.105715">
        <ele>440.7</ele>
        <time>2026-08-27T15:45:29Z</time>
      </trkpt>
      <trkpt lat="48.830062" lon="10.105686">
        <ele>440.7</ele>
        <time>2026-08-27T15:45:30Z</time>
      </trkpt>
      <trkpt lat="48.830080" lon="10.105658">
        <ele>440.8</ele>
        <time>2026-08-27T15:45:31Z</time>
      </trkpt>
      <trkpt lat="48.830098" lon="10.105629">
        <ele>440.8</ele>
        <time>2026-08-27T15:45:32Z</time>
      </trkpt>
      <trkpt lat="48.830111" lon="10.105598">
        <ele>440.8</ele>
        <time>2026-08-27T15:45:33Z</time>
      </trkpt>
      <trkpt lat="48.830121" lon="10.105567">
        <ele>440.8</ele>
        <time>2026-08-27T15:45:34Z</time>
      </trkpt>
      <trkpt lat="48.830110" lon="10.105537">
        <ele>440.9</ele>
        <time>2026-08-27T15:45:35Z</time>
      </trkpt>
      <trkpt lat="48.830109" lon="10.105516">
        <ele>440.9</ele>
        <time>2026-08-27T15:45:36Z</time>
      </trkpt>
      <trkpt lat="48.830113" lon="10.105489">
        <ele>440.9</ele>
        <time>2026-08-27T15:45:37Z</time>
      </trkpt>
      <trkpt lat="48.830114" lon="10.105461">
        <ele>440.9</ele>
        <time>2026-08-27T15:45:38Z</time>
      </trkpt>
      <trkpt lat="48.830111" lon="10.105432">
        <ele>440.9</ele>
        <time>2026-08-27T15:45:39Z</time>
      </trkpt>
      <trkpt lat="48.830106" lon="10.105406">
        <ele>441</ele>
        <time>2026-08-27T15:45:40Z</time>
      </trkpt>
      <trkpt lat="48.830103" lon="10.105380">
        <ele>441</ele>
        <time>2026-08-27T15:45:41Z</time>
      </trkpt>
      <trkpt lat="48.830098" lon="10.105353">
        <ele>441</ele>
        <time>2026-08-27T15:45:42Z</time>
      </trkpt>
      <trkpt lat="48.830087" lon="10.105326">
        <ele>441</ele>
        <time>2026-08-27T15:45:43Z</time>
      </trkpt>
      <trkpt lat="48.830074" lon="10.105301">
        <ele>441</ele>
        <time>2026-08-27T15:45:44Z</time>
      </trkpt>
      <trkpt lat="48.830056" lon="10.105277">
        <ele>441</ele>
        <time>2026-08-27T15:45:45Z</time>
      </trkpt>
      <trkpt lat="48.830047" lon="10.105237">
        <ele>441</ele>
        <time>2026-08-27T15:45:46Z</time>
      </trkpt>
      <trkpt lat="48.830038" lon="10.105204">
        <ele>441</ele>
        <time>2026-08-27T15:45:47Z</time>
      </trkpt>
      <trkpt lat="48.830019" lon="10.105178">
        <ele>441</ele>
        <time>2026-08-27T15:45:48Z</time>
      </trkpt>
      <trkpt lat="48.830007" lon="10.105149">
        <ele>441</ele>
        <time>2026-08-27T15:45:49Z</time>
      </trkpt>
      <trkpt lat="48.829999" lon="10.105120">
        <ele>441</ele>
        <time>2026-08-27T15:45:50Z</time>
      </trkpt>
      <trkpt lat="48.829984" lon="10.105094">
        <ele>441</ele>
        <time>2026-08-27T15:45:51Z</time>
      </trkpt>
      <trkpt lat="48.829974" lon="10.105069">
        <ele>441</ele>
        <time>2026-08-27T15:45:52Z</time>
      </trkpt>
      <trkpt lat="48.829974" lon="10.105069">
        <ele>441</ele>
        <time>2026-08-27T15:45:53Z</time>
      </trkpt>
      <trkpt lat="48.829880" lon="10.104399">
        <ele>440.5</ele>
        <time>2026-08-27T15:45:54Z</time>
      </trkpt>
      <trkpt lat="48.829880" lon="10.104399">
        <ele>440.5</ele>
        <time>2026-08-27T15:45:55Z</time>
      </trkpt>
      <trkpt lat="48.829793" lon="10.103780">
        <ele>439.6</ele>
        <time>2026-08-27T15:45:56Z</time>
      </trkpt>
      <trkpt lat="48.829793" lon="10.103780">
        <ele>439.6</ele>
        <time>2026-08-27T15:45:57Z</time>
      </trkpt>
      <trkpt lat="48.829701" lon="10.103127">
        <ele>439.2</ele>
        <time>2026-08-27T15:45:58Z</time>
      </trkpt>
      <trkpt lat="48.829701" lon="10.103127">
        <ele>439.2</ele>
        <time>2026-08-27T15:45:59Z</time>
      </trkpt>
      <trkpt lat="48.829705" lon="10.103015">
        <ele>439</ele>
        <time>2026-08-27T15:46:00Z</time>
      </trkpt>
      <trkpt lat="48.829724" lon="10.102888">
        <ele>438.9</ele>
        <time>2026-08-27T15:46:01Z</time>
      </trkpt>
      <trkpt lat="48.829740" lon="10.102787">
        <ele>438.8</ele>
        <time>2026-08-27T15:46:02Z</time>
      </trkpt>
      <trkpt lat="48.829760" lon="10.102672">
        <ele>438.7</ele>
        <time>2026-08-27T15:46:03Z</time>
      </trkpt>
      <trkpt lat="48.829787" lon="10.102577">
        <ele>438.6</ele>
        <time>2026-08-27T15:46:04Z</time>
      </trkpt>
      <trkpt lat="48.829811" lon="10.102476">
        <ele>438.4</ele>
        <time>2026-08-27T15:46:05Z</time>
      </trkpt>
      <trkpt lat="48.829841" lon="10.102389">
        <ele>438.4</ele>
        <time>2026-08-27T15:46:06Z</time>
      </trkpt>
      <trkpt lat="48.829883" lon="10.102290">
        <ele>438.2</ele>
        <time>2026-08-27T15:46:07Z</time>
      </trkpt>
      <trkpt lat="48.829927" lon="10.102187">
        <ele>438.1</ele>
        <time>2026-08-27T15:46:08Z</time>
      </trkpt>
      <trkpt lat="48.829957" lon="10.102111">
        <ele>438.1</ele>
        <time>2026-08-27T15:46:09Z</time>
      </trkpt>
      <trkpt lat="48.829988" lon="10.101997">
        <ele>438</ele>
        <time>2026-08-27T15:46:10Z</time>
      </trkpt>
      <trkpt lat="48.830042" lon="10.101950">
        <ele>437.9</ele>
        <time>2026-08-27T15:46:11Z</time>
      </trkpt>
      <trkpt lat="48.830077" lon="10.101855">
        <ele>437.8</ele>
        <time>2026-08-27T15:46:12Z</time>
      </trkpt>
      <trkpt lat="48.830098" lon="10.101741">
        <ele>437.7</ele>
        <time>2026-08-27T15:46:13Z</time>
      </trkpt>
      <trkpt lat="48.830128" lon="10.101636">
        <ele>437.6</ele>
        <time>2026-08-27T15:46:14Z</time>
      </trkpt>
      <trkpt lat="48.830159" lon="10.101589">
        <ele>437.6</ele>
        <time>2026-08-27T15:46:15Z</time>
      </trkpt>
      <trkpt lat="48.830192" lon="10.101494">
        <ele>437.4</ele>
        <time>2026-08-27T15:46:16Z</time>
      </trkpt>
      <trkpt lat="48.830231" lon="10.101441">
        <ele>437.4</ele>
        <time>2026-08-27T15:46:17Z</time>
      </trkpt>
      <trkpt lat="48.830282" lon="10.101340">
        <ele>437.3</ele>
        <time>2026-08-27T15:46:18Z</time>
      </trkpt>
      <trkpt lat="48.830305" lon="10.101278">
        <ele>437.2</ele>
        <time>2026-08-27T15:46:19Z</time>
      </trkpt>
      <trkpt lat="48.830309" lon="10.101203">
        <ele>437.1</ele>
        <time>2026-08-27T15:46:20Z</time>
      </trkpt>
      <trkpt lat="48.830361" lon="10.101150">
        <ele>437.1</ele>
        <time>2026-08-27T15:46:21Z</time>
      </trkpt>
      <trkpt lat="48.830417" lon="10.101083">
        <ele>437</ele>
        <time>2026-08-27T15:46:22Z</time>
      </trkpt>
      <trkpt lat="48.830467" lon="10.101010">
        <ele>436.9</ele>
        <time>2026-08-27T15:46:23Z</time>
      </trkpt>
      <trkpt lat="48.830505" lon="10.100944">
        <ele>436.9</ele>
        <time>2026-08-27T15:46:24Z</time>
      </trkpt>
      <trkpt lat="48.830526" lon="10.100882">
        <ele>436.8</ele>
        <time>2026-08-27T15:46:25Z</time>
      </trkpt>
      <trkpt lat="48.830557" lon="10.100839">
        <ele>436.8</ele>
        <time>2026-08-27T15:46:26Z</time>
      </trkpt>
      <trkpt lat="48.830601" lon="10.100730">
        <ele>436.7</ele>
        <time>2026-08-27T15:46:27Z</time>
      </trkpt>
      <trkpt lat="48.830633" lon="10.100677">
        <ele>436.7</ele>
        <time>2026-08-27T15:46:28Z</time>
      </trkpt>
      <trkpt lat="48.830674" lon="10.100617">
        <ele>436.7</ele>
        <time>2026-08-27T15:46:29Z</time>
      </trkpt>
      <trkpt lat="48.830713" lon="10.100603">
        <ele>436.7</ele>
        <time>2026-08-27T15:46:30Z</time>
      </trkpt>
      <trkpt lat="48.830755" lon="10.100562">
        <ele>436.7</ele>
        <time>2026-08-27T15:46:31Z</time>
      </trkpt>
      <trkpt lat="48.830796" lon="10.100524">
        <ele>436.7</ele>
        <time>2026-08-27T15:46:32Z</time>
      </trkpt>
      <trkpt lat="48.830854" lon="10.100485">
        <ele>436.6</ele>
        <time>2026-08-27T15:46:33Z</time>
      </trkpt>
      <trkpt lat="48.830899" lon="10.100420">
        <ele>436.6</ele>
        <time>2026-08-27T15:46:34Z</time>
      </trkpt>
      <trkpt lat="48.830934" lon="10.100358">
        <ele>436.6</ele>
        <time>2026-08-27T15:46:35Z</time>
      </trkpt>
      <trkpt lat="48.830976" lon="10.100306">
        <ele>436.6</ele>
        <time>2026-08-27T15:46:36Z</time>
      </trkpt>
      <trkpt lat="48.831002" lon="10.100275">
        <ele>436.6</ele>
        <time>2026-08-27T15:46:37Z</time>
      </trkpt>
      <trkpt lat="48.831032" lon="10.100250">
        <ele>436.6</ele>
        <time>2026-08-27T15:46:38Z</time>
      </trkpt>
      <trkpt lat="48.831069" lon="10.100211">
        <ele>436.5</ele>
        <time>2026-08-27T15:46:39Z</time>
      </trkpt>
      <trkpt lat="48.831097" lon="10.100168">
        <ele>436.5</ele>
        <time>2026-08-27T15:46:40Z</time>
      </trkpt>
      <trkpt lat="48.831138" lon="10.100130">
        <ele>436.4</ele>
        <time>2026-08-27T15:46:41Z</time>
      </trkpt>
      <trkpt lat="48.831176" lon="10.100093">
        <ele>436.3</ele>
        <time>2026-08-27T15:46:42Z</time>
      </trkpt>
      <trkpt lat="48.831216" lon="10.100036">
        <ele>436.3</ele>
        <time>2026-08-27T15:46:43Z</time>
      </trkpt>
      <trkpt lat="48.831249" lon="10.099966">
        <ele>436.2</ele>
        <time>2026-08-27T15:46:44Z</time>
      </trkpt>
      <trkpt lat="48.831281" lon="10.099861">
        <ele>436.1</ele>
        <time>2026-08-27T15:46:45Z</time>
      </trkpt>
      <trkpt lat="48.831322" lon="10.099762">
        <ele>436.1</ele>
        <time>2026-08-27T15:46:46Z</time>
      </trkpt>
      <trkpt lat="48.831365" lon="10.099673">
        <ele>436</ele>
        <time>2026-08-27T15:46:47Z</time>
      </trkpt>
      <trkpt lat="48.831416" lon="10.099596">
        <ele>436</ele>
        <time>2026-08-27T15:46:48Z</time>
      </trkpt>
      <trkpt lat="48.831458" lon="10.099533">
        <ele>435.9</ele>
        <time>2026-08-27T15:46:49Z</time>
      </trkpt>
      <trkpt lat="48.831492" lon="10.099485">
        <ele>435.9</ele>
        <time>2026-08-27T15:46:50Z</time>
      </trkpt>
      <trkpt lat="48.831537" lon="10.099365">
        <ele>435.9</ele>
        <time>2026-08-27T15:46:51Z</time>
      </trkpt>
      <trkpt lat="48.831584" lon="10.099252">
        <ele>435.8</ele>
        <time>2026-08-27T15:46:52Z</time>
      </trkpt>
      <trkpt lat="48.831627" lon="10.099160">
        <ele>435.8</ele>
        <time>2026-08-27T15:46:53Z</time>
      </trkpt>
      <trkpt lat="48.831667" lon="10.099078">
        <ele>435.9</ele>
        <time>2026-08-27T15:46:54Z</time>
      </trkpt>
      <trkpt lat="48.831706" lon="10.099009">
        <ele>435.9</ele>
        <time>2026-08-27T15:46:55Z</time>
      </trkpt>
      <trkpt lat="48.831749" lon="10.098951">
        <ele>435.9</ele>
        <time>2026-08-27T15:46:56Z</time>
      </trkpt>
      <trkpt lat="48.831790" lon="10.098897">
        <ele>436</ele>
        <time>2026-08-27T15:46:57Z</time>
      </trkpt>
      <trkpt lat="48.831826" lon="10.098844">
        <ele>436.1</ele>
        <time>2026-08-27T15:46:58Z</time>
      </trkpt>
      <trkpt lat="48.831863" lon="10.098792">
        <ele>436.2</ele>
        <time>2026-08-27T15:46:59Z</time>
      </trkpt>
      <trkpt lat="48.831897" lon="10.098743">
        <ele>436.3</ele>
        <time>2026-08-27T15:47:00Z</time>
      </trkpt>
      <trkpt lat="48.831930" lon="10.098696">
        <ele>436.5</ele>
        <time>2026-08-27T15:47:01Z</time>
      </trkpt>
      <trkpt lat="48.831960" lon="10.098656">
        <ele>436.6</ele>
        <time>2026-08-27T15:47:02Z</time>
      </trkpt>
      <trkpt lat="48.832002" lon="10.098620">
        <ele>436.7</ele>
        <time>2026-08-27T15:47:03Z</time>
      </trkpt>
      <trkpt lat="48.832012" lon="10.098594">
        <ele>436.8</ele>
        <time>2026-08-27T15:47:04Z</time>
      </trkpt>
      <trkpt lat="48.832026" lon="10.098569">
        <ele>436.9</ele>
        <time>2026-08-27T15:47:05Z</time>
      </trkpt>
      <trkpt lat="48.832032" lon="10.098541">
        <ele>436.9</ele>
        <time>2026-08-27T15:47:06Z</time>
      </trkpt>
      <trkpt lat="48.832042" lon="10.098511">
        <ele>437</ele>
        <time>2026-08-27T15:47:07Z</time>
      </trkpt>
      <trkpt lat="48.832060" lon="10.098479">
        <ele>437.1</ele>
        <time>2026-08-27T15:47:08Z</time>
      </trkpt>
      <trkpt lat="48.832079" lon="10.098441">
        <ele>437.1</ele>
        <time>2026-08-27T15:47:09Z</time>
      </trkpt>
      <trkpt lat="48.832098" lon="10.098407">
        <ele>437.1</ele>
        <time>2026-08-27T15:47:10Z</time>
      </trkpt>
      <trkpt lat="48.832123" lon="10.098367">
        <ele>437.1</ele>
        <time>2026-08-27T15:47:11Z</time>
      </trkpt>
      <trkpt lat="48.832147" lon="10.098332">
        <ele>437</ele>
        <time>2026-08-27T15:47:12Z</time>
      </trkpt>
      <trkpt lat="48.832170" lon="10.098300">
        <ele>436.9</ele>
        <time>2026-08-27T15:47:13Z</time>
      </trkpt>
      <trkpt lat="48.832202" lon="10.098258">
        <ele>436.8</ele>
        <time>2026-08-27T15:47:14Z</time>
      </trkpt>
      <trkpt lat="48.832234" lon="10.098213">
        <ele>436.7</ele>
        <time>2026-08-27T15:47:15Z</time>
      </trkpt>
      <trkpt lat="48.832265" lon="10.098168">
        <ele>436.7</ele>
        <time>2026-08-27T15:47:16Z</time>
      </trkpt>
      <trkpt lat="48.832289" lon="10.098124">
        <ele>436.6</ele>
        <time>2026-08-27T15:47:17Z</time>
      </trkpt>
      <trkpt lat="48.832311" lon="10.098076">
        <ele>436.5</ele>
        <time>2026-08-27T15:47:18Z</time>
      </trkpt>
      <trkpt lat="48.832335" lon="10.098025">
        <ele>436.5</ele>
        <time>2026-08-27T15:47:19Z</time>
      </trkpt>
      <trkpt lat="48.832358" lon="10.097978">
        <ele>436.5</ele>
        <time>2026-08-27T15:47:20Z</time>
      </trkpt>
      <trkpt lat="48.832378" lon="10.097926">
        <ele>436.5</ele>
        <time>2026-08-27T15:47:21Z</time>
      </trkpt>
      <trkpt lat="48.832398" lon="10.097867">
        <ele>436.5</ele>
        <time>2026-08-27T15:47:22Z</time>
      </trkpt>
      <trkpt lat="48.832432" lon="10.097774">
        <ele>436.4</ele>
        <time>2026-08-27T15:47:23Z</time>
      </trkpt>
      <trkpt lat="48.832446" lon="10.097697">
        <ele>436.4</ele>
        <time>2026-08-27T15:47:24Z</time>
      </trkpt>
      <trkpt lat="48.832481" lon="10.097660">
        <ele>436.4</ele>
        <time>2026-08-27T15:47:25Z</time>
      </trkpt>
      <trkpt lat="48.832500" lon="10.097587">
        <ele>436.4</ele>
        <time>2026-08-27T15:47:26Z</time>
      </trkpt>
      <trkpt lat="48.832521" lon="10.097518">
        <ele>436.4</ele>
        <time>2026-08-27T15:47:27Z</time>
      </trkpt>
      <trkpt lat="48.832549" lon="10.097447">
        <ele>436.4</ele>
        <time>2026-08-27T15:47:28Z</time>
      </trkpt>
      <trkpt lat="48.832556" lon="10.097397">
        <ele>436.4</ele>
        <time>2026-08-27T15:47:29Z</time>
      </trkpt>
      <trkpt lat="48.832570" lon="10.097341">
        <ele>436.4</ele>
        <time>2026-08-27T15:47:30Z</time>
      </trkpt>
      <trkpt lat="48.832585" lon="10.097273">
        <ele>436.3</ele>
        <time>2026-08-27T15:47:31Z</time>
      </trkpt>
      <trkpt lat="48.832605" lon="10.097208">
        <ele>436.3</ele>
        <time>2026-08-27T15:47:32Z</time>
      </trkpt>
      <trkpt lat="48.832626" lon="10.097138">
        <ele>436.3</ele>
        <time>2026-08-27T15:47:33Z</time>
      </trkpt>
      <trkpt lat="48.832641" lon="10.097073">
        <ele>436.2</ele>
        <time>2026-08-27T15:47:34Z</time>
      </trkpt>
      <trkpt lat="48.832653" lon="10.097009">
        <ele>436.2</ele>
        <time>2026-08-27T15:47:35Z</time>
      </trkpt>
      <trkpt lat="48.832664" lon="10.096946">
        <ele>436.1</ele>
        <time>2026-08-27T15:47:36Z</time>
      </trkpt>
      <trkpt lat="48.832672" lon="10.096884">
        <ele>436.1</ele>
        <time>2026-08-27T15:47:37Z</time>
      </trkpt>
      <trkpt lat="48.832683" lon="10.096828">
        <ele>436</ele>
        <time>2026-08-27T15:47:38Z</time>
      </trkpt>
      <trkpt lat="48.832696" lon="10.096778">
        <ele>435.9</ele>
        <time>2026-08-27T15:47:39Z</time>
      </trkpt>
      <trkpt lat="48.832740" lon="10.096716">
        <ele>435.8</ele>
        <time>2026-08-27T15:47:40Z</time>
      </trkpt>
      <trkpt lat="48.832798" lon="10.096667">
        <ele>435.6</ele>
        <time>2026-08-27T15:47:41Z</time>
      </trkpt>
      <trkpt lat="48.832904" lon="10.096617">
        <ele>435.3</ele>
        <time>2026-08-27T15:47:42Z</time>
      </trkpt>
      <trkpt lat="48.832954" lon="10.096587">
        <ele>435.2</ele>
        <time>2026-08-27T15:47:43Z</time>
      </trkpt>
      <trkpt lat="48.833000" lon="10.096543">
        <ele>435.1</ele>
        <time>2026-08-27T15:47:44Z</time>
      </trkpt>
      <trkpt lat="48.833045" lon="10.096500">
        <ele>435</ele>
        <time>2026-08-27T15:47:45Z</time>
      </trkpt>
      <trkpt lat="48.833085" lon="10.096450">
        <ele>434.9</ele>
        <time>2026-08-27T15:47:46Z</time>
      </trkpt>
      <trkpt lat="48.833121" lon="10.096398">
        <ele>434.8</ele>
        <time>2026-08-27T15:47:47Z</time>
      </trkpt>
      <trkpt lat="48.833181" lon="10.096358">
        <ele>434.7</ele>
        <time>2026-08-27T15:47:48Z</time>
      </trkpt>
      <trkpt lat="48.833231" lon="10.096302">
        <ele>434.6</ele>
        <time>2026-08-27T15:47:49Z</time>
      </trkpt>
      <trkpt lat="48.833273" lon="10.096242">
        <ele>434.5</ele>
        <time>2026-08-27T15:47:50Z</time>
      </trkpt>
      <trkpt lat="48.833322" lon="10.096183">
        <ele>434.4</ele>
        <time>2026-08-27T15:47:51Z</time>
      </trkpt>
      <trkpt lat="48.833360" lon="10.096124">
        <ele>434.3</ele>
        <time>2026-08-27T15:47:52Z</time>
      </trkpt>
      <trkpt lat="48.833400" lon="10.096070">
        <ele>434.2</ele>
        <time>2026-08-27T15:47:53Z</time>
      </trkpt>
      <trkpt lat="48.833441" lon="10.096020">
        <ele>434.1</ele>
        <time>2026-08-27T15:47:54Z</time>
      </trkpt>
      <trkpt lat="48.833486" lon="10.095955">
        <ele>434</ele>
        <time>2026-08-27T15:47:55Z</time>
      </trkpt>
      <trkpt lat="48.833519" lon="10.095879">
        <ele>434</ele>
        <time>2026-08-27T15:47:56Z</time>
      </trkpt>
      <trkpt lat="48.833560" lon="10.095811">
        <ele>433.9</ele>
        <time>2026-08-27T15:47:57Z</time>
      </trkpt>
      <trkpt lat="48.833575" lon="10.095732">
        <ele>433.9</ele>
        <time>2026-08-27T15:47:58Z</time>
      </trkpt>
      <trkpt lat="48.833599" lon="10.095678">
        <ele>433.9</ele>
        <time>2026-08-27T15:47:59Z</time>
      </trkpt>
      <trkpt lat="48.833621" lon="10.095610">
        <ele>433.9</ele>
        <time>2026-08-27T15:48:00Z</time>
      </trkpt>
      <trkpt lat="48.833659" lon="10.095587">
        <ele>433.9</ele>
        <time>2026-08-27T15:48:01Z</time>
      </trkpt>
      <trkpt lat="48.833713" lon="10.095531">
        <ele>433.9</ele>
        <time>2026-08-27T15:48:02Z</time>
      </trkpt>
      <trkpt lat="48.833754" lon="10.095490">
        <ele>433.9</ele>
        <time>2026-08-27T15:48:03Z</time>
      </trkpt>
      <trkpt lat="48.833774" lon="10.095451">
        <ele>434</ele>
        <time>2026-08-27T15:48:04Z</time>
      </trkpt>
      <trkpt lat="48.833797" lon="10.095440">
        <ele>434</ele>
        <time>2026-08-27T15:48:05Z</time>
      </trkpt>
      <trkpt lat="48.833820" lon="10.095411">
        <ele>434</ele>
        <time>2026-08-27T15:48:06Z</time>
      </trkpt>
      <trkpt lat="48.833911" lon="10.095378">
        <ele>434.1</ele>
        <time>2026-08-27T15:48:07Z</time>
      </trkpt>
      <trkpt lat="48.833989" lon="10.095464">
        <ele>434.1</ele>
        <time>2026-08-27T15:48:08Z</time>
      </trkpt>
      <trkpt lat="48.834034" lon="10.095482">
        <ele>434.1</ele>
        <time>2026-08-27T15:48:09Z</time>
      </trkpt>
      <trkpt lat="48.834068" lon="10.095479">
        <ele>434.1</ele>
        <time>2026-08-27T15:48:10Z</time>
      </trkpt>
      <trkpt lat="48.834100" lon="10.095477">
        <ele>434.1</ele>
        <time>2026-08-27T15:48:11Z</time>
      </trkpt>
      <trkpt lat="48.834132" lon="10.095419">
        <ele>434</ele>
        <time>2026-08-27T15:48:12Z</time>
      </trkpt>
      <trkpt lat="48.834160" lon="10.095388">
        <ele>433.9</ele>
        <time>2026-08-27T15:48:13Z</time>
      </trkpt>
      <trkpt lat="48.834207" lon="10.095300">
        <ele>433.9</ele>
        <time>2026-08-27T15:48:14Z</time>
      </trkpt>
      <trkpt lat="48.834244" lon="10.095233">
        <ele>433.8</ele>
        <time>2026-08-27T15:48:15Z</time>
      </trkpt>
      <trkpt lat="48.834290" lon="10.095170">
        <ele>433.8</ele>
        <time>2026-08-27T15:48:16Z</time>
      </trkpt>
      <trkpt lat="48.834324" lon="10.095118">
        <ele>433.8</ele>
        <time>2026-08-27T15:48:17Z</time>
      </trkpt>
      <trkpt lat="48.834359" lon="10.095069">
        <ele>433.8</ele>
        <time>2026-08-27T15:48:18Z</time>
      </trkpt>
      <trkpt lat="48.834392" lon="10.095019">
        <ele>433.8</ele>
        <time>2026-08-27T15:48:19Z</time>
      </trkpt>
      <trkpt lat="48.834424" lon="10.094984">
        <ele>433.8</ele>
        <time>2026-08-27T15:48:20Z</time>
      </trkpt>
      <trkpt lat="48.834458" lon="10.094957">
        <ele>433.8</ele>
        <time>2026-08-27T15:48:21Z</time>
      </trkpt>
      <trkpt lat="48.834486" lon="10.094937">
        <ele>433.8</ele>
        <time>2026-08-27T15:48:22Z</time>
      </trkpt>
      <trkpt lat="48.834520" lon="10.094928">
        <ele>433.9</ele>
        <time>2026-08-27T15:48:23Z</time>
      </trkpt>
      <trkpt lat="48.834568" lon="10.094973">
        <ele>433.8</ele>
        <time>2026-08-27T15:48:24Z</time>
      </trkpt>
      <trkpt lat="48.834606" lon="10.095034">
        <ele>433.7</ele>
        <time>2026-08-27T15:48:25Z</time>
      </trkpt>
      <trkpt lat="48.834665" lon="10.095110">
        <ele>433.5</ele>
        <time>2026-08-27T15:48:26Z</time>
      </trkpt>
      <trkpt lat="48.834682" lon="10.095157">
        <ele>433.4</ele>
        <time>2026-08-27T15:48:27Z</time>
      </trkpt>
      <trkpt lat="48.834700" lon="10.095239">
        <ele>433.2</ele>
        <time>2026-08-27T15:48:28Z</time>
      </trkpt>
      <trkpt lat="48.834727" lon="10.095289">
        <ele>433.1</ele>
        <time>2026-08-27T15:48:29Z</time>
      </trkpt>
      <trkpt lat="48.834754" lon="10.095348">
        <ele>433</ele>
        <time>2026-08-27T15:48:30Z</time>
      </trkpt>
      <trkpt lat="48.834817" lon="10.095350">
        <ele>432.9</ele>
        <time>2026-08-27T15:48:31Z</time>
      </trkpt>
      <trkpt lat="48.834885" lon="10.095428">
        <ele>432.9</ele>
        <time>2026-08-27T15:48:32Z</time>
      </trkpt>
      <trkpt lat="48.834923" lon="10.095465">
        <ele>432.8</ele>
        <time>2026-08-27T15:48:33Z</time>
      </trkpt>
      <trkpt lat="48.834955" lon="10.095480">
        <ele>432.8</ele>
        <time>2026-08-27T15:48:34Z</time>
      </trkpt>
      <trkpt lat="48.835004" lon="10.095546">
        <ele>432.8</ele>
        <time>2026-08-27T15:48:35Z</time>
      </trkpt>
      <trkpt lat="48.835055" lon="10.095566">
        <ele>432.8</ele>
        <time>2026-08-27T15:48:36Z</time>
      </trkpt>
      <trkpt lat="48.835111" lon="10.095615">
        <ele>432.8</ele>
        <time>2026-08-27T15:48:37Z</time>
      </trkpt>
      <trkpt lat="48.835155" lon="10.095665">
        <ele>432.8</ele>
        <time>2026-08-27T15:48:38Z</time>
      </trkpt>
      <trkpt lat="48.835202" lon="10.095715">
        <ele>432.9</ele>
        <time>2026-08-27T15:48:39Z</time>
      </trkpt>
      <trkpt lat="48.835246" lon="10.095764">
        <ele>432.9</ele>
        <time>2026-08-27T15:48:40Z</time>
      </trkpt>
      <trkpt lat="48.835292" lon="10.095815">
        <ele>433</ele>
        <time>2026-08-27T15:48:41Z</time>
      </trkpt>
      <trkpt lat="48.835336" lon="10.095857">
        <ele>433.1</ele>
        <time>2026-08-27T15:48:42Z</time>
      </trkpt>
      <trkpt lat="48.835382" lon="10.095889">
        <ele>433.1</ele>
        <time>2026-08-27T15:48:43Z</time>
      </trkpt>
      <trkpt lat="48.835428" lon="10.095924">
        <ele>433.2</ele>
        <time>2026-08-27T15:48:44Z</time>
      </trkpt>
      <trkpt lat="48.835474" lon="10.095966">
        <ele>433.3</ele>
        <time>2026-08-27T15:48:45Z</time>
      </trkpt>
      <trkpt lat="48.835514" lon="10.095991">
        <ele>433.4</ele>
        <time>2026-08-27T15:48:46Z</time>
      </trkpt>
      <trkpt lat="48.835552" lon="10.096017">
        <ele>433.5</ele>
        <time>2026-08-27T15:48:47Z</time>
      </trkpt>
      <trkpt lat="48.835590" lon="10.096036">
        <ele>433.5</ele>
        <time>2026-08-27T15:48:48Z</time>
      </trkpt>
      <trkpt lat="48.835624" lon="10.096052">
        <ele>433.6</ele>
        <time>2026-08-27T15:48:49Z</time>
      </trkpt>
      <trkpt lat="48.835665" lon="10.096078">
        <ele>433.7</ele>
        <time>2026-08-27T15:48:50Z</time>
      </trkpt>
      <trkpt lat="48.835714" lon="10.096124">
        <ele>433.8</ele>
        <time>2026-08-27T15:48:51Z</time>
      </trkpt>
      <trkpt lat="48.835750" lon="10.096154">
        <ele>433.9</ele>
        <time>2026-08-27T15:48:52Z</time>
      </trkpt>
      <trkpt lat="48.835777" lon="10.096191">
        <ele>434</ele>
        <time>2026-08-27T15:48:53Z</time>
      </trkpt>
      <trkpt lat="48.835802" lon="10.096229">
        <ele>434</ele>
        <time>2026-08-27T15:48:54Z</time>
      </trkpt>
      <trkpt lat="48.835841" lon="10.096272">
        <ele>434.1</ele>
        <time>2026-08-27T15:48:55Z</time>
      </trkpt>
      <trkpt lat="48.835871" lon="10.096308">
        <ele>434.2</ele>
        <time>2026-08-27T15:48:56Z</time>
      </trkpt>
      <trkpt lat="48.835903" lon="10.096317">
        <ele>434.3</ele>
        <time>2026-08-27T15:48:57Z</time>
      </trkpt>
      <trkpt lat="48.835937" lon="10.096328">
        <ele>434.3</ele>
        <time>2026-08-27T15:48:58Z</time>
      </trkpt>
      <trkpt lat="48.835976" lon="10.096336">
        <ele>434.4</ele>
        <time>2026-08-27T15:48:59Z</time>
      </trkpt>
      <trkpt lat="48.836017" lon="10.096344">
        <ele>434.4</ele>
        <time>2026-08-27T15:49:00Z</time>
      </trkpt>
      <trkpt lat="48.836064" lon="10.096351">
        <ele>434.4</ele>
        <time>2026-08-27T15:49:01Z</time>
      </trkpt>
      <trkpt lat="48.836104" lon="10.096357">
        <ele>434.4</ele>
        <time>2026-08-27T15:49:02Z</time>
      </trkpt>
      <trkpt lat="48.836143" lon="10.096361">
        <ele>434.4</ele>
        <time>2026-08-27T15:49:03Z</time>
      </trkpt>
      <trkpt lat="48.836207" lon="10.096389">
        <ele>434.4</ele>
        <time>2026-08-27T15:49:04Z</time>
      </trkpt>
      <trkpt lat="48.836270" lon="10.096410">
        <ele>434.4</ele>
        <time>2026-08-27T15:49:05Z</time>
      </trkpt>
      <trkpt lat="48.836317" lon="10.096431">
        <ele>434.4</ele>
        <time>2026-08-27T15:49:06Z</time>
      </trkpt>
      <trkpt lat="48.836364" lon="10.096446">
        <ele>434.4</ele>
        <time>2026-08-27T15:49:07Z</time>
      </trkpt>
      <trkpt lat="48.836417" lon="10.096455">
        <ele>434.3</ele>
        <time>2026-08-27T15:49:08Z</time>
      </trkpt>
      <trkpt lat="48.836474" lon="10.096473">
        <ele>434.3</ele>
        <time>2026-08-27T15:49:09Z</time>
      </trkpt>
      <trkpt lat="48.836528" lon="10.096502">
        <ele>434.2</ele>
        <time>2026-08-27T15:49:10Z</time>
      </trkpt>
      <trkpt lat="48.836584" lon="10.096535">
        <ele>434.2</ele>
        <time>2026-08-27T15:49:11Z</time>
      </trkpt>
      <trkpt lat="48.836636" lon="10.096564">
        <ele>434.1</ele>
        <time>2026-08-27T15:49:12Z</time>
      </trkpt>
      <trkpt lat="48.836686" lon="10.096594">
        <ele>434</ele>
        <time>2026-08-27T15:49:13Z</time>
      </trkpt>
      <trkpt lat="48.836731" lon="10.096618">
        <ele>433.9</ele>
        <time>2026-08-27T15:49:14Z</time>
      </trkpt>
      <trkpt lat="48.836783" lon="10.096640">
        <ele>433.7</ele>
        <time>2026-08-27T15:49:15Z</time>
      </trkpt>
      <trkpt lat="48.836830" lon="10.096663">
        <ele>433.6</ele>
        <time>2026-08-27T15:49:16Z</time>
      </trkpt>
      <trkpt lat="48.836876" lon="10.096685">
        <ele>433.4</ele>
        <time>2026-08-27T15:49:17Z</time>
      </trkpt>
      <trkpt lat="48.836960" lon="10.096711">
        <ele>433</ele>
        <time>2026-08-27T15:49:18Z</time>
      </trkpt>
      <trkpt lat="48.837011" lon="10.096700">
        <ele>432.8</ele>
        <time>2026-08-27T15:49:19Z</time>
      </trkpt>
      <trkpt lat="48.837053" lon="10.096712">
        <ele>432.6</ele>
        <time>2026-08-27T15:49:20Z</time>
      </trkpt>
      <trkpt lat="48.837092" lon="10.096731">
        <ele>432.5</ele>
        <time>2026-08-27T15:49:21Z</time>
      </trkpt>
      <trkpt lat="48.837124" lon="10.096752">
        <ele>432.3</ele>
        <time>2026-08-27T15:49:22Z</time>
      </trkpt>
      <trkpt lat="48.837146" lon="10.096801">
        <ele>432.2</ele>
        <time>2026-08-27T15:49:23Z</time>
      </trkpt>
      <trkpt lat="48.837188" lon="10.096826">
        <ele>432</ele>
        <time>2026-08-27T15:49:24Z</time>
      </trkpt>
      <trkpt lat="48.837210" lon="10.096864">
        <ele>431.8</ele>
        <time>2026-08-27T15:49:25Z</time>
      </trkpt>
      <trkpt lat="48.837244" lon="10.096890">
        <ele>431.7</ele>
        <time>2026-08-27T15:49:26Z</time>
      </trkpt>
      <trkpt lat="48.837282" lon="10.096972">
        <ele>431.5</ele>
        <time>2026-08-27T15:49:27Z</time>
      </trkpt>
      <trkpt lat="48.837297" lon="10.097064">
        <ele>431.5</ele>
        <time>2026-08-27T15:49:28Z</time>
      </trkpt>
      <trkpt lat="48.837310" lon="10.097200">
        <ele>431.6</ele>
        <time>2026-08-27T15:49:29Z</time>
      </trkpt>
      <trkpt lat="48.837324" lon="10.097316">
        <ele>431.7</ele>
        <time>2026-08-27T15:49:30Z</time>
      </trkpt>
      <trkpt lat="48.837336" lon="10.097399">
        <ele>431.8</ele>
        <time>2026-08-27T15:49:31Z</time>
      </trkpt>
      <trkpt lat="48.837349" lon="10.097460">
        <ele>431.9</ele>
        <time>2026-08-27T15:49:32Z</time>
      </trkpt>
      <trkpt lat="48.837345" lon="10.097537">
        <ele>432.2</ele>
        <time>2026-08-27T15:49:33Z</time>
      </trkpt>
      <trkpt lat="48.837350" lon="10.097606">
        <ele>432.4</ele>
        <time>2026-08-27T15:49:34Z</time>
      </trkpt>
      <trkpt lat="48.837353" lon="10.097674">
        <ele>432.6</ele>
        <time>2026-08-27T15:49:35Z</time>
      </trkpt>
      <trkpt lat="48.837351" lon="10.097733">
        <ele>432.8</ele>
        <time>2026-08-27T15:49:36Z</time>
      </trkpt>
      <trkpt lat="48.837354" lon="10.097789">
        <ele>433</ele>
        <time>2026-08-27T15:49:37Z</time>
      </trkpt>
      <trkpt lat="48.837346" lon="10.097850">
        <ele>433.2</ele>
        <time>2026-08-27T15:49:38Z</time>
      </trkpt>
      <trkpt lat="48.837338" lon="10.097904">
        <ele>433.4</ele>
        <time>2026-08-27T15:49:39Z</time>
      </trkpt>
      <trkpt lat="48.837342" lon="10.097950">
        <ele>433.6</ele>
        <time>2026-08-27T15:49:40Z</time>
      </trkpt>
      <trkpt lat="48.837349" lon="10.097997">
        <ele>433.8</ele>
        <time>2026-08-27T15:49:41Z</time>
      </trkpt>
      <trkpt lat="48.837353" lon="10.098037">
        <ele>433.9</ele>
        <time>2026-08-27T15:49:42Z</time>
      </trkpt>
      <trkpt lat="48.837361" lon="10.098079">
        <ele>434.1</ele>
        <time>2026-08-27T15:49:43Z</time>
      </trkpt>
      <trkpt lat="48.837382" lon="10.098117">
        <ele>434.1</ele>
        <time>2026-08-27T15:49:44Z</time>
      </trkpt>
      <trkpt lat="48.837401" lon="10.098151">
        <ele>434.2</ele>
        <time>2026-08-27T15:49:45Z</time>
      </trkpt>
      <trkpt lat="48.837432" lon="10.098162">
        <ele>434.2</ele>
        <time>2026-08-27T15:49:46Z</time>
      </trkpt>
      <trkpt lat="48.837475" lon="10.098173">
        <ele>434.3</ele>
        <time>2026-08-27T15:49:47Z</time>
      </trkpt>
      <trkpt lat="48.837511" lon="10.098185">
        <ele>434.4</ele>
        <time>2026-08-27T15:49:48Z</time>
      </trkpt>
      <trkpt lat="48.837534" lon="10.098188">
        <ele>434.5</ele>
        <time>2026-08-27T15:49:49Z</time>
      </trkpt>
      <trkpt lat="48.837571" lon="10.098184">
        <ele>434.5</ele>
        <time>2026-08-27T15:49:50Z</time>
      </trkpt>
      <trkpt lat="48.837605" lon="10.098179">
        <ele>434.6</ele>
        <time>2026-08-27T15:49:51Z</time>
      </trkpt>
      <trkpt lat="48.837635" lon="10.098172">
        <ele>434.6</ele>
        <time>2026-08-27T15:49:52Z</time>
      </trkpt>
      <trkpt lat="48.837663" lon="10.098150">
        <ele>434.7</ele>
        <time>2026-08-27T15:49:53Z</time>
      </trkpt>
      <trkpt lat="48.837687" lon="10.098123">
        <ele>434.7</ele>
        <time>2026-08-27T15:49:54Z</time>
      </trkpt>
      <trkpt lat="48.837710" lon="10.098090">
        <ele>434.7</ele>
        <time>2026-08-27T15:49:55Z</time>
      </trkpt>
      <trkpt lat="48.837736" lon="10.098065">
        <ele>434.7</ele>
        <time>2026-08-27T15:49:56Z</time>
      </trkpt>
      <trkpt lat="48.837778" lon="10.098038">
        <ele>434.7</ele>
        <time>2026-08-27T15:49:57Z</time>
      </trkpt>
      <trkpt lat="48.837807" lon="10.097990">
        <ele>434.7</ele>
        <time>2026-08-27T15:49:58Z</time>
      </trkpt>
      <trkpt lat="48.837838" lon="10.097934">
        <ele>434.7</ele>
        <time>2026-08-27T15:49:59Z</time>
      </trkpt>
      <trkpt lat="48.837875" lon="10.097877">
        <ele>434.7</ele>
        <time>2026-08-27T15:50:00Z</time>
      </trkpt>
      <trkpt lat="48.837908" lon="10.097827">
        <ele>434.7</ele>
        <time>2026-08-27T15:50:01Z</time>
      </trkpt>
      <trkpt lat="48.837933" lon="10.097770">
        <ele>434.7</ele>
        <time>2026-08-27T15:50:02Z</time>
      </trkpt>
      <trkpt lat="48.837960" lon="10.097713">
        <ele>434.7</ele>
        <time>2026-08-27T15:50:03Z</time>
      </trkpt>
      <trkpt lat="48.837983" lon="10.097650">
        <ele>434.7</ele>
        <time>2026-08-27T15:50:04Z</time>
      </trkpt>
      <trkpt lat="48.838003" lon="10.097587">
        <ele>434.6</ele>
        <time>2026-08-27T15:50:05Z</time>
      </trkpt>
      <trkpt lat="48.838030" lon="10.097533">
        <ele>434.6</ele>
        <time>2026-08-27T15:50:06Z</time>
      </trkpt>
      <trkpt lat="48.838048" lon="10.097485">
        <ele>434.6</ele>
        <time>2026-08-27T15:50:07Z</time>
      </trkpt>
      <trkpt lat="48.838075" lon="10.097440">
        <ele>434.5</ele>
        <time>2026-08-27T15:50:08Z</time>
      </trkpt>
      <trkpt lat="48.838112" lon="10.097388">
        <ele>434.5</ele>
        <time>2026-08-27T15:50:09Z</time>
      </trkpt>
      <trkpt lat="48.838160" lon="10.097328">
        <ele>434.4</ele>
        <time>2026-08-27T15:50:10Z</time>
      </trkpt>
      <trkpt lat="48.838227" lon="10.097304">
        <ele>434.4</ele>
        <time>2026-08-27T15:50:11Z</time>
      </trkpt>
      <trkpt lat="48.838292" lon="10.097293">
        <ele>434.4</ele>
        <time>2026-08-27T15:50:12Z</time>
      </trkpt>
      <trkpt lat="48.838355" lon="10.097272">
        <ele>434.3</ele>
        <time>2026-08-27T15:50:13Z</time>
      </trkpt>
    </trkseg>
  </trk>
</gpx>